<?xml version="1.0" encoding="UTF-8" standalone="no" ?>
<gpx xmlns="http://www.topografix.com/GPX/1/1" xmlns:xsi="http://www.w3.org/2001/XMLSchema-instance" xsi:schemaLocation="http://www.topografix.com/GPX/1/1 http://www.topografix.com/GPX/1/1/gpx.xsd" version="1.1" creator="VisuGPX - https://www.visugpx.com">
  <metadata>
    <name>Marche Audax 13 km Limours-Bonnelles-Bissy-Malassis</name>
    <desc><![CDATA[Certaines parties sur chaussée sans trop de circulation.
Marche #Audax

Difficulté : Facile]]></desc>
  </metadata>
  <trk>
    <name><![CDATA[trace_1]]></name>
    <extensions>
      <line xmlns="http://www.topografix.com/GPX/gpx_style/0/2">
        <color>0000FF</color>
        <width>4</width>
      </line>
    </extensions>
    <trkseg>
      <trkpt lat="48.64328" lon="2.06708">
        <ele>164.2</ele>
        <time>2024-12-30T12:03:04.791Z</time>
      </trkpt>
      <trkpt lat="48.64331" lon="2.06697">
        <ele>164.1</ele>
        <time>2024-12-30T12:03:09.798Z</time>
      </trkpt>
      <trkpt lat="48.64335" lon="2.06686">
        <ele>163.9</ele>
        <time>2024-12-30T12:03:14.805Z</time>
      </trkpt>
      <trkpt lat="48.64338" lon="2.06675">
        <ele>163.7</ele>
        <time>2024-12-30T12:03:19.812Z</time>
      </trkpt>
      <trkpt lat="48.64342" lon="2.06664">
        <ele>163.4</ele>
        <time>2024-12-30T12:03:24.819Z</time>
      </trkpt>
      <trkpt lat="48.64345" lon="2.06653">
        <ele>163.4</ele>
        <time>2024-12-30T12:03:29.827Z</time>
      </trkpt>
      <trkpt lat="48.64345" lon="2.06653">
        <ele>163.4</ele>
        <time>2024-12-30T12:03:29.827Z</time>
      </trkpt>
      <trkpt lat="48.64345" lon="2.06653">
        <ele>163.4</ele>
        <time>2024-12-30T12:03:29.827Z</time>
      </trkpt>
      <trkpt lat="48.64345" lon="2.06653">
        <ele>163.4</ele>
        <time>2024-12-30T12:03:29.827Z</time>
      </trkpt>
      <trkpt lat="48.64349" lon="2.06656">
        <ele>163.1</ele>
        <time>2024-12-30T12:03:32.459Z</time>
      </trkpt>
      <trkpt lat="48.64353" lon="2.0666">
        <ele>162.8</ele>
        <time>2024-12-30T12:03:35.091Z</time>
      </trkpt>
      <trkpt lat="48.64357" lon="2.06663">
        <ele>162.4</ele>
        <time>2024-12-30T12:03:37.723Z</time>
      </trkpt>
      <trkpt lat="48.64361" lon="2.06667">
        <ele>162</ele>
        <time>2024-12-30T12:03:40.355Z</time>
      </trkpt>
      <trkpt lat="48.64365" lon="2.0667">
        <ele>161.9</ele>
        <time>2024-12-30T12:03:42.987Z</time>
      </trkpt>
      <trkpt lat="48.64369" lon="2.06673">
        <ele>161.7</ele>
        <time>2024-12-30T12:03:45.619Z</time>
      </trkpt>
      <trkpt lat="48.64373" lon="2.06677">
        <ele>161.6</ele>
        <time>2024-12-30T12:03:48.251Z</time>
      </trkpt>
      <trkpt lat="48.64377" lon="2.0668">
        <ele>161.4</ele>
        <time>2024-12-30T12:03:50.884Z</time>
      </trkpt>
      <trkpt lat="48.64384" lon="2.06687">
        <ele>161.2</ele>
        <time>2024-12-30T12:03:55.801Z</time>
      </trkpt>
      <trkpt lat="48.64392" lon="2.06694">
        <ele>160.8</ele>
        <time>2024-12-30T12:04:00.718Z</time>
      </trkpt>
      <trkpt lat="48.64399" lon="2.06701">
        <ele>160.1</ele>
        <time>2024-12-30T12:04:05.635Z</time>
      </trkpt>
      <trkpt lat="48.64406" lon="2.06708">
        <ele>159.6</ele>
        <time>2024-12-30T12:04:10.552Z</time>
      </trkpt>
      <trkpt lat="48.64413" lon="2.06714">
        <ele>159.2</ele>
        <time>2024-12-30T12:04:15.469Z</time>
      </trkpt>
      <trkpt lat="48.64421" lon="2.06721">
        <ele>158.7</ele>
        <time>2024-12-30T12:04:20.386Z</time>
      </trkpt>
      <trkpt lat="48.64428" lon="2.06728">
        <ele>158.1</ele>
        <time>2024-12-30T12:04:25.303Z</time>
      </trkpt>
      <trkpt lat="48.64435" lon="2.06735">
        <ele>157.5</ele>
        <time>2024-12-30T12:04:30.220Z</time>
      </trkpt>
      <trkpt lat="48.64439" lon="2.06739">
        <ele>157.3</ele>
        <time>2024-12-30T12:04:32.885Z</time>
      </trkpt>
      <trkpt lat="48.64443" lon="2.06742">
        <ele>157.1</ele>
        <time>2024-12-30T12:04:35.551Z</time>
      </trkpt>
      <trkpt lat="48.64448" lon="2.06747">
        <ele>156.8</ele>
        <time>2024-12-30T12:04:38.651Z</time>
      </trkpt>
      <trkpt lat="48.64452" lon="2.06751">
        <ele>156.4</ele>
        <time>2024-12-30T12:04:41.751Z</time>
        <extensions>
          <visugpx:TrkExtension xmlns:visugpx="https://www.visugpx.com/editgpx/">
            <visugpx:node>1</visugpx:node>
            </visugpx:TrkExtension>
        </extensions>
      </trkpt>
      <trkpt lat="48.64459" lon="2.06757">
        <ele>155.7</ele>
        <time>2024-12-30T12:04:46.374Z</time>
      </trkpt>
      <trkpt lat="48.6446" lon="2.06748">
        <ele>155.9</ele>
        <time>2024-12-30T12:04:50.503Z</time>
      </trkpt>
      <trkpt lat="48.6446" lon="2.06739">
        <ele>155.9</ele>
        <time>2024-12-30T12:04:54.633Z</time>
        <extensions>
          <visugpx:TrkExtension xmlns:visugpx="https://www.visugpx.com/editgpx/">
            <visugpx:node>2</visugpx:node>
            </visugpx:TrkExtension>
        </extensions>
      </trkpt>
      <trkpt lat="48.6446" lon="2.06739">
        <ele>155.9</ele>
        <time>2024-12-30T12:04:54.633Z</time>
      </trkpt>
      <trkpt lat="48.64461" lon="2.06733">
        <ele>155.8</ele>
        <time>2024-12-30T12:04:57.126Z</time>
      </trkpt>
      <trkpt lat="48.64462" lon="2.0672">
        <ele>155.8</ele>
        <time>2024-12-30T12:05:02.698Z</time>
      </trkpt>
      <trkpt lat="48.64463" lon="2.06708">
        <ele>155.8</ele>
        <time>2024-12-30T12:05:08.270Z</time>
      </trkpt>
      <trkpt lat="48.64464" lon="2.06695">
        <ele>155.9</ele>
        <time>2024-12-30T12:05:13.842Z</time>
      </trkpt>
      <trkpt lat="48.64465" lon="2.06682">
        <ele>155.8</ele>
        <time>2024-12-30T12:05:19.415Z</time>
        <extensions>
          <visugpx:TrkExtension xmlns:visugpx="https://www.visugpx.com/editgpx/">
            <visugpx:node>3</visugpx:node>
            </visugpx:TrkExtension>
        </extensions>
      </trkpt>
      <trkpt lat="48.64466" lon="2.06675">
        <ele>155.7</ele>
        <time>2024-12-30T12:05:22.357Z</time>
      </trkpt>
      <trkpt lat="48.64466" lon="2.06668">
        <ele>155.7</ele>
        <time>2024-12-30T12:05:25.299Z</time>
      </trkpt>
      <trkpt lat="48.64467" lon="2.06661">
        <ele>155.6</ele>
        <time>2024-12-30T12:05:28.242Z</time>
      </trkpt>
      <trkpt lat="48.64468" lon="2.06654">
        <ele>155.5</ele>
        <time>2024-12-30T12:05:31.185Z</time>
      </trkpt>
      <trkpt lat="48.64468" lon="2.06647">
        <ele>155.4</ele>
        <time>2024-12-30T12:05:34.128Z</time>
      </trkpt>
      <trkpt lat="48.64469" lon="2.0664">
        <ele>155.4</ele>
        <time>2024-12-30T12:05:37.071Z</time>
      </trkpt>
      <trkpt lat="48.64469" lon="2.06633">
        <ele>155.3</ele>
        <time>2024-12-30T12:05:40.014Z</time>
      </trkpt>
      <trkpt lat="48.6447" lon="2.06626">
        <ele>155.3</ele>
        <time>2024-12-30T12:05:42.957Z</time>
      </trkpt>
      <trkpt lat="48.6447" lon="2.06623">
        <ele>155.3</ele>
        <time>2024-12-30T12:05:44.259Z</time>
      </trkpt>
      <trkpt lat="48.6447" lon="2.06623">
        <ele>155.3</ele>
        <time>2024-12-30T12:05:44.259Z</time>
        <extensions>
          <visugpx:TrkExtension xmlns:visugpx="https://www.visugpx.com/editgpx/">
            <visugpx:node>4</visugpx:node>
            </visugpx:TrkExtension>
        </extensions>
      </trkpt>
      <trkpt lat="48.64471" lon="2.06616">
        <ele>155.2</ele>
        <time>2024-12-30T12:05:47.215Z</time>
      </trkpt>
      <trkpt lat="48.64471" lon="2.06609">
        <ele>155.2</ele>
        <time>2024-12-30T12:05:50.172Z</time>
      </trkpt>
      <trkpt lat="48.64472" lon="2.06597">
        <ele>155</ele>
        <time>2024-12-30T12:05:55.844Z</time>
      </trkpt>
      <trkpt lat="48.64473" lon="2.06585">
        <ele>155</ele>
        <time>2024-12-30T12:06:01.516Z</time>
      </trkpt>
      <trkpt lat="48.64474" lon="2.06572">
        <ele>155.4</ele>
        <time>2024-12-30T12:06:07.189Z</time>
      </trkpt>
      <trkpt lat="48.64475" lon="2.0656">
        <ele>155.8</ele>
        <time>2024-12-30T12:06:12.862Z</time>
      </trkpt>
      <trkpt lat="48.64476" lon="2.06553">
        <ele>155.9</ele>
        <time>2024-12-30T12:06:15.924Z</time>
      </trkpt>
      <trkpt lat="48.64476" lon="2.06546">
        <ele>155.8</ele>
        <time>2024-12-30T12:06:18.987Z</time>
      </trkpt>
      <trkpt lat="48.64477" lon="2.06539">
        <ele>155.7</ele>
        <time>2024-12-30T12:06:22.050Z</time>
      </trkpt>
      <trkpt lat="48.64478" lon="2.06533">
        <ele>155.7</ele>
        <time>2024-12-30T12:06:25.113Z</time>
      </trkpt>
      <trkpt lat="48.64478" lon="2.06526">
        <ele>155.6</ele>
        <time>2024-12-30T12:06:28.176Z</time>
      </trkpt>
      <trkpt lat="48.64479" lon="2.06519">
        <ele>155.8</ele>
        <time>2024-12-30T12:06:31.239Z</time>
      </trkpt>
      <trkpt lat="48.64479" lon="2.06512">
        <ele>155.9</ele>
        <time>2024-12-30T12:06:34.302Z</time>
      </trkpt>
      <trkpt lat="48.6448" lon="2.06505">
        <ele>156</ele>
        <time>2024-12-30T12:06:37.365Z</time>
      </trkpt>
      <trkpt lat="48.64481" lon="2.06495">
        <ele>156.1</ele>
        <time>2024-12-30T12:06:42.193Z</time>
      </trkpt>
      <trkpt lat="48.64482" lon="2.06485">
        <ele>156.2</ele>
        <time>2024-12-30T12:06:47.021Z</time>
      </trkpt>
      <trkpt lat="48.64482" lon="2.06475">
        <ele>156.2</ele>
        <time>2024-12-30T12:06:51.850Z</time>
      </trkpt>
      <trkpt lat="48.64483" lon="2.06465">
        <ele>156.5</ele>
        <time>2024-12-30T12:06:56.679Z</time>
      </trkpt>
      <trkpt lat="48.64484" lon="2.06455">
        <ele>156.8</ele>
        <time>2024-12-30T12:07:01.508Z</time>
      </trkpt>
      <trkpt lat="48.64485" lon="2.06445">
        <ele>157.1</ele>
        <time>2024-12-30T12:07:06.337Z</time>
      </trkpt>
      <trkpt lat="48.64485" lon="2.06435">
        <ele>157.4</ele>
        <time>2024-12-30T12:07:11.166Z</time>
      </trkpt>
      <trkpt lat="48.64486" lon="2.06425">
        <ele>157.7</ele>
        <time>2024-12-30T12:07:15.995Z</time>
      </trkpt>
      <trkpt lat="48.64487" lon="2.06418">
        <ele>157.9</ele>
        <time>2024-12-30T12:07:19.428Z</time>
      </trkpt>
      <trkpt lat="48.64488" lon="2.06411">
        <ele>158</ele>
        <time>2024-12-30T12:07:22.862Z</time>
      </trkpt>
      <trkpt lat="48.6449" lon="2.06398">
        <ele>158.2</ele>
        <time>2024-12-30T12:07:29.079Z</time>
      </trkpt>
      <trkpt lat="48.64492" lon="2.06385">
        <ele>158.4</ele>
        <time>2024-12-30T12:07:35.297Z</time>
      </trkpt>
      <trkpt lat="48.64492" lon="2.06378">
        <ele>158.7</ele>
        <time>2024-12-30T12:07:39.037Z</time>
        <extensions>
          <visugpx:TrkExtension xmlns:visugpx="https://www.visugpx.com/editgpx/">
            <visugpx:node>5</visugpx:node>
            </visugpx:TrkExtension>
        </extensions>
      </trkpt>
      <trkpt lat="48.64493" lon="2.06376">
        <ele>158.7</ele>
        <time>2024-12-30T12:07:40.126Z</time>
      </trkpt>
      <trkpt lat="48.64492" lon="2.06369">
        <ele>159</ele>
        <time>2024-12-30T12:07:43.604Z</time>
      </trkpt>
      <trkpt lat="48.64492" lon="2.06363">
        <ele>159.3</ele>
        <time>2024-12-30T12:07:47.083Z</time>
      </trkpt>
      <trkpt lat="48.64491" lon="2.06356">
        <ele>159.5</ele>
        <time>2024-12-30T12:07:50.562Z</time>
      </trkpt>
      <trkpt lat="48.6449" lon="2.06349">
        <ele>159.6</ele>
        <time>2024-12-30T12:07:54.042Z</time>
      </trkpt>
      <trkpt lat="48.64488" lon="2.06342">
        <ele>159.8</ele>
        <time>2024-12-30T12:07:57.934Z</time>
      </trkpt>
      <trkpt lat="48.64485" lon="2.06335">
        <ele>160</ele>
        <time>2024-12-30T12:08:01.828Z</time>
      </trkpt>
      <trkpt lat="48.64479" lon="2.06327">
        <ele>160.2</ele>
        <time>2024-12-30T12:08:07.993Z</time>
      </trkpt>
      <trkpt lat="48.64473" lon="2.06319">
        <ele>160.5</ele>
        <time>2024-12-30T12:08:14.158Z</time>
      </trkpt>
      <trkpt lat="48.64467" lon="2.0631">
        <ele>161</ele>
        <time>2024-12-30T12:08:20.323Z</time>
      </trkpt>
      <trkpt lat="48.64461" lon="2.06302">
        <ele>161.5</ele>
        <time>2024-12-30T12:08:26.489Z</time>
      </trkpt>
      <trkpt lat="48.64457" lon="2.06296">
        <ele>161.7</ele>
        <time>2024-12-30T12:08:30.516Z</time>
      </trkpt>
      <trkpt lat="48.64454" lon="2.0629">
        <ele>161.9</ele>
        <time>2024-12-30T12:08:34.543Z</time>
      </trkpt>
      <trkpt lat="48.6445" lon="2.06284">
        <ele>162</ele>
        <time>2024-12-30T12:08:38.570Z</time>
      </trkpt>
      <trkpt lat="48.64447" lon="2.06278">
        <ele>162</ele>
        <time>2024-12-30T12:08:42.597Z</time>
      </trkpt>
      <trkpt lat="48.64443" lon="2.06272">
        <ele>162.3</ele>
        <time>2024-12-30T12:08:46.625Z</time>
      </trkpt>
      <trkpt lat="48.64439" lon="2.06266">
        <ele>162.6</ele>
        <time>2024-12-30T12:08:50.653Z</time>
      </trkpt>
      <trkpt lat="48.64436" lon="2.0626">
        <ele>163</ele>
        <time>2024-12-30T12:08:54.681Z</time>
      </trkpt>
      <trkpt lat="48.64432" lon="2.06254">
        <ele>163.3</ele>
        <time>2024-12-30T12:08:58.710Z</time>
      </trkpt>
      <trkpt lat="48.64428" lon="2.06244">
        <ele>163.7</ele>
        <time>2024-12-30T12:09:04.692Z</time>
        <extensions>
          <visugpx:TrkExtension xmlns:visugpx="https://www.visugpx.com/editgpx/">
            <visugpx:node>6</visugpx:node>
            </visugpx:TrkExtension>
        </extensions>
      </trkpt>
      <trkpt lat="48.64425" lon="2.06236">
        <ele>163.9</ele>
        <time>2024-12-30T12:09:09.119Z</time>
      </trkpt>
      <trkpt lat="48.64422" lon="2.06226">
        <ele>164</ele>
        <time>2024-12-30T12:09:14.538Z</time>
      </trkpt>
      <trkpt lat="48.64418" lon="2.06215">
        <ele>164.2</ele>
        <time>2024-12-30T12:09:19.959Z</time>
      </trkpt>
      <trkpt lat="48.64417" lon="2.06208">
        <ele>164.5</ele>
        <time>2024-12-30T12:09:23.393Z</time>
      </trkpt>
      <trkpt lat="48.64415" lon="2.06202">
        <ele>164.7</ele>
        <time>2024-12-30T12:09:26.827Z</time>
      </trkpt>
      <trkpt lat="48.64414" lon="2.06195">
        <ele>165</ele>
        <time>2024-12-30T12:09:30.261Z</time>
      </trkpt>
      <trkpt lat="48.64412" lon="2.06188">
        <ele>165.2</ele>
        <time>2024-12-30T12:09:33.695Z</time>
      </trkpt>
      <trkpt lat="48.64411" lon="2.06182">
        <ele>165.5</ele>
        <time>2024-12-30T12:09:37.129Z</time>
      </trkpt>
      <trkpt lat="48.64409" lon="2.06175">
        <ele>165.7</ele>
        <time>2024-12-30T12:09:40.563Z</time>
      </trkpt>
      <trkpt lat="48.64408" lon="2.06168">
        <ele>165.9</ele>
        <time>2024-12-30T12:09:43.997Z</time>
      </trkpt>
      <trkpt lat="48.64406" lon="2.06162">
        <ele>166.1</ele>
        <time>2024-12-30T12:09:47.432Z</time>
      </trkpt>
      <trkpt lat="48.64405" lon="2.06155">
        <ele>166.2</ele>
        <time>2024-12-30T12:09:50.867Z</time>
      </trkpt>
      <trkpt lat="48.64403" lon="2.06148">
        <ele>166.3</ele>
        <time>2024-12-30T12:09:54.302Z</time>
      </trkpt>
      <trkpt lat="48.64402" lon="2.06141">
        <ele>166.5</ele>
        <time>2024-12-30T12:09:57.737Z</time>
      </trkpt>
      <trkpt lat="48.644" lon="2.06135">
        <ele>166.6</ele>
        <time>2024-12-30T12:10:01.172Z</time>
      </trkpt>
      <trkpt lat="48.64399" lon="2.06128">
        <ele>166.7</ele>
        <time>2024-12-30T12:10:04.607Z</time>
      </trkpt>
      <trkpt lat="48.64397" lon="2.06121">
        <ele>166.7</ele>
        <time>2024-12-30T12:10:08.042Z</time>
      </trkpt>
      <trkpt lat="48.64396" lon="2.06115">
        <ele>166.8</ele>
        <time>2024-12-30T12:10:11.477Z</time>
      </trkpt>
      <trkpt lat="48.64394" lon="2.06108">
        <ele>166.9</ele>
        <time>2024-12-30T12:10:14.913Z</time>
      </trkpt>
      <trkpt lat="48.64393" lon="2.06101">
        <ele>167.3</ele>
        <time>2024-12-30T12:10:19.138Z</time>
      </trkpt>
      <trkpt lat="48.64391" lon="2.06093">
        <ele>167.6</ele>
        <time>2024-12-30T12:10:23.364Z</time>
        <extensions>
          <visugpx:TrkExtension xmlns:visugpx="https://www.visugpx.com/editgpx/">
            <visugpx:node>7</visugpx:node>
            </visugpx:TrkExtension>
        </extensions>
      </trkpt>
      <trkpt lat="48.64389" lon="2.06085">
        <ele>167.9</ele>
        <time>2024-12-30T12:10:27.445Z</time>
      </trkpt>
      <trkpt lat="48.64388" lon="2.06077">
        <ele>168</ele>
        <time>2024-12-30T12:10:31.526Z</time>
      </trkpt>
      <trkpt lat="48.64386" lon="2.06068">
        <ele>168.1</ele>
        <time>2024-12-30T12:10:35.608Z</time>
      </trkpt>
      <trkpt lat="48.64384" lon="2.0606">
        <ele>168.2</ele>
        <time>2024-12-30T12:10:39.691Z</time>
      </trkpt>
      <trkpt lat="48.64383" lon="2.06052">
        <ele>168.3</ele>
        <time>2024-12-30T12:10:43.847Z</time>
      </trkpt>
      <trkpt lat="48.64382" lon="2.06044">
        <ele>168.7</ele>
        <time>2024-12-30T12:10:48.003Z</time>
      </trkpt>
      <trkpt lat="48.64381" lon="2.06036">
        <ele>169</ele>
        <time>2024-12-30T12:10:52.160Z</time>
      </trkpt>
      <trkpt lat="48.6438" lon="2.06028">
        <ele>169.3</ele>
        <time>2024-12-30T12:10:56.318Z</time>
      </trkpt>
      <trkpt lat="48.64379" lon="2.06015">
        <ele>169.7</ele>
        <time>2024-12-30T12:11:02.818Z</time>
      </trkpt>
      <trkpt lat="48.64377" lon="2.06002">
        <ele>170</ele>
        <time>2024-12-30T12:11:09.320Z</time>
      </trkpt>
      <trkpt lat="48.64378" lon="2.05989">
        <ele>170</ele>
        <time>2024-12-30T12:11:15.123Z</time>
      </trkpt>
      <trkpt lat="48.6438" lon="2.05976">
        <ele>170</ele>
        <time>2024-12-30T12:11:20.927Z</time>
      </trkpt>
      <trkpt lat="48.64381" lon="2.05963">
        <ele>170.1</ele>
        <time>2024-12-30T12:11:26.731Z</time>
      </trkpt>
      <trkpt lat="48.64382" lon="2.0595">
        <ele>170.2</ele>
        <time>2024-12-30T12:11:32.535Z</time>
      </trkpt>
      <trkpt lat="48.64385" lon="2.05937">
        <ele>170.4</ele>
        <time>2024-12-30T12:11:39.064Z</time>
      </trkpt>
      <trkpt lat="48.64387" lon="2.05924">
        <ele>170.8</ele>
        <time>2024-12-30T12:11:45.593Z</time>
      </trkpt>
      <trkpt lat="48.6439" lon="2.05913">
        <ele>171</ele>
        <time>2024-12-30T12:11:50.641Z</time>
      </trkpt>
      <trkpt lat="48.64392" lon="2.05902">
        <ele>170.8</ele>
        <time>2024-12-30T12:11:55.690Z</time>
        <extensions>
          <visugpx:TrkExtension xmlns:visugpx="https://www.visugpx.com/editgpx/">
            <visugpx:node>8</visugpx:node>
            </visugpx:TrkExtension>
        </extensions>
      </trkpt>
      <trkpt lat="48.64394" lon="2.05895">
        <ele>170.8</ele>
        <time>2024-12-30T12:11:58.940Z</time>
      </trkpt>
      <trkpt lat="48.64396" lon="2.05888">
        <ele>170.8</ele>
        <time>2024-12-30T12:12:02.191Z</time>
      </trkpt>
      <trkpt lat="48.64397" lon="2.0588">
        <ele>170.7</ele>
        <time>2024-12-30T12:12:05.442Z</time>
      </trkpt>
      <trkpt lat="48.64399" lon="2.05873">
        <ele>170.6</ele>
        <time>2024-12-30T12:12:08.693Z</time>
      </trkpt>
      <trkpt lat="48.64402" lon="2.0586">
        <ele>170.5</ele>
        <time>2024-12-30T12:12:14.513Z</time>
      </trkpt>
      <trkpt lat="48.64405" lon="2.05848">
        <ele>170.7</ele>
        <time>2024-12-30T12:12:20.333Z</time>
      </trkpt>
      <trkpt lat="48.64408" lon="2.05835">
        <ele>171</ele>
        <time>2024-12-30T12:12:26.153Z</time>
      </trkpt>
      <trkpt lat="48.64411" lon="2.05823">
        <ele>171</ele>
        <time>2024-12-30T12:12:31.973Z</time>
      </trkpt>
      <trkpt lat="48.64413" lon="2.0581">
        <ele>171</ele>
        <time>2024-12-30T12:12:37.793Z</time>
      </trkpt>
      <trkpt lat="48.64416" lon="2.05798">
        <ele>171</ele>
        <time>2024-12-30T12:12:43.613Z</time>
      </trkpt>
      <trkpt lat="48.64419" lon="2.05785">
        <ele>170.9</ele>
        <time>2024-12-30T12:12:49.434Z</time>
      </trkpt>
      <trkpt lat="48.64422" lon="2.05773">
        <ele>170.8</ele>
        <time>2024-12-30T12:12:55.255Z</time>
      </trkpt>
      <trkpt lat="48.64425" lon="2.0576">
        <ele>170.9</ele>
        <time>2024-12-30T12:13:01.076Z</time>
      </trkpt>
      <trkpt lat="48.64428" lon="2.05747">
        <ele>171</ele>
        <time>2024-12-30T12:13:06.897Z</time>
      </trkpt>
      <trkpt lat="48.64431" lon="2.05735">
        <ele>171</ele>
        <time>2024-12-30T12:13:12.718Z</time>
      </trkpt>
      <trkpt lat="48.64434" lon="2.05722">
        <ele>171</ele>
        <time>2024-12-30T12:13:18.539Z</time>
      </trkpt>
      <trkpt lat="48.64436" lon="2.0571">
        <ele>171</ele>
        <time>2024-12-30T12:13:24.360Z</time>
      </trkpt>
      <trkpt lat="48.64439" lon="2.05697">
        <ele>171</ele>
        <time>2024-12-30T12:13:30.181Z</time>
      </trkpt>
      <trkpt lat="48.64442" lon="2.05685">
        <ele>171</ele>
        <time>2024-12-30T12:13:36.002Z</time>
      </trkpt>
      <trkpt lat="48.64445" lon="2.05672">
        <ele>171</ele>
        <time>2024-12-30T12:13:41.823Z</time>
      </trkpt>
      <trkpt lat="48.64446" lon="2.05663">
        <ele>170.9</ele>
        <time>2024-12-30T12:13:45.927Z</time>
      </trkpt>
      <trkpt lat="48.64448" lon="2.05653">
        <ele>170.9</ele>
        <time>2024-12-30T12:13:50.031Z</time>
      </trkpt>
      <trkpt lat="48.64449" lon="2.05644">
        <ele>170.8</ele>
        <time>2024-12-30T12:13:54.136Z</time>
      </trkpt>
      <trkpt lat="48.6445" lon="2.05634">
        <ele>170.8</ele>
        <time>2024-12-30T12:13:58.241Z</time>
      </trkpt>
      <trkpt lat="48.64451" lon="2.05621">
        <ele>170.8</ele>
        <time>2024-12-30T12:14:03.913Z</time>
      </trkpt>
      <trkpt lat="48.64453" lon="2.05608">
        <ele>170.7</ele>
        <time>2024-12-30T12:14:09.586Z</time>
      </trkpt>
      <trkpt lat="48.64454" lon="2.05595">
        <ele>170.7</ele>
        <time>2024-12-30T12:14:15.259Z</time>
      </trkpt>
      <trkpt lat="48.64455" lon="2.05583">
        <ele>170.6</ele>
        <time>2024-12-30T12:14:20.932Z</time>
      </trkpt>
      <trkpt lat="48.64456" lon="2.0557">
        <ele>170.6</ele>
        <time>2024-12-30T12:14:26.605Z</time>
      </trkpt>
      <trkpt lat="48.64458" lon="2.05557">
        <ele>170.5</ele>
        <time>2024-12-30T12:14:32.278Z</time>
      </trkpt>
      <trkpt lat="48.64459" lon="2.05544">
        <ele>170.7</ele>
        <time>2024-12-30T12:14:37.951Z</time>
      </trkpt>
      <trkpt lat="48.6446" lon="2.05531">
        <ele>170.9</ele>
        <time>2024-12-30T12:14:43.624Z</time>
      </trkpt>
      <trkpt lat="48.64461" lon="2.05524">
        <ele>171.1</ele>
        <time>2024-12-30T12:14:47.219Z</time>
      </trkpt>
      <trkpt lat="48.64461" lon="2.05516">
        <ele>171.2</ele>
        <time>2024-12-30T12:14:50.815Z</time>
      </trkpt>
      <trkpt lat="48.64461" lon="2.05509">
        <ele>171.3</ele>
        <time>2024-12-30T12:14:53.942Z</time>
      </trkpt>
      <trkpt lat="48.64462" lon="2.05502">
        <ele>171.4</ele>
        <time>2024-12-30T12:14:57.069Z</time>
      </trkpt>
      <trkpt lat="48.64462" lon="2.05495">
        <ele>171.4</ele>
        <time>2024-12-30T12:15:00.196Z</time>
      </trkpt>
      <trkpt lat="48.64463" lon="2.05488">
        <ele>171.4</ele>
        <time>2024-12-30T12:15:03.323Z</time>
      </trkpt>
      <trkpt lat="48.64463" lon="2.0548">
        <ele>171.3</ele>
        <time>2024-12-30T12:15:06.450Z</time>
      </trkpt>
      <trkpt lat="48.64463" lon="2.05473">
        <ele>171.3</ele>
        <time>2024-12-30T12:15:09.578Z</time>
      </trkpt>
      <trkpt lat="48.64464" lon="2.05466">
        <ele>171.3</ele>
        <time>2024-12-30T12:15:12.706Z</time>
      </trkpt>
      <trkpt lat="48.64464" lon="2.05459">
        <ele>171.3</ele>
        <time>2024-12-30T12:15:15.834Z</time>
      </trkpt>
      <trkpt lat="48.64461" lon="2.05457">
        <ele>171.4</ele>
        <time>2024-12-30T12:15:18.203Z</time>
        <extensions>
          <visugpx:TrkExtension xmlns:visugpx="https://www.visugpx.com/editgpx/">
            <visugpx:node>9</visugpx:node>
            </visugpx:TrkExtension>
        </extensions>
      </trkpt>
      <trkpt lat="48.64464" lon="2.05459">
        <ele>171.3</ele>
        <time>2024-12-30T12:15:20.167Z</time>
      </trkpt>
      <trkpt lat="48.64466" lon="2.05447">
        <ele>171.2</ele>
        <time>2024-12-30T12:15:25.367Z</time>
      </trkpt>
      <trkpt lat="48.64467" lon="2.05435">
        <ele>171.2</ele>
        <time>2024-12-30T12:15:30.567Z</time>
      </trkpt>
      <trkpt lat="48.64469" lon="2.05423">
        <ele>171.1</ele>
        <time>2024-12-30T12:15:35.768Z</time>
      </trkpt>
      <trkpt lat="48.6447" lon="2.05411">
        <ele>171.1</ele>
        <time>2024-12-30T12:15:40.969Z</time>
      </trkpt>
      <trkpt lat="48.64471" lon="2.05404">
        <ele>171.1</ele>
        <time>2024-12-30T12:15:44.299Z</time>
      </trkpt>
      <trkpt lat="48.64471" lon="2.05397">
        <ele>171</ele>
        <time>2024-12-30T12:15:47.630Z</time>
      </trkpt>
      <trkpt lat="48.64472" lon="2.0539">
        <ele>171</ele>
        <time>2024-12-30T12:15:50.961Z</time>
      </trkpt>
      <trkpt lat="48.64473" lon="2.05383">
        <ele>171.2</ele>
        <time>2024-12-30T12:15:54.292Z</time>
      </trkpt>
      <trkpt lat="48.64473" lon="2.05375">
        <ele>171.5</ele>
        <time>2024-12-30T12:15:57.623Z</time>
      </trkpt>
      <trkpt lat="48.64474" lon="2.05368">
        <ele>171.7</ele>
        <time>2024-12-30T12:16:00.954Z</time>
      </trkpt>
      <trkpt lat="48.64474" lon="2.05361">
        <ele>171.9</ele>
        <time>2024-12-30T12:16:04.285Z</time>
      </trkpt>
      <trkpt lat="48.64475" lon="2.05354">
        <ele>171.9</ele>
        <time>2024-12-30T12:16:07.616Z</time>
      </trkpt>
      <trkpt lat="48.64476" lon="2.05341">
        <ele>171.9</ele>
        <time>2024-12-30T12:16:13.535Z</time>
      </trkpt>
      <trkpt lat="48.64476" lon="2.05327">
        <ele>171.9</ele>
        <time>2024-12-30T12:16:19.454Z</time>
      </trkpt>
      <trkpt lat="48.64477" lon="2.05314">
        <ele>172</ele>
        <time>2024-12-30T12:16:25.373Z</time>
      </trkpt>
      <trkpt lat="48.64477" lon="2.053">
        <ele>172</ele>
        <time>2024-12-30T12:16:31.292Z</time>
      </trkpt>
      <trkpt lat="48.64477" lon="2.05293">
        <ele>172</ele>
        <time>2024-12-30T12:16:34.546Z</time>
      </trkpt>
      <trkpt lat="48.64477" lon="2.05285">
        <ele>172</ele>
        <time>2024-12-30T12:16:37.801Z</time>
      </trkpt>
      <trkpt lat="48.64477" lon="2.05278">
        <ele>172</ele>
        <time>2024-12-30T12:16:41.056Z</time>
      </trkpt>
      <trkpt lat="48.64477" lon="2.0527">
        <ele>172</ele>
        <time>2024-12-30T12:16:44.311Z</time>
      </trkpt>
      <trkpt lat="48.64476" lon="2.05264">
        <ele>172</ele>
        <time>2024-12-30T12:16:46.997Z</time>
        <extensions>
          <visugpx:TrkExtension xmlns:visugpx="https://www.visugpx.com/editgpx/">
            <visugpx:node>10</visugpx:node>
            </visugpx:TrkExtension>
        </extensions>
      </trkpt>
      <trkpt lat="48.64476" lon="2.05256">
        <ele>172</ele>
        <time>2024-12-30T12:16:50.418Z</time>
      </trkpt>
      <trkpt lat="48.64476" lon="2.05248">
        <ele>172</ele>
        <time>2024-12-30T12:16:53.839Z</time>
      </trkpt>
      <trkpt lat="48.64475" lon="2.0524">
        <ele>172</ele>
        <time>2024-12-30T12:16:57.260Z</time>
      </trkpt>
      <trkpt lat="48.64475" lon="2.05233">
        <ele>172</ele>
        <time>2024-12-30T12:17:00.681Z</time>
      </trkpt>
      <trkpt lat="48.64475" lon="2.05225">
        <ele>172</ele>
        <time>2024-12-30T12:17:04.102Z</time>
      </trkpt>
      <trkpt lat="48.64475" lon="2.05217">
        <ele>172</ele>
        <time>2024-12-30T12:17:07.524Z</time>
      </trkpt>
      <trkpt lat="48.64474" lon="2.05209">
        <ele>172</ele>
        <time>2024-12-30T12:17:10.946Z</time>
      </trkpt>
      <trkpt lat="48.64474" lon="2.05201">
        <ele>172</ele>
        <time>2024-12-30T12:17:14.369Z</time>
      </trkpt>
      <trkpt lat="48.64474" lon="2.05188">
        <ele>172</ele>
        <time>2024-12-30T12:17:20.010Z</time>
      </trkpt>
      <trkpt lat="48.64474" lon="2.05175">
        <ele>172</ele>
        <time>2024-12-30T12:17:25.652Z</time>
      </trkpt>
      <trkpt lat="48.64474" lon="2.05162">
        <ele>172</ele>
        <time>2024-12-30T12:17:31.294Z</time>
      </trkpt>
      <trkpt lat="48.64474" lon="2.05149">
        <ele>172</ele>
        <time>2024-12-30T12:17:36.936Z</time>
      </trkpt>
      <trkpt lat="48.64474" lon="2.0514">
        <ele>172</ele>
        <time>2024-12-30T12:17:40.842Z</time>
      </trkpt>
      <trkpt lat="48.6447" lon="2.0514">
        <ele>172</ele>
        <time>2024-12-30T12:17:43.469Z</time>
        <extensions>
          <visugpx:TrkExtension xmlns:visugpx="https://www.visugpx.com/editgpx/">
            <visugpx:node>11</visugpx:node>
            </visugpx:TrkExtension>
        </extensions>
      </trkpt>
      <trkpt lat="48.64474" lon="2.0514">
        <ele>172</ele>
        <time>2024-12-30T12:17:46.097Z</time>
      </trkpt>
      <trkpt lat="48.64477" lon="2.0513">
        <ele>172</ele>
        <time>2024-12-30T12:17:50.863Z</time>
      </trkpt>
      <trkpt lat="48.6448" lon="2.0512">
        <ele>172</ele>
        <time>2024-12-30T12:17:55.629Z</time>
      </trkpt>
      <trkpt lat="48.64485" lon="2.05112">
        <ele>172</ele>
        <time>2024-12-30T12:18:00.568Z</time>
      </trkpt>
      <trkpt lat="48.6449" lon="2.05103">
        <ele>172</ele>
        <time>2024-12-30T12:18:05.507Z</time>
      </trkpt>
      <trkpt lat="48.64494" lon="2.05096">
        <ele>172</ele>
        <time>2024-12-30T12:18:09.382Z</time>
      </trkpt>
      <trkpt lat="48.64498" lon="2.05089">
        <ele>172</ele>
        <time>2024-12-30T12:18:13.257Z</time>
      </trkpt>
      <trkpt lat="48.64502" lon="2.05082">
        <ele>172</ele>
        <time>2024-12-30T12:18:17.132Z</time>
      </trkpt>
      <trkpt lat="48.64507" lon="2.05075">
        <ele>171.9</ele>
        <time>2024-12-30T12:18:21.007Z</time>
      </trkpt>
      <trkpt lat="48.64511" lon="2.05068">
        <ele>171.8</ele>
        <time>2024-12-30T12:18:24.882Z</time>
      </trkpt>
      <trkpt lat="48.64515" lon="2.05061">
        <ele>171.6</ele>
        <time>2024-12-30T12:18:28.757Z</time>
      </trkpt>
      <trkpt lat="48.64519" lon="2.05054">
        <ele>171.3</ele>
        <time>2024-12-30T12:18:32.633Z</time>
      </trkpt>
      <trkpt lat="48.64523" lon="2.05047">
        <ele>171.2</ele>
        <time>2024-12-30T12:18:36.509Z</time>
      </trkpt>
      <trkpt lat="48.64527" lon="2.05042">
        <ele>171</ele>
        <time>2024-12-30T12:18:39.855Z</time>
      </trkpt>
      <trkpt lat="48.6453" lon="2.05036">
        <ele>171</ele>
        <time>2024-12-30T12:18:43.201Z</time>
      </trkpt>
      <trkpt lat="48.64534" lon="2.05031">
        <ele>171</ele>
        <time>2024-12-30T12:18:46.547Z</time>
      </trkpt>
      <trkpt lat="48.64538" lon="2.05025">
        <ele>171.1</ele>
        <time>2024-12-30T12:18:49.893Z</time>
      </trkpt>
      <trkpt lat="48.64541" lon="2.0502">
        <ele>171.2</ele>
        <time>2024-12-30T12:18:53.239Z</time>
      </trkpt>
      <trkpt lat="48.64545" lon="2.05014">
        <ele>171.2</ele>
        <time>2024-12-30T12:18:56.585Z</time>
      </trkpt>
      <trkpt lat="48.64548" lon="2.05009">
        <ele>171.2</ele>
        <time>2024-12-30T12:18:59.932Z</time>
      </trkpt>
      <trkpt lat="48.64552" lon="2.05003">
        <ele>171.1</ele>
        <time>2024-12-30T12:19:03.279Z</time>
      </trkpt>
      <trkpt lat="48.64556" lon="2.04997">
        <ele>171</ele>
        <time>2024-12-30T12:19:06.676Z</time>
      </trkpt>
      <trkpt lat="48.64559" lon="2.04991">
        <ele>171</ele>
        <time>2024-12-30T12:19:10.073Z</time>
      </trkpt>
      <trkpt lat="48.64563" lon="2.04985">
        <ele>171</ele>
        <time>2024-12-30T12:19:13.470Z</time>
      </trkpt>
      <trkpt lat="48.64567" lon="2.04979">
        <ele>171</ele>
        <time>2024-12-30T12:19:16.868Z</time>
      </trkpt>
      <trkpt lat="48.6457" lon="2.04972">
        <ele>171</ele>
        <time>2024-12-30T12:19:20.266Z</time>
      </trkpt>
      <trkpt lat="48.64574" lon="2.04966">
        <ele>170.9</ele>
        <time>2024-12-30T12:19:23.664Z</time>
      </trkpt>
      <trkpt lat="48.64577" lon="2.0496">
        <ele>170.7</ele>
        <time>2024-12-30T12:19:27.062Z</time>
      </trkpt>
      <trkpt lat="48.64581" lon="2.04954">
        <ele>170.4</ele>
        <time>2024-12-30T12:19:30.460Z</time>
      </trkpt>
      <trkpt lat="48.64584" lon="2.04949">
        <ele>170.1</ele>
        <time>2024-12-30T12:19:33.468Z</time>
      </trkpt>
      <trkpt lat="48.64588" lon="2.04943">
        <ele>170</ele>
        <time>2024-12-30T12:19:36.477Z</time>
      </trkpt>
      <trkpt lat="48.64591" lon="2.04938">
        <ele>170</ele>
        <time>2024-12-30T12:19:39.486Z</time>
      </trkpt>
      <trkpt lat="48.64594" lon="2.04932">
        <ele>170</ele>
        <time>2024-12-30T12:19:42.495Z</time>
      </trkpt>
      <trkpt lat="48.64597" lon="2.04927">
        <ele>170</ele>
        <time>2024-12-30T12:19:45.538Z</time>
      </trkpt>
      <trkpt lat="48.646" lon="2.04921">
        <ele>170</ele>
        <time>2024-12-30T12:19:48.581Z</time>
      </trkpt>
      <trkpt lat="48.64603" lon="2.04916">
        <ele>170</ele>
        <time>2024-12-30T12:19:51.624Z</time>
      </trkpt>
      <trkpt lat="48.64606" lon="2.0491">
        <ele>170</ele>
        <time>2024-12-30T12:19:54.667Z</time>
      </trkpt>
      <trkpt lat="48.64608" lon="2.04905">
        <ele>170</ele>
        <time>2024-12-30T12:19:57.711Z</time>
      </trkpt>
      <trkpt lat="48.64611" lon="2.04899">
        <ele>170</ele>
        <time>2024-12-30T12:20:00.755Z</time>
      </trkpt>
      <trkpt lat="48.64614" lon="2.04894">
        <ele>170</ele>
        <time>2024-12-30T12:20:03.799Z</time>
      </trkpt>
      <trkpt lat="48.64617" lon="2.04888">
        <ele>170</ele>
        <time>2024-12-30T12:20:06.843Z</time>
      </trkpt>
      <trkpt lat="48.64621" lon="2.04882">
        <ele>170.2</ele>
        <time>2024-12-30T12:20:10.878Z</time>
      </trkpt>
      <trkpt lat="48.64624" lon="2.04876">
        <ele>170.5</ele>
        <time>2024-12-30T12:20:14.913Z</time>
        <extensions>
          <visugpx:TrkExtension xmlns:visugpx="https://www.visugpx.com/editgpx/">
            <visugpx:node>12</visugpx:node>
            </visugpx:TrkExtension>
        </extensions>
      </trkpt>
      <trkpt lat="48.64624" lon="2.04876">
        <ele>170.5</ele>
        <time>2024-12-30T12:20:14.913Z</time>
      </trkpt>
      <trkpt lat="48.64619" lon="2.04872">
        <ele>170.6</ele>
        <time>2024-12-30T12:20:19.339Z</time>
      </trkpt>
      <trkpt lat="48.64613" lon="2.04867">
        <ele>170.8</ele>
        <time>2024-12-30T12:20:23.766Z</time>
      </trkpt>
      <trkpt lat="48.64606" lon="2.04863">
        <ele>170.9</ele>
        <time>2024-12-30T12:20:28.712Z</time>
      </trkpt>
      <trkpt lat="48.64599" lon="2.04859">
        <ele>171</ele>
        <time>2024-12-30T12:20:33.658Z</time>
      </trkpt>
      <trkpt lat="48.64592" lon="2.04855">
        <ele>171</ele>
        <time>2024-12-30T12:20:38.604Z</time>
      </trkpt>
      <trkpt lat="48.64585" lon="2.04852">
        <ele>171</ele>
        <time>2024-12-30T12:20:43.550Z</time>
      </trkpt>
      <trkpt lat="48.64578" lon="2.04848">
        <ele>171</ele>
        <time>2024-12-30T12:20:48.496Z</time>
      </trkpt>
      <trkpt lat="48.64571" lon="2.04844">
        <ele>171</ele>
        <time>2024-12-30T12:20:53.443Z</time>
      </trkpt>
      <trkpt lat="48.64564" lon="2.0484">
        <ele>171</ele>
        <time>2024-12-30T12:20:58.390Z</time>
      </trkpt>
      <trkpt lat="48.64557" lon="2.04836">
        <ele>171</ele>
        <time>2024-12-30T12:21:03.338Z</time>
      </trkpt>
      <trkpt lat="48.64553" lon="2.04833">
        <ele>171</ele>
        <time>2024-12-30T12:21:06.661Z</time>
      </trkpt>
      <trkpt lat="48.64548" lon="2.04829">
        <ele>171</ele>
        <time>2024-12-30T12:21:09.985Z</time>
      </trkpt>
      <trkpt lat="48.64541" lon="2.04825">
        <ele>171</ele>
        <time>2024-12-30T12:21:15.014Z</time>
      </trkpt>
      <trkpt lat="48.64534" lon="2.04822">
        <ele>171</ele>
        <time>2024-12-30T12:21:20.043Z</time>
      </trkpt>
      <trkpt lat="48.64527" lon="2.04818">
        <ele>171</ele>
        <time>2024-12-30T12:21:25.072Z</time>
      </trkpt>
      <trkpt lat="48.6452" lon="2.04814">
        <ele>171.3</ele>
        <time>2024-12-30T12:21:30.101Z</time>
      </trkpt>
      <trkpt lat="48.64513" lon="2.04811">
        <ele>171.5</ele>
        <time>2024-12-30T12:21:35.130Z</time>
      </trkpt>
      <trkpt lat="48.64506" lon="2.04807">
        <ele>171.8</ele>
        <time>2024-12-30T12:21:40.159Z</time>
      </trkpt>
      <trkpt lat="48.64499" lon="2.04803">
        <ele>172</ele>
        <time>2024-12-30T12:21:45.188Z</time>
      </trkpt>
      <trkpt lat="48.64492" lon="2.048">
        <ele>172</ele>
        <time>2024-12-30T12:21:50.217Z</time>
      </trkpt>
      <trkpt lat="48.64485" lon="2.04796">
        <ele>172</ele>
        <time>2024-12-30T12:21:55.246Z</time>
      </trkpt>
      <trkpt lat="48.64478" lon="2.04792">
        <ele>172</ele>
        <time>2024-12-30T12:22:00.275Z</time>
      </trkpt>
      <trkpt lat="48.64471" lon="2.04788">
        <ele>172</ele>
        <time>2024-12-30T12:22:05.304Z</time>
      </trkpt>
      <trkpt lat="48.64464" lon="2.04785">
        <ele>172</ele>
        <time>2024-12-30T12:22:10.333Z</time>
      </trkpt>
      <trkpt lat="48.64457" lon="2.04781">
        <ele>172</ele>
        <time>2024-12-30T12:22:15.362Z</time>
      </trkpt>
      <trkpt lat="48.6445" lon="2.04777">
        <ele>172</ele>
        <time>2024-12-30T12:22:20.391Z</time>
      </trkpt>
      <trkpt lat="48.64443" lon="2.04774">
        <ele>172.1</ele>
        <time>2024-12-30T12:22:25.420Z</time>
      </trkpt>
      <trkpt lat="48.64436" lon="2.0477">
        <ele>172.3</ele>
        <time>2024-12-30T12:22:30.450Z</time>
      </trkpt>
      <trkpt lat="48.64429" lon="2.04766">
        <ele>172.6</ele>
        <time>2024-12-30T12:22:35.480Z</time>
      </trkpt>
      <trkpt lat="48.64421" lon="2.04763">
        <ele>172.8</ele>
        <time>2024-12-30T12:22:40.510Z</time>
      </trkpt>
      <trkpt lat="48.64414" lon="2.04759">
        <ele>173</ele>
        <time>2024-12-30T12:22:45.540Z</time>
      </trkpt>
      <trkpt lat="48.64407" lon="2.04755">
        <ele>173</ele>
        <time>2024-12-30T12:22:50.570Z</time>
      </trkpt>
      <trkpt lat="48.644" lon="2.04752">
        <ele>173</ele>
        <time>2024-12-30T12:22:55.600Z</time>
      </trkpt>
      <trkpt lat="48.64393" lon="2.04748">
        <ele>173</ele>
        <time>2024-12-30T12:23:00.630Z</time>
      </trkpt>
      <trkpt lat="48.64386" lon="2.04744">
        <ele>173</ele>
        <time>2024-12-30T12:23:05.660Z</time>
      </trkpt>
      <trkpt lat="48.64379" lon="2.04741">
        <ele>173</ele>
        <time>2024-12-30T12:23:10.690Z</time>
      </trkpt>
      <trkpt lat="48.64372" lon="2.04737">
        <ele>173</ele>
        <time>2024-12-30T12:23:15.720Z</time>
      </trkpt>
      <trkpt lat="48.64365" lon="2.04733">
        <ele>173</ele>
        <time>2024-12-30T12:23:20.750Z</time>
      </trkpt>
      <trkpt lat="48.64358" lon="2.04729">
        <ele>173</ele>
        <time>2024-12-30T12:23:25.780Z</time>
      </trkpt>
      <trkpt lat="48.64351" lon="2.04726">
        <ele>173</ele>
        <time>2024-12-30T12:23:30.810Z</time>
      </trkpt>
      <trkpt lat="48.64344" lon="2.04722">
        <ele>173</ele>
        <time>2024-12-30T12:23:35.840Z</time>
      </trkpt>
      <trkpt lat="48.64337" lon="2.04718">
        <ele>173</ele>
        <time>2024-12-30T12:23:40.870Z</time>
      </trkpt>
      <trkpt lat="48.6433" lon="2.04715">
        <ele>173.1</ele>
        <time>2024-12-30T12:23:45.900Z</time>
      </trkpt>
      <trkpt lat="48.64323" lon="2.04711">
        <ele>173.2</ele>
        <time>2024-12-30T12:23:50.931Z</time>
      </trkpt>
      <trkpt lat="48.64318" lon="2.04703">
        <ele>173.2</ele>
        <time>2024-12-30T12:23:55.513Z</time>
      </trkpt>
      <trkpt lat="48.64313" lon="2.04695">
        <ele>173</ele>
        <time>2024-12-30T12:24:00.096Z</time>
      </trkpt>
      <trkpt lat="48.64315" lon="2.04684">
        <ele>173.3</ele>
        <time>2024-12-30T12:24:05.515Z</time>
      </trkpt>
      <trkpt lat="48.64316" lon="2.04673">
        <ele>173.5</ele>
        <time>2024-12-30T12:24:10.934Z</time>
      </trkpt>
      <trkpt lat="48.64318" lon="2.04662">
        <ele>173.4</ele>
        <time>2024-12-30T12:24:15.920Z</time>
      </trkpt>
      <trkpt lat="48.64321" lon="2.04651">
        <ele>173.2</ele>
        <time>2024-12-30T12:24:20.906Z</time>
      </trkpt>
      <trkpt lat="48.64323" lon="2.0464">
        <ele>173</ele>
        <time>2024-12-30T12:24:25.892Z</time>
      </trkpt>
      <trkpt lat="48.64325" lon="2.04629">
        <ele>173</ele>
        <time>2024-12-30T12:24:30.878Z</time>
      </trkpt>
      <trkpt lat="48.64327" lon="2.04617">
        <ele>173</ele>
        <time>2024-12-30T12:24:35.864Z</time>
      </trkpt>
      <trkpt lat="48.6433" lon="2.04606">
        <ele>173</ele>
        <time>2024-12-30T12:24:40.851Z</time>
      </trkpt>
      <trkpt lat="48.64332" lon="2.04595">
        <ele>173</ele>
        <time>2024-12-30T12:24:45.838Z</time>
      </trkpt>
      <trkpt lat="48.64334" lon="2.04584">
        <ele>173</ele>
        <time>2024-12-30T12:24:50.825Z</time>
      </trkpt>
      <trkpt lat="48.64336" lon="2.04573">
        <ele>173</ele>
        <time>2024-12-30T12:24:55.812Z</time>
      </trkpt>
      <trkpt lat="48.64339" lon="2.04562">
        <ele>173</ele>
        <time>2024-12-30T12:25:00.799Z</time>
      </trkpt>
      <trkpt lat="48.64341" lon="2.04551">
        <ele>173</ele>
        <time>2024-12-30T12:25:05.786Z</time>
      </trkpt>
      <trkpt lat="48.64343" lon="2.0454">
        <ele>173</ele>
        <time>2024-12-30T12:25:10.773Z</time>
      </trkpt>
      <trkpt lat="48.64345" lon="2.04528">
        <ele>173</ele>
        <time>2024-12-30T12:25:15.760Z</time>
      </trkpt>
      <trkpt lat="48.64348" lon="2.04517">
        <ele>173</ele>
        <time>2024-12-30T12:25:20.747Z</time>
      </trkpt>
      <trkpt lat="48.6435" lon="2.04506">
        <ele>173</ele>
        <time>2024-12-30T12:25:25.734Z</time>
      </trkpt>
      <trkpt lat="48.64352" lon="2.04495">
        <ele>173</ele>
        <time>2024-12-30T12:25:30.721Z</time>
      </trkpt>
      <trkpt lat="48.64357" lon="2.04485">
        <ele>173</ele>
        <time>2024-12-30T12:25:36.164Z</time>
      </trkpt>
      <trkpt lat="48.64353" lon="2.04483">
        <ele>173</ele>
        <time>2024-12-30T12:25:38.931Z</time>
        <extensions>
          <visugpx:TrkExtension xmlns:visugpx="https://www.visugpx.com/editgpx/">
            <visugpx:node>13</visugpx:node>
            </visugpx:TrkExtension>
        </extensions>
      </trkpt>
      <trkpt lat="48.64347" lon="2.04479">
        <ele>173</ele>
        <time>2024-12-30T12:25:43.065Z</time>
      </trkpt>
      <trkpt lat="48.64342" lon="2.04475">
        <ele>173</ele>
        <time>2024-12-30T12:25:47.199Z</time>
      </trkpt>
      <trkpt lat="48.64336" lon="2.04471">
        <ele>173</ele>
        <time>2024-12-30T12:25:51.333Z</time>
      </trkpt>
      <trkpt lat="48.6433" lon="2.04468">
        <ele>173</ele>
        <time>2024-12-30T12:25:55.467Z</time>
      </trkpt>
      <trkpt lat="48.64324" lon="2.04464">
        <ele>173</ele>
        <time>2024-12-30T12:25:59.601Z</time>
      </trkpt>
      <trkpt lat="48.64319" lon="2.0446">
        <ele>173</ele>
        <time>2024-12-30T12:26:03.735Z</time>
      </trkpt>
      <trkpt lat="48.64313" lon="2.04456">
        <ele>173</ele>
        <time>2024-12-30T12:26:07.869Z</time>
      </trkpt>
      <trkpt lat="48.64307" lon="2.04452">
        <ele>173</ele>
        <time>2024-12-30T12:26:12.005Z</time>
      </trkpt>
      <trkpt lat="48.64302" lon="2.04449">
        <ele>172.9</ele>
        <time>2024-12-30T12:26:15.359Z</time>
      </trkpt>
      <trkpt lat="48.64297" lon="2.04446">
        <ele>172.7</ele>
        <time>2024-12-30T12:26:18.713Z</time>
      </trkpt>
      <trkpt lat="48.64291" lon="2.04443">
        <ele>172.5</ele>
        <time>2024-12-30T12:26:22.068Z</time>
      </trkpt>
      <trkpt lat="48.64286" lon="2.0444">
        <ele>172.3</ele>
        <time>2024-12-30T12:26:25.424Z</time>
      </trkpt>
      <trkpt lat="48.6428" lon="2.04437">
        <ele>172.1</ele>
        <time>2024-12-30T12:26:29.346Z</time>
      </trkpt>
      <trkpt lat="48.64274" lon="2.04434">
        <ele>172</ele>
        <time>2024-12-30T12:26:33.268Z</time>
      </trkpt>
      <trkpt lat="48.64268" lon="2.04431">
        <ele>172</ele>
        <time>2024-12-30T12:26:37.191Z</time>
      </trkpt>
      <trkpt lat="48.64262" lon="2.04429">
        <ele>172</ele>
        <time>2024-12-30T12:26:41.114Z</time>
      </trkpt>
      <trkpt lat="48.64256" lon="2.04426">
        <ele>172</ele>
        <time>2024-12-30T12:26:45.037Z</time>
      </trkpt>
      <trkpt lat="48.6425" lon="2.04423">
        <ele>172</ele>
        <time>2024-12-30T12:26:48.960Z</time>
      </trkpt>
      <trkpt lat="48.64244" lon="2.0442">
        <ele>171.8</ele>
        <time>2024-12-30T12:26:52.883Z</time>
      </trkpt>
      <trkpt lat="48.64239" lon="2.04417">
        <ele>171.6</ele>
        <time>2024-12-30T12:26:56.806Z</time>
      </trkpt>
      <trkpt lat="48.64233" lon="2.04414">
        <ele>171.4</ele>
        <time>2024-12-30T12:27:00.729Z</time>
      </trkpt>
      <trkpt lat="48.64227" lon="2.04411">
        <ele>171.2</ele>
        <time>2024-12-30T12:27:04.652Z</time>
      </trkpt>
      <trkpt lat="48.64221" lon="2.04408">
        <ele>171</ele>
        <time>2024-12-30T12:27:08.575Z</time>
      </trkpt>
      <trkpt lat="48.64215" lon="2.04406">
        <ele>171</ele>
        <time>2024-12-30T12:27:12.498Z</time>
      </trkpt>
      <trkpt lat="48.64209" lon="2.04403">
        <ele>171</ele>
        <time>2024-12-30T12:27:16.421Z</time>
      </trkpt>
      <trkpt lat="48.64203" lon="2.044">
        <ele>171</ele>
        <time>2024-12-30T12:27:20.344Z</time>
      </trkpt>
      <trkpt lat="48.64197" lon="2.04397">
        <ele>171</ele>
        <time>2024-12-30T12:27:24.267Z</time>
      </trkpt>
      <trkpt lat="48.64191" lon="2.04394">
        <ele>170.9</ele>
        <time>2024-12-30T12:27:28.191Z</time>
      </trkpt>
      <trkpt lat="48.64183" lon="2.04391">
        <ele>170.6</ele>
        <time>2024-12-30T12:27:33.034Z</time>
      </trkpt>
      <trkpt lat="48.64175" lon="2.04387">
        <ele>170.3</ele>
        <time>2024-12-30T12:27:37.877Z</time>
      </trkpt>
      <trkpt lat="48.64167" lon="2.04384">
        <ele>170</ele>
        <time>2024-12-30T12:27:42.720Z</time>
      </trkpt>
      <trkpt lat="48.64159" lon="2.0438">
        <ele>169.7</ele>
        <time>2024-12-30T12:27:47.563Z</time>
      </trkpt>
      <trkpt lat="48.64151" lon="2.04377">
        <ele>169.4</ele>
        <time>2024-12-30T12:27:52.406Z</time>
      </trkpt>
      <trkpt lat="48.64143" lon="2.04373">
        <ele>169.1</ele>
        <time>2024-12-30T12:27:57.249Z</time>
      </trkpt>
      <trkpt lat="48.64135" lon="2.0437">
        <ele>168.8</ele>
        <time>2024-12-30T12:28:02.092Z</time>
      </trkpt>
      <trkpt lat="48.64127" lon="2.04366">
        <ele>168.2</ele>
        <time>2024-12-30T12:28:06.936Z</time>
      </trkpt>
      <trkpt lat="48.64122" lon="2.04362">
        <ele>167.8</ele>
        <time>2024-12-30T12:28:10.442Z</time>
      </trkpt>
      <trkpt lat="48.64116" lon="2.04358">
        <ele>167.4</ele>
        <time>2024-12-30T12:28:13.950Z</time>
      </trkpt>
      <trkpt lat="48.64112" lon="2.04352">
        <ele>167</ele>
        <time>2024-12-30T12:28:17.524Z</time>
      </trkpt>
      <trkpt lat="48.64107" lon="2.04345">
        <ele>166.4</ele>
        <time>2024-12-30T12:28:21.100Z</time>
      </trkpt>
      <trkpt lat="48.64103" lon="2.04339">
        <ele>165.6</ele>
        <time>2024-12-30T12:28:24.473Z</time>
      </trkpt>
      <trkpt lat="48.64099" lon="2.04332">
        <ele>164.8</ele>
        <time>2024-12-30T12:28:27.846Z</time>
      </trkpt>
      <trkpt lat="48.64095" lon="2.04326">
        <ele>163.9</ele>
        <time>2024-12-30T12:28:31.219Z</time>
      </trkpt>
      <trkpt lat="48.64091" lon="2.04319">
        <ele>163</ele>
        <time>2024-12-30T12:28:34.592Z</time>
      </trkpt>
      <trkpt lat="48.64087" lon="2.04313">
        <ele>162</ele>
        <time>2024-12-30T12:28:37.965Z</time>
      </trkpt>
      <trkpt lat="48.64083" lon="2.04306">
        <ele>160.9</ele>
        <time>2024-12-30T12:28:41.338Z</time>
      </trkpt>
      <trkpt lat="48.64079" lon="2.043">
        <ele>160.3</ele>
        <time>2024-12-30T12:28:44.711Z</time>
      </trkpt>
      <trkpt lat="48.64075" lon="2.04293">
        <ele>159.7</ele>
        <time>2024-12-30T12:28:48.086Z</time>
      </trkpt>
      <trkpt lat="48.64071" lon="2.04287">
        <ele>159</ele>
        <time>2024-12-30T12:28:51.458Z</time>
      </trkpt>
      <trkpt lat="48.64067" lon="2.0428">
        <ele>158.4</ele>
        <time>2024-12-30T12:28:54.832Z</time>
      </trkpt>
      <trkpt lat="48.64062" lon="2.04274">
        <ele>157.6</ele>
        <time>2024-12-30T12:28:58.728Z</time>
      </trkpt>
      <trkpt lat="48.64056" lon="2.04268">
        <ele>156.8</ele>
        <time>2024-12-30T12:29:02.625Z</time>
      </trkpt>
      <trkpt lat="48.64051" lon="2.04266">
        <ele>156.1</ele>
        <time>2024-12-30T12:29:05.736Z</time>
      </trkpt>
      <trkpt lat="48.64046" lon="2.04264">
        <ele>155.4</ele>
        <time>2024-12-30T12:29:08.847Z</time>
      </trkpt>
      <trkpt lat="48.6404" lon="2.04262">
        <ele>154.6</ele>
        <time>2024-12-30T12:29:11.959Z</time>
      </trkpt>
      <trkpt lat="48.64035" lon="2.0426">
        <ele>153.8</ele>
        <time>2024-12-30T12:29:15.071Z</time>
      </trkpt>
      <trkpt lat="48.64029" lon="2.04258">
        <ele>152.9</ele>
        <time>2024-12-30T12:29:18.723Z</time>
      </trkpt>
      <trkpt lat="48.64023" lon="2.04257">
        <ele>152.4</ele>
        <time>2024-12-30T12:29:22.376Z</time>
      </trkpt>
      <trkpt lat="48.64016" lon="2.04255">
        <ele>152</ele>
        <time>2024-12-30T12:29:26.029Z</time>
      </trkpt>
      <trkpt lat="48.6401" lon="2.04253">
        <ele>151.6</ele>
        <time>2024-12-30T12:29:29.683Z</time>
      </trkpt>
      <trkpt lat="48.64004" lon="2.0425">
        <ele>151.3</ele>
        <time>2024-12-30T12:29:33.378Z</time>
      </trkpt>
      <trkpt lat="48.63998" lon="2.04246">
        <ele>151</ele>
        <time>2024-12-30T12:29:37.074Z</time>
      </trkpt>
      <trkpt lat="48.63993" lon="2.04241">
        <ele>150.9</ele>
        <time>2024-12-30T12:29:41.517Z</time>
      </trkpt>
      <trkpt lat="48.63988" lon="2.04236">
        <ele>150.9</ele>
        <time>2024-12-30T12:29:45.960Z</time>
      </trkpt>
      <trkpt lat="48.63984" lon="2.04231">
        <ele>150.9</ele>
        <time>2024-12-30T12:29:50.403Z</time>
      </trkpt>
      <trkpt lat="48.63979" lon="2.04226">
        <ele>151</ele>
        <time>2024-12-30T12:29:54.846Z</time>
      </trkpt>
      <trkpt lat="48.63974" lon="2.04221">
        <ele>151.1</ele>
        <time>2024-12-30T12:29:59.289Z</time>
      </trkpt>
      <trkpt lat="48.63969" lon="2.04216">
        <ele>151</ele>
        <time>2024-12-30T12:30:03.732Z</time>
      </trkpt>
      <trkpt lat="48.63965" lon="2.04211">
        <ele>151.1</ele>
        <time>2024-12-30T12:30:08.175Z</time>
      </trkpt>
      <trkpt lat="48.6396" lon="2.04207">
        <ele>151.3</ele>
        <time>2024-12-30T12:30:12.618Z</time>
      </trkpt>
      <trkpt lat="48.63955" lon="2.04202">
        <ele>151.5</ele>
        <time>2024-12-30T12:30:17.061Z</time>
      </trkpt>
      <trkpt lat="48.6395" lon="2.04197">
        <ele>151.7</ele>
        <time>2024-12-30T12:30:21.504Z</time>
      </trkpt>
      <trkpt lat="48.63945" lon="2.04192">
        <ele>152</ele>
        <time>2024-12-30T12:30:25.947Z</time>
      </trkpt>
      <trkpt lat="48.63941" lon="2.04187">
        <ele>152.2</ele>
        <time>2024-12-30T12:30:30.391Z</time>
      </trkpt>
      <trkpt lat="48.63936" lon="2.04182">
        <ele>152.5</ele>
        <time>2024-12-30T12:30:34.835Z</time>
      </trkpt>
      <trkpt lat="48.63931" lon="2.04177">
        <ele>152.8</ele>
        <time>2024-12-30T12:30:39.279Z</time>
      </trkpt>
      <trkpt lat="48.63926" lon="2.04172">
        <ele>153.2</ele>
        <time>2024-12-30T12:30:43.723Z</time>
      </trkpt>
      <trkpt lat="48.63922" lon="2.04167">
        <ele>153.6</ele>
        <time>2024-12-30T12:30:48.167Z</time>
      </trkpt>
      <trkpt lat="48.63917" lon="2.04162">
        <ele>154</ele>
        <time>2024-12-30T12:30:52.611Z</time>
      </trkpt>
      <trkpt lat="48.63912" lon="2.04157">
        <ele>154.3</ele>
        <time>2024-12-30T12:30:57.055Z</time>
      </trkpt>
      <trkpt lat="48.63907" lon="2.04152">
        <ele>154.7</ele>
        <time>2024-12-30T12:31:01.499Z</time>
      </trkpt>
      <trkpt lat="48.63902" lon="2.04147">
        <ele>155</ele>
        <time>2024-12-30T12:31:05.943Z</time>
      </trkpt>
      <trkpt lat="48.63898" lon="2.04142">
        <ele>155.4</ele>
        <time>2024-12-30T12:31:10.387Z</time>
      </trkpt>
      <trkpt lat="48.63893" lon="2.04137">
        <ele>155.7</ele>
        <time>2024-12-30T12:31:14.831Z</time>
      </trkpt>
      <trkpt lat="48.63888" lon="2.04132">
        <ele>156.1</ele>
        <time>2024-12-30T12:31:19.275Z</time>
      </trkpt>
      <trkpt lat="48.63883" lon="2.04128">
        <ele>156.4</ele>
        <time>2024-12-30T12:31:23.719Z</time>
      </trkpt>
      <trkpt lat="48.63879" lon="2.04123">
        <ele>156.7</ele>
        <time>2024-12-30T12:31:28.163Z</time>
      </trkpt>
      <trkpt lat="48.63874" lon="2.04118">
        <ele>157.1</ele>
        <time>2024-12-30T12:31:32.607Z</time>
      </trkpt>
      <trkpt lat="48.63869" lon="2.04113">
        <ele>157.4</ele>
        <time>2024-12-30T12:31:37.051Z</time>
      </trkpt>
      <trkpt lat="48.63864" lon="2.04108">
        <ele>157.9</ele>
        <time>2024-12-30T12:31:41.495Z</time>
      </trkpt>
      <trkpt lat="48.63859" lon="2.04103">
        <ele>158.5</ele>
        <time>2024-12-30T12:31:45.939Z</time>
      </trkpt>
      <trkpt lat="48.63855" lon="2.04098">
        <ele>159.1</ele>
        <time>2024-12-30T12:31:50.383Z</time>
      </trkpt>
      <trkpt lat="48.6385" lon="2.04093">
        <ele>159.6</ele>
        <time>2024-12-30T12:31:54.827Z</time>
      </trkpt>
      <trkpt lat="48.63845" lon="2.04088">
        <ele>160.1</ele>
        <time>2024-12-30T12:31:59.272Z</time>
      </trkpt>
      <trkpt lat="48.6384" lon="2.04084">
        <ele>160.5</ele>
        <time>2024-12-30T12:32:03.447Z</time>
      </trkpt>
      <trkpt lat="48.63836" lon="2.0408">
        <ele>160.9</ele>
        <time>2024-12-30T12:32:07.622Z</time>
      </trkpt>
      <trkpt lat="48.63831" lon="2.04076">
        <ele>161.4</ele>
        <time>2024-12-30T12:32:11.797Z</time>
      </trkpt>
      <trkpt lat="48.63827" lon="2.04073">
        <ele>161.8</ele>
        <time>2024-12-30T12:32:15.972Z</time>
      </trkpt>
      <trkpt lat="48.63822" lon="2.04069">
        <ele>162.1</ele>
        <time>2024-12-30T12:32:20.148Z</time>
      </trkpt>
      <trkpt lat="48.63818" lon="2.04065">
        <ele>162.4</ele>
        <time>2024-12-30T12:32:24.324Z</time>
      </trkpt>
      <trkpt lat="48.63813" lon="2.04061">
        <ele>162.7</ele>
        <time>2024-12-30T12:32:28.500Z</time>
      </trkpt>
      <trkpt lat="48.63809" lon="2.04057">
        <ele>162.9</ele>
        <time>2024-12-30T12:32:32.676Z</time>
      </trkpt>
      <trkpt lat="48.63804" lon="2.04053">
        <ele>163.1</ele>
        <time>2024-12-30T12:32:36.852Z</time>
      </trkpt>
      <trkpt lat="48.63799" lon="2.04049">
        <ele>163.4</ele>
        <time>2024-12-30T12:32:41.028Z</time>
      </trkpt>
      <trkpt lat="48.63795" lon="2.04045">
        <ele>163.8</ele>
        <time>2024-12-30T12:32:45.204Z</time>
      </trkpt>
      <trkpt lat="48.6379" lon="2.04042">
        <ele>164.1</ele>
        <time>2024-12-30T12:32:49.380Z</time>
      </trkpt>
      <trkpt lat="48.63786" lon="2.04038">
        <ele>164.4</ele>
        <time>2024-12-30T12:32:53.556Z</time>
      </trkpt>
      <trkpt lat="48.63781" lon="2.04034">
        <ele>164.8</ele>
        <time>2024-12-30T12:32:57.732Z</time>
      </trkpt>
      <trkpt lat="48.63777" lon="2.0403">
        <ele>165</ele>
        <time>2024-12-30T12:33:01.908Z</time>
      </trkpt>
      <trkpt lat="48.63772" lon="2.04026">
        <ele>165.2</ele>
        <time>2024-12-30T12:33:06.085Z</time>
      </trkpt>
      <trkpt lat="48.63765" lon="2.0402">
        <ele>165.5</ele>
        <time>2024-12-30T12:33:12.239Z</time>
      </trkpt>
      <trkpt lat="48.63757" lon="2.04015">
        <ele>165.7</ele>
        <time>2024-12-30T12:33:18.393Z</time>
      </trkpt>
      <trkpt lat="48.6375" lon="2.04009">
        <ele>166</ele>
        <time>2024-12-30T12:33:24.547Z</time>
      </trkpt>
      <trkpt lat="48.63742" lon="2.04004">
        <ele>166.3</ele>
        <time>2024-12-30T12:33:30.701Z</time>
      </trkpt>
      <trkpt lat="48.63735" lon="2.03998">
        <ele>166.6</ele>
        <time>2024-12-30T12:33:36.856Z</time>
      </trkpt>
      <trkpt lat="48.63727" lon="2.03992">
        <ele>166.8</ele>
        <time>2024-12-30T12:33:43.011Z</time>
      </trkpt>
      <trkpt lat="48.6372" lon="2.03987">
        <ele>167.1</ele>
        <time>2024-12-30T12:33:49.166Z</time>
      </trkpt>
      <trkpt lat="48.63712" lon="2.03981">
        <ele>167.6</ele>
        <time>2024-12-30T12:33:55.322Z</time>
      </trkpt>
      <trkpt lat="48.63706" lon="2.03977">
        <ele>168.1</ele>
        <time>2024-12-30T12:34:00.146Z</time>
      </trkpt>
      <trkpt lat="48.637" lon="2.03972">
        <ele>168.6</ele>
        <time>2024-12-30T12:34:04.970Z</time>
      </trkpt>
      <trkpt lat="48.63694" lon="2.03968">
        <ele>169</ele>
        <time>2024-12-30T12:34:09.794Z</time>
      </trkpt>
      <trkpt lat="48.63688" lon="2.03964">
        <ele>169.2</ele>
        <time>2024-12-30T12:34:14.618Z</time>
      </trkpt>
      <trkpt lat="48.63682" lon="2.03959">
        <ele>169.4</ele>
        <time>2024-12-30T12:34:19.442Z</time>
      </trkpt>
      <trkpt lat="48.63676" lon="2.03955">
        <ele>169.7</ele>
        <time>2024-12-30T12:34:24.266Z</time>
      </trkpt>
      <trkpt lat="48.6367" lon="2.03951">
        <ele>169.9</ele>
        <time>2024-12-30T12:34:29.090Z</time>
      </trkpt>
      <trkpt lat="48.63664" lon="2.03947">
        <ele>170</ele>
        <time>2024-12-30T12:34:33.914Z</time>
      </trkpt>
      <trkpt lat="48.63658" lon="2.03942">
        <ele>170</ele>
        <time>2024-12-30T12:34:38.738Z</time>
      </trkpt>
      <trkpt lat="48.63652" lon="2.03938">
        <ele>170.1</ele>
        <time>2024-12-30T12:34:43.562Z</time>
      </trkpt>
      <trkpt lat="48.63646" lon="2.03934">
        <ele>170.3</ele>
        <time>2024-12-30T12:34:48.386Z</time>
      </trkpt>
      <trkpt lat="48.6364" lon="2.03929">
        <ele>170.5</ele>
        <time>2024-12-30T12:34:53.210Z</time>
      </trkpt>
      <trkpt lat="48.63634" lon="2.03925">
        <ele>170.8</ele>
        <time>2024-12-30T12:34:58.034Z</time>
      </trkpt>
      <trkpt lat="48.63628" lon="2.03921">
        <ele>170.9</ele>
        <time>2024-12-30T12:35:02.858Z</time>
      </trkpt>
      <trkpt lat="48.63622" lon="2.03916">
        <ele>171</ele>
        <time>2024-12-30T12:35:07.682Z</time>
      </trkpt>
      <trkpt lat="48.63616" lon="2.03912">
        <ele>171</ele>
        <time>2024-12-30T12:35:12.507Z</time>
      </trkpt>
      <trkpt lat="48.63611" lon="2.03909">
        <ele>171</ele>
        <time>2024-12-30T12:35:15.973Z</time>
      </trkpt>
      <trkpt lat="48.63607" lon="2.03905">
        <ele>171</ele>
        <time>2024-12-30T12:35:19.439Z</time>
      </trkpt>
      <trkpt lat="48.63602" lon="2.03902">
        <ele>171</ele>
        <time>2024-12-30T12:35:22.905Z</time>
      </trkpt>
      <trkpt lat="48.63597" lon="2.03898">
        <ele>171</ele>
        <time>2024-12-30T12:35:26.371Z</time>
      </trkpt>
      <trkpt lat="48.63593" lon="2.03895">
        <ele>171</ele>
        <time>2024-12-30T12:35:29.837Z</time>
      </trkpt>
      <trkpt lat="48.63588" lon="2.03891">
        <ele>171</ele>
        <time>2024-12-30T12:35:33.303Z</time>
      </trkpt>
      <trkpt lat="48.63583" lon="2.03888">
        <ele>171</ele>
        <time>2024-12-30T12:35:36.770Z</time>
      </trkpt>
      <trkpt lat="48.63579" lon="2.03885">
        <ele>171</ele>
        <time>2024-12-30T12:35:40.237Z</time>
      </trkpt>
      <trkpt lat="48.63574" lon="2.03881">
        <ele>171.1</ele>
        <time>2024-12-30T12:35:43.704Z</time>
      </trkpt>
      <trkpt lat="48.63569" lon="2.03878">
        <ele>171.2</ele>
        <time>2024-12-30T12:35:47.171Z</time>
      </trkpt>
      <trkpt lat="48.63565" lon="2.03874">
        <ele>171.4</ele>
        <time>2024-12-30T12:35:50.638Z</time>
      </trkpt>
      <trkpt lat="48.6356" lon="2.03871">
        <ele>171.5</ele>
        <time>2024-12-30T12:35:54.105Z</time>
      </trkpt>
      <trkpt lat="48.63556" lon="2.03867">
        <ele>171.8</ele>
        <time>2024-12-30T12:35:57.572Z</time>
      </trkpt>
      <trkpt lat="48.63551" lon="2.03864">
        <ele>171.9</ele>
        <time>2024-12-30T12:36:01.039Z</time>
      </trkpt>
      <trkpt lat="48.63546" lon="2.0386">
        <ele>172</ele>
        <time>2024-12-30T12:36:04.506Z</time>
      </trkpt>
      <trkpt lat="48.63542" lon="2.03857">
        <ele>172</ele>
        <time>2024-12-30T12:36:07.973Z</time>
      </trkpt>
      <trkpt lat="48.63537" lon="2.03854">
        <ele>172</ele>
        <time>2024-12-30T12:36:11.440Z</time>
      </trkpt>
      <trkpt lat="48.63532" lon="2.0385">
        <ele>172</ele>
        <time>2024-12-30T12:36:14.907Z</time>
      </trkpt>
      <trkpt lat="48.63528" lon="2.03847">
        <ele>172</ele>
        <time>2024-12-30T12:36:18.374Z</time>
      </trkpt>
      <trkpt lat="48.63523" lon="2.03843">
        <ele>172</ele>
        <time>2024-12-30T12:36:21.841Z</time>
      </trkpt>
      <trkpt lat="48.63518" lon="2.0384">
        <ele>172</ele>
        <time>2024-12-30T12:36:25.308Z</time>
      </trkpt>
      <trkpt lat="48.63514" lon="2.03836">
        <ele>172</ele>
        <time>2024-12-30T12:36:28.775Z</time>
      </trkpt>
      <trkpt lat="48.63509" lon="2.03833">
        <ele>172</ele>
        <time>2024-12-30T12:36:32.242Z</time>
      </trkpt>
      <trkpt lat="48.63504" lon="2.0383">
        <ele>172</ele>
        <time>2024-12-30T12:36:35.709Z</time>
      </trkpt>
      <trkpt lat="48.635" lon="2.03826">
        <ele>172</ele>
        <time>2024-12-30T12:36:39.176Z</time>
      </trkpt>
      <trkpt lat="48.63495" lon="2.03823">
        <ele>172.1</ele>
        <time>2024-12-30T12:36:42.643Z</time>
      </trkpt>
      <trkpt lat="48.6349" lon="2.03819">
        <ele>172.2</ele>
        <time>2024-12-30T12:36:46.110Z</time>
      </trkpt>
      <trkpt lat="48.63486" lon="2.03816">
        <ele>172.3</ele>
        <time>2024-12-30T12:36:49.577Z</time>
      </trkpt>
      <trkpt lat="48.63481" lon="2.03812">
        <ele>172.5</ele>
        <time>2024-12-30T12:36:53.044Z</time>
      </trkpt>
      <trkpt lat="48.63476" lon="2.03809">
        <ele>172.8</ele>
        <time>2024-12-30T12:36:56.511Z</time>
      </trkpt>
      <trkpt lat="48.63472" lon="2.03805">
        <ele>173</ele>
        <time>2024-12-30T12:36:59.978Z</time>
      </trkpt>
      <trkpt lat="48.63467" lon="2.03802">
        <ele>172.8</ele>
        <time>2024-12-30T12:37:03.445Z</time>
      </trkpt>
      <trkpt lat="48.63462" lon="2.03799">
        <ele>172.7</ele>
        <time>2024-12-30T12:37:06.912Z</time>
      </trkpt>
      <trkpt lat="48.63458" lon="2.03795">
        <ele>172.7</ele>
        <time>2024-12-30T12:37:10.379Z</time>
      </trkpt>
      <trkpt lat="48.63453" lon="2.03792">
        <ele>172.7</ele>
        <time>2024-12-30T12:37:13.846Z</time>
      </trkpt>
      <trkpt lat="48.63448" lon="2.03788">
        <ele>172.7</ele>
        <time>2024-12-30T12:37:17.313Z</time>
      </trkpt>
      <trkpt lat="48.63444" lon="2.03785">
        <ele>172.7</ele>
        <time>2024-12-30T12:37:20.780Z</time>
      </trkpt>
      <trkpt lat="48.63439" lon="2.03781">
        <ele>172.7</ele>
        <time>2024-12-30T12:37:24.247Z</time>
      </trkpt>
      <trkpt lat="48.63434" lon="2.03778">
        <ele>172.6</ele>
        <time>2024-12-30T12:37:27.714Z</time>
      </trkpt>
      <trkpt lat="48.6343" lon="2.03775">
        <ele>172.5</ele>
        <time>2024-12-30T12:37:31.181Z</time>
      </trkpt>
      <trkpt lat="48.63425" lon="2.03771">
        <ele>172.5</ele>
        <time>2024-12-30T12:37:34.648Z</time>
      </trkpt>
      <trkpt lat="48.6342" lon="2.03768">
        <ele>172.5</ele>
        <time>2024-12-30T12:37:38.115Z</time>
      </trkpt>
      <trkpt lat="48.63416" lon="2.03764">
        <ele>172.5</ele>
        <time>2024-12-30T12:37:41.582Z</time>
      </trkpt>
      <trkpt lat="48.63411" lon="2.03761">
        <ele>172.6</ele>
        <time>2024-12-30T12:37:45.049Z</time>
      </trkpt>
      <trkpt lat="48.63407" lon="2.03757">
        <ele>172.7</ele>
        <time>2024-12-30T12:37:48.516Z</time>
      </trkpt>
      <trkpt lat="48.63402" lon="2.03754">
        <ele>172.9</ele>
        <time>2024-12-30T12:37:51.983Z</time>
      </trkpt>
      <trkpt lat="48.63397" lon="2.0375">
        <ele>173</ele>
        <time>2024-12-30T12:37:55.450Z</time>
      </trkpt>
      <trkpt lat="48.63393" lon="2.03747">
        <ele>172.9</ele>
        <time>2024-12-30T12:37:58.917Z</time>
      </trkpt>
      <trkpt lat="48.63388" lon="2.03744">
        <ele>172.8</ele>
        <time>2024-12-30T12:38:02.384Z</time>
      </trkpt>
      <trkpt lat="48.63383" lon="2.0374">
        <ele>172.7</ele>
        <time>2024-12-30T12:38:05.851Z</time>
      </trkpt>
      <trkpt lat="48.63379" lon="2.03737">
        <ele>172.7</ele>
        <time>2024-12-30T12:38:09.318Z</time>
      </trkpt>
      <trkpt lat="48.63374" lon="2.03733">
        <ele>172.7</ele>
        <time>2024-12-30T12:38:12.785Z</time>
      </trkpt>
      <trkpt lat="48.63369" lon="2.0373">
        <ele>172.8</ele>
        <time>2024-12-30T12:38:16.252Z</time>
      </trkpt>
      <trkpt lat="48.63365" lon="2.03726">
        <ele>172.9</ele>
        <time>2024-12-30T12:38:19.719Z</time>
      </trkpt>
      <trkpt lat="48.6336" lon="2.03723">
        <ele>173</ele>
        <time>2024-12-30T12:38:23.186Z</time>
      </trkpt>
      <trkpt lat="48.63355" lon="2.0372">
        <ele>173</ele>
        <time>2024-12-30T12:38:26.653Z</time>
      </trkpt>
      <trkpt lat="48.63351" lon="2.03716">
        <ele>173</ele>
        <time>2024-12-30T12:38:30.120Z</time>
      </trkpt>
      <trkpt lat="48.63346" lon="2.03713">
        <ele>173</ele>
        <time>2024-12-30T12:38:33.587Z</time>
      </trkpt>
      <trkpt lat="48.63341" lon="2.03709">
        <ele>173</ele>
        <time>2024-12-30T12:38:37.054Z</time>
      </trkpt>
      <trkpt lat="48.63337" lon="2.03706">
        <ele>173</ele>
        <time>2024-12-30T12:38:40.521Z</time>
      </trkpt>
      <trkpt lat="48.63332" lon="2.03702">
        <ele>173</ele>
        <time>2024-12-30T12:38:43.988Z</time>
      </trkpt>
      <trkpt lat="48.63327" lon="2.03699">
        <ele>173</ele>
        <time>2024-12-30T12:38:47.455Z</time>
      </trkpt>
      <trkpt lat="48.63323" lon="2.03695">
        <ele>173</ele>
        <time>2024-12-30T12:38:50.922Z</time>
      </trkpt>
      <trkpt lat="48.63318" lon="2.03692">
        <ele>173</ele>
        <time>2024-12-30T12:38:54.391Z</time>
      </trkpt>
      <trkpt lat="48.6331" lon="2.03687">
        <ele>173</ele>
        <time>2024-12-30T12:39:00.048Z</time>
      </trkpt>
      <trkpt lat="48.63302" lon="2.03682">
        <ele>173</ele>
        <time>2024-12-30T12:39:05.705Z</time>
      </trkpt>
      <trkpt lat="48.63293" lon="2.03676">
        <ele>173</ele>
        <time>2024-12-30T12:39:11.362Z</time>
      </trkpt>
      <trkpt lat="48.63285" lon="2.03671">
        <ele>173</ele>
        <time>2024-12-30T12:39:17.019Z</time>
      </trkpt>
      <trkpt lat="48.63277" lon="2.03666">
        <ele>173</ele>
        <time>2024-12-30T12:39:22.676Z</time>
      </trkpt>
      <trkpt lat="48.63269" lon="2.03661">
        <ele>172.7</ele>
        <time>2024-12-30T12:39:28.333Z</time>
      </trkpt>
      <trkpt lat="48.6326" lon="2.03655">
        <ele>172.4</ele>
        <time>2024-12-30T12:39:33.990Z</time>
      </trkpt>
      <trkpt lat="48.63252" lon="2.0365">
        <ele>172.1</ele>
        <time>2024-12-30T12:39:39.648Z</time>
      </trkpt>
      <trkpt lat="48.63251" lon="2.03656">
        <ele>172</ele>
        <time>2024-12-30T12:39:42.142Z</time>
        <extensions>
          <visugpx:TrkExtension xmlns:visugpx="https://www.visugpx.com/editgpx/">
            <visugpx:node>14</visugpx:node>
            </visugpx:TrkExtension>
        </extensions>
      </trkpt>
      <trkpt lat="48.63252" lon="2.0365">
        <ele>172.1</ele>
        <time>2024-12-30T12:39:45.042Z</time>
      </trkpt>
      <trkpt lat="48.63249" lon="2.03642">
        <ele>172</ele>
        <time>2024-12-30T12:39:48.891Z</time>
      </trkpt>
      <trkpt lat="48.63246" lon="2.03635">
        <ele>172</ele>
        <time>2024-12-30T12:39:52.740Z</time>
      </trkpt>
      <trkpt lat="48.63242" lon="2.03627">
        <ele>172</ele>
        <time>2024-12-30T12:39:56.590Z</time>
      </trkpt>
      <trkpt lat="48.63239" lon="2.03619">
        <ele>172</ele>
        <time>2024-12-30T12:40:00.440Z</time>
      </trkpt>
      <trkpt lat="48.63236" lon="2.03612">
        <ele>172</ele>
        <time>2024-12-30T12:40:04.290Z</time>
      </trkpt>
      <trkpt lat="48.63233" lon="2.03604">
        <ele>171.7</ele>
        <time>2024-12-30T12:40:08.140Z</time>
      </trkpt>
      <trkpt lat="48.63229" lon="2.03596">
        <ele>171.5</ele>
        <time>2024-12-30T12:40:11.990Z</time>
      </trkpt>
      <trkpt lat="48.63226" lon="2.03589">
        <ele>171.3</ele>
        <time>2024-12-30T12:40:15.840Z</time>
      </trkpt>
      <trkpt lat="48.63223" lon="2.03581">
        <ele>171.1</ele>
        <time>2024-12-30T12:40:19.690Z</time>
      </trkpt>
      <trkpt lat="48.6322" lon="2.03573">
        <ele>171.2</ele>
        <time>2024-12-30T12:40:23.540Z</time>
      </trkpt>
      <trkpt lat="48.63216" lon="2.03565">
        <ele>171.3</ele>
        <time>2024-12-30T12:40:27.390Z</time>
      </trkpt>
      <trkpt lat="48.63213" lon="2.03558">
        <ele>171.3</ele>
        <time>2024-12-30T12:40:31.240Z</time>
      </trkpt>
      <trkpt lat="48.6321" lon="2.0355">
        <ele>171.2</ele>
        <time>2024-12-30T12:40:35.090Z</time>
      </trkpt>
      <trkpt lat="48.63207" lon="2.03542">
        <ele>171.1</ele>
        <time>2024-12-30T12:40:38.940Z</time>
      </trkpt>
      <trkpt lat="48.63203" lon="2.03535">
        <ele>171.1</ele>
        <time>2024-12-30T12:40:42.790Z</time>
      </trkpt>
      <trkpt lat="48.632" lon="2.03527">
        <ele>171.2</ele>
        <time>2024-12-30T12:40:46.641Z</time>
      </trkpt>
      <trkpt lat="48.63197" lon="2.0352">
        <ele>171.1</ele>
        <time>2024-12-30T12:40:50.117Z</time>
      </trkpt>
      <trkpt lat="48.63193" lon="2.03513">
        <ele>170.9</ele>
        <time>2024-12-30T12:40:53.593Z</time>
      </trkpt>
      <trkpt lat="48.6319" lon="2.03506">
        <ele>170.8</ele>
        <time>2024-12-30T12:40:57.069Z</time>
      </trkpt>
      <trkpt lat="48.63187" lon="2.035">
        <ele>170.7</ele>
        <time>2024-12-30T12:41:00.545Z</time>
      </trkpt>
      <trkpt lat="48.63183" lon="2.03493">
        <ele>170.6</ele>
        <time>2024-12-30T12:41:04.021Z</time>
      </trkpt>
      <trkpt lat="48.6318" lon="2.03486">
        <ele>170.5</ele>
        <time>2024-12-30T12:41:07.498Z</time>
      </trkpt>
      <trkpt lat="48.63176" lon="2.03479">
        <ele>170.4</ele>
        <time>2024-12-30T12:41:10.975Z</time>
      </trkpt>
      <trkpt lat="48.63173" lon="2.03472">
        <ele>170.2</ele>
        <time>2024-12-30T12:41:14.453Z</time>
      </trkpt>
      <trkpt lat="48.63168" lon="2.03465">
        <ele>170.3</ele>
        <time>2024-12-30T12:41:18.888Z</time>
      </trkpt>
      <trkpt lat="48.63164" lon="2.03459">
        <ele>170.4</ele>
        <time>2024-12-30T12:41:23.323Z</time>
      </trkpt>
      <trkpt lat="48.63159" lon="2.03452">
        <ele>170.5</ele>
        <time>2024-12-30T12:41:27.759Z</time>
      </trkpt>
      <trkpt lat="48.63154" lon="2.03445">
        <ele>170.5</ele>
        <time>2024-12-30T12:41:32.196Z</time>
      </trkpt>
      <trkpt lat="48.6315" lon="2.0344">
        <ele>170.5</ele>
        <time>2024-12-30T12:41:35.578Z</time>
      </trkpt>
      <trkpt lat="48.63146" lon="2.03435">
        <ele>170.5</ele>
        <time>2024-12-30T12:41:38.960Z</time>
      </trkpt>
      <trkpt lat="48.63142" lon="2.0343">
        <ele>170.6</ele>
        <time>2024-12-30T12:41:42.342Z</time>
      </trkpt>
      <trkpt lat="48.63138" lon="2.03425">
        <ele>170.7</ele>
        <time>2024-12-30T12:41:45.725Z</time>
      </trkpt>
      <trkpt lat="48.63134" lon="2.0342">
        <ele>170.7</ele>
        <time>2024-12-30T12:41:49.108Z</time>
      </trkpt>
      <trkpt lat="48.6313" lon="2.03415">
        <ele>170.7</ele>
        <time>2024-12-30T12:41:52.491Z</time>
      </trkpt>
      <trkpt lat="48.63126" lon="2.0341">
        <ele>170.5</ele>
        <time>2024-12-30T12:41:55.874Z</time>
      </trkpt>
      <trkpt lat="48.63122" lon="2.03405">
        <ele>170.4</ele>
        <time>2024-12-30T12:41:59.258Z</time>
      </trkpt>
      <trkpt lat="48.63117" lon="2.03398">
        <ele>170.2</ele>
        <time>2024-12-30T12:42:03.526Z</time>
      </trkpt>
      <trkpt lat="48.63112" lon="2.03391">
        <ele>170</ele>
        <time>2024-12-30T12:42:07.794Z</time>
      </trkpt>
      <trkpt lat="48.63107" lon="2.03384">
        <ele>169.9</ele>
        <time>2024-12-30T12:42:12.062Z</time>
      </trkpt>
      <trkpt lat="48.63102" lon="2.03377">
        <ele>169.7</ele>
        <time>2024-12-30T12:42:16.330Z</time>
      </trkpt>
      <trkpt lat="48.63097" lon="2.03369">
        <ele>169.5</ele>
        <time>2024-12-30T12:42:20.598Z</time>
      </trkpt>
      <trkpt lat="48.63092" lon="2.03362">
        <ele>169.3</ele>
        <time>2024-12-30T12:42:24.866Z</time>
      </trkpt>
      <trkpt lat="48.63087" lon="2.03355">
        <ele>169.3</ele>
        <time>2024-12-30T12:42:29.134Z</time>
      </trkpt>
      <trkpt lat="48.63082" lon="2.03348">
        <ele>169.4</ele>
        <time>2024-12-30T12:42:33.403Z</time>
      </trkpt>
      <trkpt lat="48.63079" lon="2.03342">
        <ele>169.4</ele>
        <time>2024-12-30T12:42:36.592Z</time>
      </trkpt>
      <trkpt lat="48.63076" lon="2.03336">
        <ele>169.4</ele>
        <time>2024-12-30T12:42:39.781Z</time>
      </trkpt>
      <trkpt lat="48.63072" lon="2.03329">
        <ele>169.2</ele>
        <time>2024-12-30T12:42:42.970Z</time>
      </trkpt>
      <trkpt lat="48.63069" lon="2.03323">
        <ele>169</ele>
        <time>2024-12-30T12:42:46.159Z</time>
      </trkpt>
      <trkpt lat="48.63066" lon="2.03317">
        <ele>168.7</ele>
        <time>2024-12-30T12:42:49.348Z</time>
      </trkpt>
      <trkpt lat="48.63063" lon="2.03311">
        <ele>168.5</ele>
        <time>2024-12-30T12:42:52.537Z</time>
      </trkpt>
      <trkpt lat="48.63059" lon="2.03304">
        <ele>168.3</ele>
        <time>2024-12-30T12:42:55.726Z</time>
      </trkpt>
      <trkpt lat="48.63056" lon="2.03298">
        <ele>168.3</ele>
        <time>2024-12-30T12:42:58.917Z</time>
      </trkpt>
      <trkpt lat="48.63052" lon="2.0329">
        <ele>168.4</ele>
        <time>2024-12-30T12:43:02.544Z</time>
      </trkpt>
      <trkpt lat="48.63049" lon="2.03283">
        <ele>168.4</ele>
        <time>2024-12-30T12:43:06.171Z</time>
      </trkpt>
      <trkpt lat="48.63045" lon="2.03275">
        <ele>168.2</ele>
        <time>2024-12-30T12:43:09.798Z</time>
      </trkpt>
      <trkpt lat="48.63041" lon="2.03267">
        <ele>168</ele>
        <time>2024-12-30T12:43:13.425Z</time>
      </trkpt>
      <trkpt lat="48.63038" lon="2.03259">
        <ele>167.7</ele>
        <time>2024-12-30T12:43:17.052Z</time>
      </trkpt>
      <trkpt lat="48.63034" lon="2.03252">
        <ele>167.4</ele>
        <time>2024-12-30T12:43:20.679Z</time>
      </trkpt>
      <trkpt lat="48.6303" lon="2.03244">
        <ele>167</ele>
        <time>2024-12-30T12:43:24.306Z</time>
      </trkpt>
      <trkpt lat="48.63027" lon="2.03236">
        <ele>166.4</ele>
        <time>2024-12-30T12:43:27.933Z</time>
      </trkpt>
      <trkpt lat="48.63023" lon="2.03228">
        <ele>165.9</ele>
        <time>2024-12-30T12:43:31.560Z</time>
      </trkpt>
      <trkpt lat="48.63019" lon="2.03221">
        <ele>165.4</ele>
        <time>2024-12-30T12:43:35.187Z</time>
      </trkpt>
      <trkpt lat="48.63015" lon="2.03213">
        <ele>165.1</ele>
        <time>2024-12-30T12:43:38.814Z</time>
      </trkpt>
      <trkpt lat="48.63012" lon="2.03205">
        <ele>164.8</ele>
        <time>2024-12-30T12:43:42.441Z</time>
      </trkpt>
      <trkpt lat="48.63008" lon="2.03197">
        <ele>164.6</ele>
        <time>2024-12-30T12:43:46.069Z</time>
      </trkpt>
      <trkpt lat="48.63004" lon="2.0319">
        <ele>164.3</ele>
        <time>2024-12-30T12:43:49.697Z</time>
      </trkpt>
      <trkpt lat="48.63001" lon="2.03182">
        <ele>164.1</ele>
        <time>2024-12-30T12:43:53.325Z</time>
      </trkpt>
      <trkpt lat="48.62997" lon="2.03174">
        <ele>163.8</ele>
        <time>2024-12-30T12:43:56.954Z</time>
      </trkpt>
      <trkpt lat="48.62993" lon="2.03169">
        <ele>163.5</ele>
        <time>2024-12-30T12:44:00.082Z</time>
      </trkpt>
      <trkpt lat="48.62989" lon="2.03163">
        <ele>163.2</ele>
        <time>2024-12-30T12:44:03.210Z</time>
      </trkpt>
      <trkpt lat="48.62985" lon="2.03158">
        <ele>162.9</ele>
        <time>2024-12-30T12:44:06.338Z</time>
      </trkpt>
      <trkpt lat="48.62981" lon="2.03153">
        <ele>162.6</ele>
        <time>2024-12-30T12:44:09.467Z</time>
      </trkpt>
      <trkpt lat="48.62976" lon="2.03147">
        <ele>162.3</ele>
        <time>2024-12-30T12:44:12.596Z</time>
      </trkpt>
      <trkpt lat="48.62972" lon="2.03142">
        <ele>162</ele>
        <time>2024-12-30T12:44:15.725Z</time>
      </trkpt>
      <trkpt lat="48.62968" lon="2.03136">
        <ele>161.9</ele>
        <time>2024-12-30T12:44:18.854Z</time>
      </trkpt>
      <trkpt lat="48.62964" lon="2.03131">
        <ele>161.7</ele>
        <time>2024-12-30T12:44:21.984Z</time>
      </trkpt>
      <trkpt lat="48.6296" lon="2.03129">
        <ele>161.5</ele>
        <time>2024-12-30T12:44:24.729Z</time>
      </trkpt>
      <trkpt lat="48.62955" lon="2.03126">
        <ele>161.4</ele>
        <time>2024-12-30T12:44:27.474Z</time>
      </trkpt>
      <trkpt lat="48.62951" lon="2.03124">
        <ele>161.2</ele>
        <time>2024-12-30T12:44:30.219Z</time>
      </trkpt>
      <trkpt lat="48.62947" lon="2.03122">
        <ele>161.1</ele>
        <time>2024-12-30T12:44:32.964Z</time>
      </trkpt>
      <trkpt lat="48.62943" lon="2.03119">
        <ele>160.9</ele>
        <time>2024-12-30T12:44:35.709Z</time>
      </trkpt>
      <trkpt lat="48.62938" lon="2.03117">
        <ele>160.8</ele>
        <time>2024-12-30T12:44:38.454Z</time>
      </trkpt>
      <trkpt lat="48.62934" lon="2.03114">
        <ele>160.6</ele>
        <time>2024-12-30T12:44:41.199Z</time>
      </trkpt>
      <trkpt lat="48.6293" lon="2.03112">
        <ele>160.5</ele>
        <time>2024-12-30T12:44:43.944Z</time>
      </trkpt>
      <trkpt lat="48.62926" lon="2.0311">
        <ele>160.3</ele>
        <time>2024-12-30T12:44:46.689Z</time>
      </trkpt>
      <trkpt lat="48.62921" lon="2.03107">
        <ele>160.2</ele>
        <time>2024-12-30T12:44:49.434Z</time>
      </trkpt>
      <trkpt lat="48.62917" lon="2.03105">
        <ele>160</ele>
        <time>2024-12-30T12:44:52.179Z</time>
      </trkpt>
      <trkpt lat="48.62913" lon="2.03103">
        <ele>159.9</ele>
        <time>2024-12-30T12:44:54.924Z</time>
      </trkpt>
      <trkpt lat="48.62908" lon="2.031">
        <ele>159.8</ele>
        <time>2024-12-30T12:44:57.669Z</time>
      </trkpt>
      <trkpt lat="48.62904" lon="2.03098">
        <ele>159.8</ele>
        <time>2024-12-30T12:45:00.414Z</time>
      </trkpt>
      <trkpt lat="48.629" lon="2.03095">
        <ele>159.7</ele>
        <time>2024-12-30T12:45:03.159Z</time>
      </trkpt>
      <trkpt lat="48.62896" lon="2.03093">
        <ele>159.7</ele>
        <time>2024-12-30T12:45:05.904Z</time>
      </trkpt>
      <trkpt lat="48.62891" lon="2.03091">
        <ele>159.8</ele>
        <time>2024-12-30T12:45:08.649Z</time>
      </trkpt>
      <trkpt lat="48.62887" lon="2.03088">
        <ele>159.8</ele>
        <time>2024-12-30T12:45:11.394Z</time>
      </trkpt>
      <trkpt lat="48.62883" lon="2.03086">
        <ele>159.7</ele>
        <time>2024-12-30T12:45:14.139Z</time>
      </trkpt>
      <trkpt lat="48.62878" lon="2.03084">
        <ele>159.6</ele>
        <time>2024-12-30T12:45:16.884Z</time>
      </trkpt>
      <trkpt lat="48.62874" lon="2.03081">
        <ele>159.5</ele>
        <time>2024-12-30T12:45:19.630Z</time>
      </trkpt>
      <trkpt lat="48.6287" lon="2.03079">
        <ele>159.3</ele>
        <time>2024-12-30T12:45:22.376Z</time>
      </trkpt>
      <trkpt lat="48.62866" lon="2.03076">
        <ele>159.2</ele>
        <time>2024-12-30T12:45:25.122Z</time>
      </trkpt>
      <trkpt lat="48.62861" lon="2.03074">
        <ele>159</ele>
        <time>2024-12-30T12:45:27.868Z</time>
      </trkpt>
      <trkpt lat="48.62857" lon="2.03072">
        <ele>158.9</ele>
        <time>2024-12-30T12:45:30.614Z</time>
      </trkpt>
      <trkpt lat="48.62853" lon="2.03069">
        <ele>158.7</ele>
        <time>2024-12-30T12:45:33.360Z</time>
      </trkpt>
      <trkpt lat="48.62848" lon="2.03067">
        <ele>158.5</ele>
        <time>2024-12-30T12:45:36.106Z</time>
      </trkpt>
      <trkpt lat="48.62844" lon="2.03065">
        <ele>158.4</ele>
        <time>2024-12-30T12:45:38.852Z</time>
      </trkpt>
      <trkpt lat="48.6284" lon="2.03062">
        <ele>158.2</ele>
        <time>2024-12-30T12:45:41.598Z</time>
      </trkpt>
      <trkpt lat="48.62836" lon="2.0306">
        <ele>158.1</ele>
        <time>2024-12-30T12:45:44.344Z</time>
      </trkpt>
      <trkpt lat="48.62831" lon="2.03057">
        <ele>157.9</ele>
        <time>2024-12-30T12:45:47.090Z</time>
      </trkpt>
      <trkpt lat="48.62827" lon="2.03055">
        <ele>157.5</ele>
        <time>2024-12-30T12:45:49.837Z</time>
      </trkpt>
      <trkpt lat="48.6282" lon="2.03048">
        <ele>157.1</ele>
        <time>2024-12-30T12:45:54.594Z</time>
      </trkpt>
      <trkpt lat="48.62814" lon="2.03041">
        <ele>156.6</ele>
        <time>2024-12-30T12:45:59.351Z</time>
      </trkpt>
      <trkpt lat="48.62807" lon="2.03033">
        <ele>156.1</ele>
        <time>2024-12-30T12:46:04.109Z</time>
      </trkpt>
      <trkpt lat="48.628" lon="2.03026">
        <ele>155.6</ele>
        <time>2024-12-30T12:46:08.868Z</time>
      </trkpt>
      <trkpt lat="48.62797" lon="2.0302">
        <ele>155.4</ele>
        <time>2024-12-30T12:46:11.854Z</time>
      </trkpt>
      <trkpt lat="48.62794" lon="2.03014">
        <ele>155.2</ele>
        <time>2024-12-30T12:46:14.840Z</time>
      </trkpt>
      <trkpt lat="48.62791" lon="2.03007">
        <ele>154.9</ele>
        <time>2024-12-30T12:46:17.827Z</time>
      </trkpt>
      <trkpt lat="48.62788" lon="2.03001">
        <ele>154.7</ele>
        <time>2024-12-30T12:46:20.814Z</time>
      </trkpt>
      <trkpt lat="48.62784" lon="2.02995">
        <ele>154.5</ele>
        <time>2024-12-30T12:46:23.801Z</time>
      </trkpt>
      <trkpt lat="48.62781" lon="2.02989">
        <ele>154.3</ele>
        <time>2024-12-30T12:46:26.788Z</time>
      </trkpt>
      <trkpt lat="48.62778" lon="2.02982">
        <ele>154</ele>
        <time>2024-12-30T12:46:29.775Z</time>
      </trkpt>
      <trkpt lat="48.62775" lon="2.02976">
        <ele>153.8</ele>
        <time>2024-12-30T12:46:32.763Z</time>
      </trkpt>
      <trkpt lat="48.62773" lon="2.02964">
        <ele>153.6</ele>
        <time>2024-12-30T12:46:37.750Z</time>
      </trkpt>
      <trkpt lat="48.6277" lon="2.02952">
        <ele>153.4</ele>
        <time>2024-12-30T12:46:42.737Z</time>
      </trkpt>
      <trkpt lat="48.62768" lon="2.0294">
        <ele>153.2</ele>
        <time>2024-12-30T12:46:47.725Z</time>
      </trkpt>
      <trkpt lat="48.62765" lon="2.02928">
        <ele>152.8</ele>
        <time>2024-12-30T12:46:52.714Z</time>
      </trkpt>
      <trkpt lat="48.62764" lon="2.02921">
        <ele>152.6</ele>
        <time>2024-12-30T12:46:55.632Z</time>
      </trkpt>
      <trkpt lat="48.62763" lon="2.02913">
        <ele>152.4</ele>
        <time>2024-12-30T12:46:58.550Z</time>
      </trkpt>
      <trkpt lat="48.62762" lon="2.02906">
        <ele>152.2</ele>
        <time>2024-12-30T12:47:01.468Z</time>
      </trkpt>
      <trkpt lat="48.62761" lon="2.02899">
        <ele>152</ele>
        <time>2024-12-30T12:47:04.386Z</time>
      </trkpt>
      <trkpt lat="48.6276" lon="2.02891">
        <ele>151.8</ele>
        <time>2024-12-30T12:47:07.304Z</time>
      </trkpt>
      <trkpt lat="48.62759" lon="2.02884">
        <ele>151.6</ele>
        <time>2024-12-30T12:47:10.222Z</time>
      </trkpt>
      <trkpt lat="48.62758" lon="2.02876">
        <ele>151.4</ele>
        <time>2024-12-30T12:47:13.140Z</time>
      </trkpt>
      <trkpt lat="48.62757" lon="2.02869">
        <ele>151.3</ele>
        <time>2024-12-30T12:47:16.060Z</time>
      </trkpt>
      <trkpt lat="48.62757" lon="2.02859">
        <ele>151.3</ele>
        <time>2024-12-30T12:47:20.376Z</time>
      </trkpt>
      <trkpt lat="48.62757" lon="2.02849">
        <ele>151.3</ele>
        <time>2024-12-30T12:47:24.692Z</time>
      </trkpt>
      <trkpt lat="48.62757" lon="2.02839">
        <ele>151.3</ele>
        <time>2024-12-30T12:47:29.008Z</time>
      </trkpt>
      <trkpt lat="48.62757" lon="2.02829">
        <ele>151.2</ele>
        <time>2024-12-30T12:47:33.324Z</time>
      </trkpt>
      <trkpt lat="48.62757" lon="2.02819">
        <ele>151.1</ele>
        <time>2024-12-30T12:47:37.640Z</time>
      </trkpt>
      <trkpt lat="48.62757" lon="2.02809">
        <ele>151</ele>
        <time>2024-12-30T12:47:41.956Z</time>
      </trkpt>
      <trkpt lat="48.62757" lon="2.02799">
        <ele>151.1</ele>
        <time>2024-12-30T12:47:46.272Z</time>
      </trkpt>
      <trkpt lat="48.62757" lon="2.02789">
        <ele>151.2</ele>
        <time>2024-12-30T12:47:50.589Z</time>
      </trkpt>
      <trkpt lat="48.62755" lon="2.0278">
        <ele>151.2</ele>
        <time>2024-12-30T12:47:55.597Z</time>
      </trkpt>
      <trkpt lat="48.62754" lon="2.02771">
        <ele>151.6</ele>
        <time>2024-12-30T12:48:00.605Z</time>
      </trkpt>
      <trkpt lat="48.62752" lon="2.02762">
        <ele>152.1</ele>
        <time>2024-12-30T12:48:05.613Z</time>
      </trkpt>
      <trkpt lat="48.6275" lon="2.02753">
        <ele>152.8</ele>
        <time>2024-12-30T12:48:10.623Z</time>
      </trkpt>
      <trkpt lat="48.62745" lon="2.02748">
        <ele>152.5</ele>
        <time>2024-12-30T12:48:14.067Z</time>
      </trkpt>
      <trkpt lat="48.6274" lon="2.02751">
        <ele>151.9</ele>
        <time>2024-12-30T12:48:17.093Z</time>
      </trkpt>
      <trkpt lat="48.62735" lon="2.02753">
        <ele>151.3</ele>
        <time>2024-12-30T12:48:20.120Z</time>
      </trkpt>
      <trkpt lat="48.62733" lon="2.02754">
        <ele>151.1</ele>
        <time>2024-12-30T12:48:21.331Z</time>
      </trkpt>
      <trkpt lat="48.62728" lon="2.02756">
        <ele>150.7</ele>
        <time>2024-12-30T12:48:24.582Z</time>
      </trkpt>
      <trkpt lat="48.62722" lon="2.02758">
        <ele>150.3</ele>
        <time>2024-12-30T12:48:27.833Z</time>
        <extensions>
          <visugpx:TrkExtension xmlns:visugpx="https://www.visugpx.com/editgpx/">
            <visugpx:node>15</visugpx:node>
            </visugpx:TrkExtension>
        </extensions>
      </trkpt>
      <trkpt lat="48.62716" lon="2.0276">
        <ele>150.2</ele>
        <time>2024-12-30T12:48:32.840Z</time>
      </trkpt>
      <trkpt lat="48.62709" lon="2.02762">
        <ele>150.2</ele>
        <time>2024-12-30T12:48:37.847Z</time>
      </trkpt>
      <trkpt lat="48.62703" lon="2.02764">
        <ele>150.2</ele>
        <time>2024-12-30T12:48:42.855Z</time>
      </trkpt>
      <trkpt lat="48.62696" lon="2.02767">
        <ele>150.2</ele>
        <time>2024-12-30T12:48:47.863Z</time>
      </trkpt>
      <trkpt lat="48.6269" lon="2.02769">
        <ele>150.7</ele>
        <time>2024-12-30T12:48:52.871Z</time>
      </trkpt>
      <trkpt lat="48.62683" lon="2.02771">
        <ele>151.3</ele>
        <time>2024-12-30T12:48:57.879Z</time>
      </trkpt>
      <trkpt lat="48.62677" lon="2.02773">
        <ele>151.9</ele>
        <time>2024-12-30T12:49:02.887Z</time>
      </trkpt>
      <trkpt lat="48.6267" lon="2.02775">
        <ele>152.6</ele>
        <time>2024-12-30T12:49:07.896Z</time>
      </trkpt>
      <trkpt lat="48.62663" lon="2.02777">
        <ele>153.2</ele>
        <time>2024-12-30T12:49:14.046Z</time>
      </trkpt>
      <trkpt lat="48.62657" lon="2.02779">
        <ele>153.7</ele>
        <time>2024-12-30T12:49:18.892Z</time>
      </trkpt>
      <trkpt lat="48.62652" lon="2.0278">
        <ele>154.1</ele>
        <time>2024-12-30T12:49:23.738Z</time>
      </trkpt>
      <trkpt lat="48.62646" lon="2.02782">
        <ele>154.5</ele>
        <time>2024-12-30T12:49:28.585Z</time>
      </trkpt>
      <trkpt lat="48.6264" lon="2.02783">
        <ele>154.9</ele>
        <time>2024-12-30T12:49:33.432Z</time>
      </trkpt>
      <trkpt lat="48.62634" lon="2.02783">
        <ele>155.4</ele>
        <time>2024-12-30T12:49:38.596Z</time>
        <extensions>
          <visugpx:TrkExtension xmlns:visugpx="https://www.visugpx.com/editgpx/">
            <visugpx:node>16</visugpx:node>
            </visugpx:TrkExtension>
        </extensions>
      </trkpt>
      <trkpt lat="48.62626" lon="2.02782">
        <ele>155.9</ele>
        <time>2024-12-30T12:49:44.622Z</time>
      </trkpt>
      <trkpt lat="48.62619" lon="2.02781">
        <ele>156.5</ele>
        <time>2024-12-30T12:49:50.648Z</time>
      </trkpt>
      <trkpt lat="48.62611" lon="2.02779">
        <ele>157</ele>
        <time>2024-12-30T12:49:56.675Z</time>
      </trkpt>
      <trkpt lat="48.62603" lon="2.02778">
        <ele>157</ele>
        <time>2024-12-30T12:50:02.702Z</time>
        <extensions>
          <visugpx:TrkExtension xmlns:visugpx="https://www.visugpx.com/editgpx/">
            <visugpx:node>17</visugpx:node>
            </visugpx:TrkExtension>
        </extensions>
      </trkpt>
      <trkpt lat="48.62602" lon="2.02778">
        <ele>157</ele>
        <time>2024-12-30T12:50:03.359Z</time>
      </trkpt>
      <trkpt lat="48.62595" lon="2.02774">
        <ele>156.9</ele>
        <time>2024-12-30T12:50:07.862Z</time>
      </trkpt>
      <trkpt lat="48.62588" lon="2.02769">
        <ele>156.7</ele>
        <time>2024-12-30T12:50:12.365Z</time>
      </trkpt>
      <trkpt lat="48.6258" lon="2.02765">
        <ele>156.3</ele>
        <time>2024-12-30T12:50:16.869Z</time>
      </trkpt>
      <trkpt lat="48.62573" lon="2.0276">
        <ele>155.6</ele>
        <time>2024-12-30T12:50:21.374Z</time>
        <extensions>
          <visugpx:TrkExtension xmlns:visugpx="https://www.visugpx.com/editgpx/">
            <visugpx:node>18</visugpx:node>
            </visugpx:TrkExtension>
        </extensions>
      </trkpt>
      <trkpt lat="48.6257" lon="2.02758">
        <ele>155.3</ele>
        <time>2024-12-30T12:50:23.258Z</time>
      </trkpt>
      <trkpt lat="48.62568" lon="2.02758">
        <ele>155.2</ele>
        <time>2024-12-30T12:50:24.408Z</time>
      </trkpt>
      <trkpt lat="48.62565" lon="2.02757">
        <ele>154.9</ele>
        <time>2024-12-30T12:50:26.173Z</time>
      </trkpt>
      <trkpt lat="48.6256" lon="2.02754">
        <ele>154.4</ele>
        <time>2024-12-30T12:50:29.339Z</time>
      </trkpt>
      <trkpt lat="48.62555" lon="2.0275">
        <ele>153.9</ele>
        <time>2024-12-30T12:50:32.506Z</time>
        <extensions>
          <visugpx:TrkExtension xmlns:visugpx="https://www.visugpx.com/editgpx/">
            <visugpx:node>19</visugpx:node>
            </visugpx:TrkExtension>
        </extensions>
      </trkpt>
      <trkpt lat="48.62549" lon="2.02746">
        <ele>153</ele>
        <time>2024-12-30T12:50:36.274Z</time>
      </trkpt>
      <trkpt lat="48.62542" lon="2.02745">
        <ele>152.1</ele>
        <time>2024-12-30T12:50:40.479Z</time>
      </trkpt>
      <trkpt lat="48.62535" lon="2.02743">
        <ele>151.2</ele>
        <time>2024-12-30T12:50:44.684Z</time>
      </trkpt>
      <trkpt lat="48.62527" lon="2.02742">
        <ele>150.3</ele>
        <time>2024-12-30T12:50:48.890Z</time>
      </trkpt>
      <trkpt lat="48.6252" lon="2.0274">
        <ele>149.4</ele>
        <time>2024-12-30T12:50:53.096Z</time>
      </trkpt>
      <trkpt lat="48.62511" lon="2.02739">
        <ele>148.5</ele>
        <time>2024-12-30T12:50:58.061Z</time>
      </trkpt>
      <trkpt lat="48.62503" lon="2.02739">
        <ele>147.5</ele>
        <time>2024-12-30T12:51:03.026Z</time>
      </trkpt>
      <trkpt lat="48.62494" lon="2.02738">
        <ele>146.6</ele>
        <time>2024-12-30T12:51:07.991Z</time>
      </trkpt>
      <trkpt lat="48.62486" lon="2.02737">
        <ele>145.7</ele>
        <time>2024-12-30T12:51:12.956Z</time>
      </trkpt>
      <trkpt lat="48.62477" lon="2.02736">
        <ele>144.9</ele>
        <time>2024-12-30T12:51:17.921Z</time>
      </trkpt>
      <trkpt lat="48.62468" lon="2.02736">
        <ele>144.2</ele>
        <time>2024-12-30T12:51:22.886Z</time>
      </trkpt>
      <trkpt lat="48.6246" lon="2.02735">
        <ele>143.5</ele>
        <time>2024-12-30T12:51:27.852Z</time>
      </trkpt>
      <trkpt lat="48.62451" lon="2.02734">
        <ele>142.9</ele>
        <time>2024-12-30T12:51:32.818Z</time>
        <extensions>
          <visugpx:TrkExtension xmlns:visugpx="https://www.visugpx.com/editgpx/">
            <visugpx:node>20</visugpx:node>
            </visugpx:TrkExtension>
        </extensions>
      </trkpt>
      <trkpt lat="48.62447" lon="2.02734">
        <ele>142.6</ele>
        <time>2024-12-30T12:51:35.406Z</time>
      </trkpt>
      <trkpt lat="48.62442" lon="2.02734">
        <ele>142.3</ele>
        <time>2024-12-30T12:51:37.994Z</time>
      </trkpt>
      <trkpt lat="48.62438" lon="2.02733">
        <ele>142</ele>
        <time>2024-12-30T12:51:40.582Z</time>
      </trkpt>
      <trkpt lat="48.62433" lon="2.02733">
        <ele>141.7</ele>
        <time>2024-12-30T12:51:43.170Z</time>
      </trkpt>
      <trkpt lat="48.62428" lon="2.02733">
        <ele>141.4</ele>
        <time>2024-12-30T12:51:46.151Z</time>
      </trkpt>
      <trkpt lat="48.62423" lon="2.02733">
        <ele>141.1</ele>
        <time>2024-12-30T12:51:49.132Z</time>
      </trkpt>
      <trkpt lat="48.62417" lon="2.02733">
        <ele>140.8</ele>
        <time>2024-12-30T12:51:52.113Z</time>
      </trkpt>
      <trkpt lat="48.62412" lon="2.02733">
        <ele>140.6</ele>
        <time>2024-12-30T12:51:55.094Z</time>
      </trkpt>
      <trkpt lat="48.62407" lon="2.02733">
        <ele>140.4</ele>
        <time>2024-12-30T12:51:58.075Z</time>
      </trkpt>
      <trkpt lat="48.62402" lon="2.02733">
        <ele>140.2</ele>
        <time>2024-12-30T12:52:01.056Z</time>
      </trkpt>
      <trkpt lat="48.62397" lon="2.02733">
        <ele>140.1</ele>
        <time>2024-12-30T12:52:04.037Z</time>
      </trkpt>
      <trkpt lat="48.62392" lon="2.02733">
        <ele>139.9</ele>
        <time>2024-12-30T12:52:07.018Z</time>
      </trkpt>
      <trkpt lat="48.62386" lon="2.02733">
        <ele>139.7</ele>
        <time>2024-12-30T12:52:09.999Z</time>
      </trkpt>
      <trkpt lat="48.62381" lon="2.02733">
        <ele>139.5</ele>
        <time>2024-12-30T12:52:12.980Z</time>
      </trkpt>
      <trkpt lat="48.62376" lon="2.02733">
        <ele>139.3</ele>
        <time>2024-12-30T12:52:15.962Z</time>
      </trkpt>
      <trkpt lat="48.62371" lon="2.02733">
        <ele>139.1</ele>
        <time>2024-12-30T12:52:18.944Z</time>
      </trkpt>
      <trkpt lat="48.62366" lon="2.02733">
        <ele>138.9</ele>
        <time>2024-12-30T12:52:21.926Z</time>
      </trkpt>
      <trkpt lat="48.6236" lon="2.02733">
        <ele>138.7</ele>
        <time>2024-12-30T12:52:24.908Z</time>
      </trkpt>
      <trkpt lat="48.62355" lon="2.02733">
        <ele>138.4</ele>
        <time>2024-12-30T12:52:27.890Z</time>
      </trkpt>
      <trkpt lat="48.6235" lon="2.02733">
        <ele>138</ele>
        <time>2024-12-30T12:52:30.872Z</time>
      </trkpt>
      <trkpt lat="48.62343" lon="2.02734">
        <ele>137.5</ele>
        <time>2024-12-30T12:52:34.899Z</time>
      </trkpt>
      <trkpt lat="48.62336" lon="2.02734">
        <ele>137</ele>
        <time>2024-12-30T12:52:38.927Z</time>
      </trkpt>
      <trkpt lat="48.62335" lon="2.02734">
        <ele>137</ele>
        <time>2024-12-30T12:52:39.584Z</time>
        <extensions>
          <visugpx:TrkExtension xmlns:visugpx="https://www.visugpx.com/editgpx/">
            <visugpx:node>21</visugpx:node>
            </visugpx:TrkExtension>
        </extensions>
      </trkpt>
      <trkpt lat="48.62329" lon="2.02736">
        <ele>136.6</ele>
        <time>2024-12-30T12:52:43.255Z</time>
      </trkpt>
      <trkpt lat="48.62323" lon="2.02738">
        <ele>136.1</ele>
        <time>2024-12-30T12:52:46.926Z</time>
      </trkpt>
      <trkpt lat="48.62316" lon="2.0274">
        <ele>135.7</ele>
        <time>2024-12-30T12:52:50.598Z</time>
      </trkpt>
      <trkpt lat="48.6231" lon="2.02742">
        <ele>135.1</ele>
        <time>2024-12-30T12:52:54.270Z</time>
      </trkpt>
      <trkpt lat="48.62302" lon="2.02744">
        <ele>134.6</ele>
        <time>2024-12-30T12:52:59.096Z</time>
      </trkpt>
      <trkpt lat="48.62294" lon="2.02747">
        <ele>134.4</ele>
        <time>2024-12-30T12:53:03.922Z</time>
      </trkpt>
      <trkpt lat="48.62286" lon="2.02749">
        <ele>134.2</ele>
        <time>2024-12-30T12:53:08.749Z</time>
      </trkpt>
      <trkpt lat="48.62278" lon="2.02751">
        <ele>134</ele>
        <time>2024-12-30T12:53:13.577Z</time>
      </trkpt>
      <trkpt lat="48.62271" lon="2.02752">
        <ele>133.5</ele>
        <time>2024-12-30T12:53:17.892Z</time>
      </trkpt>
      <trkpt lat="48.62263" lon="2.02752">
        <ele>132.9</ele>
        <time>2024-12-30T12:53:22.207Z</time>
      </trkpt>
      <trkpt lat="48.62256" lon="2.0275">
        <ele>132.4</ele>
        <time>2024-12-30T12:53:26.301Z</time>
      </trkpt>
      <trkpt lat="48.62249" lon="2.02748">
        <ele>131.9</ele>
        <time>2024-12-30T12:53:30.395Z</time>
        <extensions>
          <visugpx:TrkExtension xmlns:visugpx="https://www.visugpx.com/editgpx/">
            <visugpx:node>22</visugpx:node>
            </visugpx:TrkExtension>
        </extensions>
      </trkpt>
      <trkpt lat="48.62245" lon="2.02747">
        <ele>131.5</ele>
        <time>2024-12-30T12:53:32.725Z</time>
      </trkpt>
      <trkpt lat="48.62237" lon="2.02743">
        <ele>130.8</ele>
        <time>2024-12-30T12:53:37.568Z</time>
      </trkpt>
      <trkpt lat="48.62232" lon="2.02738">
        <ele>130.3</ele>
        <time>2024-12-30T12:53:41.120Z</time>
      </trkpt>
      <trkpt lat="48.62227" lon="2.02732">
        <ele>129.7</ele>
        <time>2024-12-30T12:53:44.674Z</time>
      </trkpt>
      <trkpt lat="48.62223" lon="2.02725">
        <ele>129.1</ele>
        <time>2024-12-30T12:53:48.334Z</time>
      </trkpt>
      <trkpt lat="48.62219" lon="2.02717">
        <ele>128.9</ele>
        <time>2024-12-30T12:53:51.996Z</time>
      </trkpt>
      <trkpt lat="48.62217" lon="2.02712">
        <ele>128.8</ele>
        <time>2024-12-30T12:53:54.342Z</time>
        <extensions>
          <visugpx:TrkExtension xmlns:visugpx="https://www.visugpx.com/editgpx/">
            <visugpx:node>23</visugpx:node>
            </visugpx:TrkExtension>
        </extensions>
      </trkpt>
      <trkpt lat="48.62217" lon="2.0271">
        <ele>128.8</ele>
        <time>2024-12-30T12:53:55.210Z</time>
      </trkpt>
      <trkpt lat="48.62214" lon="2.02706">
        <ele>128.7</ele>
        <time>2024-12-30T12:53:57.645Z</time>
      </trkpt>
      <trkpt lat="48.62207" lon="2.02705">
        <ele>128.5</ele>
        <time>2024-12-30T12:54:01.882Z</time>
        <extensions>
          <visugpx:TrkExtension xmlns:visugpx="https://www.visugpx.com/editgpx/">
            <visugpx:node>24</visugpx:node>
            </visugpx:TrkExtension>
        </extensions>
      </trkpt>
      <trkpt lat="48.62207" lon="2.02705">
        <ele>128.5</ele>
        <time>2024-12-30T12:54:01.882Z</time>
      </trkpt>
      <trkpt lat="48.62205" lon="2.02707">
        <ele>128.4</ele>
        <time>2024-12-30T12:54:03.272Z</time>
      </trkpt>
      <trkpt lat="48.62198" lon="2.02707">
        <ele>128.1</ele>
        <time>2024-12-30T12:54:07.315Z</time>
      </trkpt>
      <trkpt lat="48.62191" lon="2.02707">
        <ele>127.8</ele>
        <time>2024-12-30T12:54:11.359Z</time>
      </trkpt>
      <trkpt lat="48.62187" lon="2.02706">
        <ele>127.6</ele>
        <time>2024-12-30T12:54:13.689Z</time>
        <extensions>
          <visugpx:TrkExtension xmlns:visugpx="https://www.visugpx.com/editgpx/">
            <visugpx:node>25</visugpx:node>
            </visugpx:TrkExtension>
        </extensions>
      </trkpt>
      <trkpt lat="48.62179" lon="2.02704">
        <ele>127.1</ele>
        <time>2024-12-30T12:54:18.243Z</time>
      </trkpt>
      <trkpt lat="48.62172" lon="2.02701">
        <ele>126.5</ele>
        <time>2024-12-30T12:54:22.797Z</time>
      </trkpt>
      <trkpt lat="48.62164" lon="2.02699">
        <ele>126.1</ele>
        <time>2024-12-30T12:54:27.351Z</time>
      </trkpt>
      <trkpt lat="48.62156" lon="2.02696">
        <ele>126</ele>
        <time>2024-12-30T12:54:31.906Z</time>
      </trkpt>
      <trkpt lat="48.62149" lon="2.02694">
        <ele>126</ele>
        <time>2024-12-30T12:54:36.250Z</time>
      </trkpt>
      <trkpt lat="48.62142" lon="2.02693">
        <ele>125.9</ele>
        <time>2024-12-30T12:54:40.594Z</time>
      </trkpt>
      <trkpt lat="48.62135" lon="2.02691">
        <ele>125.7</ele>
        <time>2024-12-30T12:54:44.939Z</time>
      </trkpt>
      <trkpt lat="48.62128" lon="2.0269">
        <ele>125.4</ele>
        <time>2024-12-30T12:54:49.284Z</time>
      </trkpt>
      <trkpt lat="48.62121" lon="2.02688">
        <ele>125.1</ele>
        <time>2024-12-30T12:54:53.629Z</time>
      </trkpt>
      <trkpt lat="48.62114" lon="2.02686">
        <ele>124.8</ele>
        <time>2024-12-30T12:54:57.974Z</time>
      </trkpt>
      <trkpt lat="48.62107" lon="2.02685">
        <ele>124.5</ele>
        <time>2024-12-30T12:55:02.319Z</time>
      </trkpt>
      <trkpt lat="48.621" lon="2.02683">
        <ele>124.2</ele>
        <time>2024-12-30T12:55:06.664Z</time>
      </trkpt>
      <trkpt lat="48.62092" lon="2.02681">
        <ele>123.9</ele>
        <time>2024-12-30T12:55:11.009Z</time>
      </trkpt>
      <trkpt lat="48.62085" lon="2.0268">
        <ele>123.5</ele>
        <time>2024-12-30T12:55:15.354Z</time>
      </trkpt>
      <trkpt lat="48.62078" lon="2.02678">
        <ele>123.4</ele>
        <time>2024-12-30T12:55:19.699Z</time>
      </trkpt>
      <trkpt lat="48.62071" lon="2.02677">
        <ele>123.4</ele>
        <time>2024-12-30T12:55:24.044Z</time>
      </trkpt>
      <trkpt lat="48.62064" lon="2.02675">
        <ele>123.3</ele>
        <time>2024-12-30T12:55:28.389Z</time>
      </trkpt>
      <trkpt lat="48.62057" lon="2.02673">
        <ele>123.2</ele>
        <time>2024-12-30T12:55:32.734Z</time>
      </trkpt>
      <trkpt lat="48.6205" lon="2.02672">
        <ele>123.2</ele>
        <time>2024-12-30T12:55:37.079Z</time>
      </trkpt>
      <trkpt lat="48.62043" lon="2.0267">
        <ele>123.1</ele>
        <time>2024-12-30T12:55:41.425Z</time>
      </trkpt>
      <trkpt lat="48.62037" lon="2.02667">
        <ele>123</ele>
        <time>2024-12-30T12:55:45.406Z</time>
      </trkpt>
      <trkpt lat="48.62031" lon="2.02663">
        <ele>122.9</ele>
        <time>2024-12-30T12:55:49.387Z</time>
      </trkpt>
      <trkpt lat="48.62025" lon="2.0266">
        <ele>122.7</ele>
        <time>2024-12-30T12:55:53.368Z</time>
      </trkpt>
      <trkpt lat="48.62019" lon="2.02656">
        <ele>122.6</ele>
        <time>2024-12-30T12:55:57.349Z</time>
      </trkpt>
      <trkpt lat="48.62013" lon="2.02653">
        <ele>122.5</ele>
        <time>2024-12-30T12:56:01.330Z</time>
      </trkpt>
      <trkpt lat="48.62007" lon="2.02649">
        <ele>122.4</ele>
        <time>2024-12-30T12:56:05.311Z</time>
      </trkpt>
      <trkpt lat="48.62001" lon="2.02646">
        <ele>122.2</ele>
        <time>2024-12-30T12:56:09.292Z</time>
      </trkpt>
      <trkpt lat="48.61995" lon="2.02642">
        <ele>122.1</ele>
        <time>2024-12-30T12:56:13.275Z</time>
      </trkpt>
      <trkpt lat="48.61988" lon="2.02638">
        <ele>122</ele>
        <time>2024-12-30T12:56:17.881Z</time>
      </trkpt>
      <trkpt lat="48.61981" lon="2.02633">
        <ele>121.9</ele>
        <time>2024-12-30T12:56:22.487Z</time>
      </trkpt>
      <trkpt lat="48.61974" lon="2.02629">
        <ele>121.7</ele>
        <time>2024-12-30T12:56:27.093Z</time>
      </trkpt>
      <trkpt lat="48.61968" lon="2.02624">
        <ele>121.4</ele>
        <time>2024-12-30T12:56:31.699Z</time>
      </trkpt>
      <trkpt lat="48.61961" lon="2.0262">
        <ele>121.2</ele>
        <time>2024-12-30T12:56:36.306Z</time>
      </trkpt>
      <trkpt lat="48.61954" lon="2.02615">
        <ele>121</ele>
        <time>2024-12-30T12:56:40.913Z</time>
      </trkpt>
      <trkpt lat="48.61947" lon="2.02611">
        <ele>121</ele>
        <time>2024-12-30T12:56:45.520Z</time>
      </trkpt>
      <trkpt lat="48.6194" lon="2.02606">
        <ele>120.8</ele>
        <time>2024-12-30T12:56:50.128Z</time>
      </trkpt>
      <trkpt lat="48.61938" lon="2.02609">
        <ele>120.8</ele>
        <time>2024-12-30T12:56:51.978Z</time>
        <extensions>
          <visugpx:TrkExtension xmlns:visugpx="https://www.visugpx.com/editgpx/">
            <visugpx:node>26</visugpx:node>
            </visugpx:TrkExtension>
        </extensions>
      </trkpt>
      <trkpt lat="48.61934" lon="2.02617">
        <ele>120.7</ele>
        <time>2024-12-30T12:56:56.062Z</time>
      </trkpt>
      <trkpt lat="48.6193" lon="2.02624">
        <ele>120.7</ele>
        <time>2024-12-30T12:57:00.147Z</time>
      </trkpt>
      <trkpt lat="48.61924" lon="2.02633">
        <ele>120.8</ele>
        <time>2024-12-30T12:57:06.105Z</time>
      </trkpt>
      <trkpt lat="48.61917" lon="2.02641">
        <ele>121</ele>
        <time>2024-12-30T12:57:12.065Z</time>
      </trkpt>
      <trkpt lat="48.61912" lon="2.0265">
        <ele>120.8</ele>
        <time>2024-12-30T12:57:16.714Z</time>
      </trkpt>
      <trkpt lat="48.61907" lon="2.02658">
        <ele>120.7</ele>
        <time>2024-12-30T12:57:21.364Z</time>
      </trkpt>
      <trkpt lat="48.61901" lon="2.02666">
        <ele>120.5</ele>
        <time>2024-12-30T12:57:25.992Z</time>
      </trkpt>
      <trkpt lat="48.61896" lon="2.02674">
        <ele>120.2</ele>
        <time>2024-12-30T12:57:30.621Z</time>
      </trkpt>
      <trkpt lat="48.6189" lon="2.02682">
        <ele>120</ele>
        <time>2024-12-30T12:57:35.250Z</time>
      </trkpt>
      <trkpt lat="48.61885" lon="2.0269">
        <ele>119.8</ele>
        <time>2024-12-30T12:57:39.879Z</time>
      </trkpt>
      <trkpt lat="48.61879" lon="2.02697">
        <ele>119.6</ele>
        <time>2024-12-30T12:57:44.508Z</time>
      </trkpt>
      <trkpt lat="48.61873" lon="2.02705">
        <ele>119.4</ele>
        <time>2024-12-30T12:57:49.137Z</time>
      </trkpt>
      <trkpt lat="48.61868" lon="2.02713">
        <ele>119.2</ele>
        <time>2024-12-30T12:57:53.766Z</time>
      </trkpt>
      <trkpt lat="48.61862" lon="2.02721">
        <ele>119</ele>
        <time>2024-12-30T12:57:58.396Z</time>
      </trkpt>
      <trkpt lat="48.61859" lon="2.02718">
        <ele>118.9</ele>
        <time>2024-12-30T12:58:00.568Z</time>
        <extensions>
          <visugpx:TrkExtension xmlns:visugpx="https://www.visugpx.com/editgpx/">
            <visugpx:node>27</visugpx:node>
            </visugpx:TrkExtension>
        </extensions>
      </trkpt>
      <trkpt lat="48.61862" lon="2.02721">
        <ele>119</ele>
        <time>2024-12-30T12:58:03.145Z</time>
      </trkpt>
      <trkpt lat="48.61858" lon="2.02727">
        <ele>119</ele>
        <time>2024-12-30T12:58:06.866Z</time>
      </trkpt>
      <trkpt lat="48.61853" lon="2.02732">
        <ele>119.1</ele>
        <time>2024-12-30T12:58:10.587Z</time>
      </trkpt>
      <trkpt lat="48.61849" lon="2.02738">
        <ele>119.1</ele>
        <time>2024-12-30T12:58:14.308Z</time>
      </trkpt>
      <trkpt lat="48.61845" lon="2.02744">
        <ele>119.2</ele>
        <time>2024-12-30T12:58:18.029Z</time>
      </trkpt>
      <trkpt lat="48.6184" lon="2.02749">
        <ele>119.2</ele>
        <time>2024-12-30T12:58:21.750Z</time>
      </trkpt>
      <trkpt lat="48.61836" lon="2.02755">
        <ele>119.1</ele>
        <time>2024-12-30T12:58:25.471Z</time>
      </trkpt>
      <trkpt lat="48.61831" lon="2.0276">
        <ele>118.9</ele>
        <time>2024-12-30T12:58:29.192Z</time>
      </trkpt>
      <trkpt lat="48.61827" lon="2.02766">
        <ele>118.8</ele>
        <time>2024-12-30T12:58:32.915Z</time>
      </trkpt>
      <trkpt lat="48.61821" lon="2.02775">
        <ele>118.6</ele>
        <time>2024-12-30T12:58:38.080Z</time>
        <extensions>
          <visugpx:TrkExtension xmlns:visugpx="https://www.visugpx.com/editgpx/">
            <visugpx:node>28</visugpx:node>
            </visugpx:TrkExtension>
        </extensions>
      </trkpt>
      <trkpt lat="48.61815" lon="2.02783">
        <ele>118.4</ele>
        <time>2024-12-30T12:58:42.949Z</time>
      </trkpt>
      <trkpt lat="48.61809" lon="2.02791">
        <ele>118.2</ele>
        <time>2024-12-30T12:58:47.820Z</time>
      </trkpt>
      <trkpt lat="48.61805" lon="2.02796">
        <ele>118</ele>
        <time>2024-12-30T12:58:51.090Z</time>
      </trkpt>
      <trkpt lat="48.61801" lon="2.02801">
        <ele>117.8</ele>
        <time>2024-12-30T12:58:54.360Z</time>
      </trkpt>
      <trkpt lat="48.61797" lon="2.02807">
        <ele>117.7</ele>
        <time>2024-12-30T12:58:57.630Z</time>
      </trkpt>
      <trkpt lat="48.61793" lon="2.02812">
        <ele>117.8</ele>
        <time>2024-12-30T12:59:00.900Z</time>
      </trkpt>
      <trkpt lat="48.61789" lon="2.02817">
        <ele>117.8</ele>
        <time>2024-12-30T12:59:04.170Z</time>
      </trkpt>
      <trkpt lat="48.61785" lon="2.02822">
        <ele>117.9</ele>
        <time>2024-12-30T12:59:07.441Z</time>
      </trkpt>
      <trkpt lat="48.61781" lon="2.02827">
        <ele>117.9</ele>
        <time>2024-12-30T12:59:10.712Z</time>
      </trkpt>
      <trkpt lat="48.61778" lon="2.02833">
        <ele>118</ele>
        <time>2024-12-30T12:59:13.983Z</time>
      </trkpt>
      <trkpt lat="48.61774" lon="2.02838">
        <ele>117.8</ele>
        <time>2024-12-30T12:59:17.254Z</time>
      </trkpt>
      <trkpt lat="48.6177" lon="2.02843">
        <ele>117.7</ele>
        <time>2024-12-30T12:59:20.525Z</time>
      </trkpt>
      <trkpt lat="48.61766" lon="2.02848">
        <ele>117.6</ele>
        <time>2024-12-30T12:59:23.796Z</time>
      </trkpt>
      <trkpt lat="48.61762" lon="2.02853">
        <ele>117.4</ele>
        <time>2024-12-30T12:59:27.067Z</time>
      </trkpt>
      <trkpt lat="48.61758" lon="2.02858">
        <ele>117.3</ele>
        <time>2024-12-30T12:59:30.338Z</time>
      </trkpt>
      <trkpt lat="48.61754" lon="2.02864">
        <ele>117.1</ele>
        <time>2024-12-30T12:59:33.609Z</time>
      </trkpt>
      <trkpt lat="48.6175" lon="2.02869">
        <ele>117</ele>
        <time>2024-12-30T12:59:36.880Z</time>
      </trkpt>
      <trkpt lat="48.61746" lon="2.02874">
        <ele>116.9</ele>
        <time>2024-12-30T12:59:40.152Z</time>
      </trkpt>
      <trkpt lat="48.61741" lon="2.02885">
        <ele>116.7</ele>
        <time>2024-12-30T12:59:45.652Z</time>
      </trkpt>
      <trkpt lat="48.61736" lon="2.02897">
        <ele>116.5</ele>
        <time>2024-12-30T12:59:51.152Z</time>
      </trkpt>
      <trkpt lat="48.61731" lon="2.02908">
        <ele>116.3</ele>
        <time>2024-12-30T12:59:56.653Z</time>
      </trkpt>
      <trkpt lat="48.61726" lon="2.02919">
        <ele>116.1</ele>
        <time>2024-12-30T13:00:02.155Z</time>
        <extensions>
          <visugpx:TrkExtension xmlns:visugpx="https://www.visugpx.com/editgpx/">
            <visugpx:node>29</visugpx:node>
            </visugpx:TrkExtension>
        </extensions>
      </trkpt>
      <trkpt lat="48.61723" lon="2.02926">
        <ele>116</ele>
        <time>2024-12-30T13:00:05.582Z</time>
      </trkpt>
      <trkpt lat="48.61729" lon="2.02932">
        <ele>116.2</ele>
        <time>2024-12-30T13:00:10.737Z</time>
      </trkpt>
      <trkpt lat="48.61728" lon="2.02945">
        <ele>116.2</ele>
        <time>2024-12-30T13:00:16.892Z</time>
      </trkpt>
      <trkpt lat="48.61726" lon="2.02958">
        <ele>116.6</ele>
        <time>2024-12-30T13:00:23.048Z</time>
      </trkpt>
      <trkpt lat="48.61726" lon="2.02969">
        <ele>116.9</ele>
        <time>2024-12-30T13:00:27.938Z</time>
      </trkpt>
      <trkpt lat="48.61725" lon="2.0298">
        <ele>117</ele>
        <time>2024-12-30T13:00:32.828Z</time>
      </trkpt>
      <trkpt lat="48.61725" lon="2.02991">
        <ele>117</ele>
        <time>2024-12-30T13:00:37.718Z</time>
      </trkpt>
      <trkpt lat="48.61724" lon="2.03002">
        <ele>117</ele>
        <time>2024-12-30T13:00:42.608Z</time>
      </trkpt>
      <trkpt lat="48.61724" lon="2.03013">
        <ele>117</ele>
        <time>2024-12-30T13:00:47.498Z</time>
      </trkpt>
      <trkpt lat="48.61723" lon="2.03024">
        <ele>117</ele>
        <time>2024-12-30T13:00:52.388Z</time>
      </trkpt>
      <trkpt lat="48.61723" lon="2.03035">
        <ele>117</ele>
        <time>2024-12-30T13:00:57.278Z</time>
      </trkpt>
      <trkpt lat="48.61722" lon="2.03046">
        <ele>117</ele>
        <time>2024-12-30T13:01:02.170Z</time>
      </trkpt>
      <trkpt lat="48.61721" lon="2.03058">
        <ele>116.9</ele>
        <time>2024-12-30T13:01:07.452Z</time>
      </trkpt>
      <trkpt lat="48.6172" lon="2.03071">
        <ele>116.9</ele>
        <time>2024-12-30T13:01:12.734Z</time>
      </trkpt>
      <trkpt lat="48.61718" lon="2.03083">
        <ele>116.9</ele>
        <time>2024-12-30T13:01:18.016Z</time>
      </trkpt>
      <trkpt lat="48.61717" lon="2.03095">
        <ele>116.8</ele>
        <time>2024-12-30T13:01:23.298Z</time>
      </trkpt>
      <trkpt lat="48.61716" lon="2.03107">
        <ele>116.8</ele>
        <time>2024-12-30T13:01:28.580Z</time>
      </trkpt>
      <trkpt lat="48.61715" lon="2.0312">
        <ele>116.7</ele>
        <time>2024-12-30T13:01:33.862Z</time>
      </trkpt>
      <trkpt lat="48.61713" lon="2.03132">
        <ele>116.7</ele>
        <time>2024-12-30T13:01:39.145Z</time>
      </trkpt>
      <trkpt lat="48.61712" lon="2.03144">
        <ele>116.6</ele>
        <time>2024-12-30T13:01:44.429Z</time>
      </trkpt>
      <trkpt lat="48.61711" lon="2.03154">
        <ele>116.6</ele>
        <time>2024-12-30T13:01:48.685Z</time>
      </trkpt>
      <trkpt lat="48.61709" lon="2.03164">
        <ele>116.5</ele>
        <time>2024-12-30T13:01:52.941Z</time>
      </trkpt>
      <trkpt lat="48.61708" lon="2.03174">
        <ele>116.3</ele>
        <time>2024-12-30T13:01:57.198Z</time>
      </trkpt>
      <trkpt lat="48.61706" lon="2.03184">
        <ele>116.2</ele>
        <time>2024-12-30T13:02:01.456Z</time>
      </trkpt>
      <trkpt lat="48.61705" lon="2.03194">
        <ele>116</ele>
        <time>2024-12-30T13:02:05.468Z</time>
      </trkpt>
      <trkpt lat="48.61703" lon="2.03201">
        <ele>116</ele>
        <time>2024-12-30T13:02:08.768Z</time>
      </trkpt>
      <trkpt lat="48.61702" lon="2.03208">
        <ele>116</ele>
        <time>2024-12-30T13:02:12.068Z</time>
      </trkpt>
      <trkpt lat="48.617" lon="2.03215">
        <ele>116</ele>
        <time>2024-12-30T13:02:15.368Z</time>
      </trkpt>
      <trkpt lat="48.61698" lon="2.03223">
        <ele>116</ele>
        <time>2024-12-30T13:02:18.668Z</time>
      </trkpt>
      <trkpt lat="48.61696" lon="2.0323">
        <ele>116</ele>
        <time>2024-12-30T13:02:21.968Z</time>
      </trkpt>
      <trkpt lat="48.61695" lon="2.03237">
        <ele>116</ele>
        <time>2024-12-30T13:02:25.269Z</time>
      </trkpt>
      <trkpt lat="48.61693" lon="2.03244">
        <ele>116</ele>
        <time>2024-12-30T13:02:28.570Z</time>
      </trkpt>
      <trkpt lat="48.61691" lon="2.03251">
        <ele>116</ele>
        <time>2024-12-30T13:02:31.872Z</time>
      </trkpt>
      <trkpt lat="48.61689" lon="2.03258">
        <ele>116</ele>
        <time>2024-12-30T13:02:35.339Z</time>
      </trkpt>
      <trkpt lat="48.61686" lon="2.03265">
        <ele>116</ele>
        <time>2024-12-30T13:02:38.806Z</time>
      </trkpt>
      <trkpt lat="48.61684" lon="2.03272">
        <ele>116</ele>
        <time>2024-12-30T13:02:42.273Z</time>
      </trkpt>
      <trkpt lat="48.61682" lon="2.03279">
        <ele>116</ele>
        <time>2024-12-30T13:02:45.740Z</time>
      </trkpt>
      <trkpt lat="48.61679" lon="2.03286">
        <ele>116.1</ele>
        <time>2024-12-30T13:02:49.207Z</time>
      </trkpt>
      <trkpt lat="48.61677" lon="2.03293">
        <ele>116.2</ele>
        <time>2024-12-30T13:02:52.675Z</time>
      </trkpt>
      <trkpt lat="48.61674" lon="2.033">
        <ele>116.2</ele>
        <time>2024-12-30T13:02:56.143Z</time>
      </trkpt>
      <trkpt lat="48.61672" lon="2.03307">
        <ele>116.2</ele>
        <time>2024-12-30T13:02:59.612Z</time>
        <extensions>
          <visugpx:TrkExtension xmlns:visugpx="https://www.visugpx.com/editgpx/">
            <visugpx:node>30</visugpx:node>
            </visugpx:TrkExtension>
        </extensions>
      </trkpt>
      <trkpt lat="48.6167" lon="2.03315">
        <ele>116.4</ele>
        <time>2024-12-30T13:03:03.697Z</time>
      </trkpt>
      <trkpt lat="48.61667" lon="2.03322">
        <ele>116.6</ele>
        <time>2024-12-30T13:03:07.783Z</time>
      </trkpt>
      <trkpt lat="48.61664" lon="2.03332">
        <ele>116.9</ele>
        <time>2024-12-30T13:03:13.216Z</time>
      </trkpt>
      <trkpt lat="48.61661" lon="2.03339">
        <ele>116.8</ele>
        <time>2024-12-30T13:03:17.070Z</time>
      </trkpt>
      <trkpt lat="48.61658" lon="2.03347">
        <ele>116.8</ele>
        <time>2024-12-30T13:03:20.924Z</time>
      </trkpt>
      <trkpt lat="48.61654" lon="2.03354">
        <ele>116.9</ele>
        <time>2024-12-30T13:03:24.779Z</time>
      </trkpt>
      <trkpt lat="48.61651" lon="2.03361">
        <ele>117</ele>
        <time>2024-12-30T13:03:28.635Z</time>
      </trkpt>
      <trkpt lat="48.61655" lon="2.03367">
        <ele>117</ele>
        <time>2024-12-30T13:03:32.191Z</time>
      </trkpt>
      <trkpt lat="48.61658" lon="2.03374">
        <ele>117</ele>
        <time>2024-12-30T13:03:35.747Z</time>
      </trkpt>
      <trkpt lat="48.61662" lon="2.0338">
        <ele>117</ele>
        <time>2024-12-30T13:03:39.304Z</time>
      </trkpt>
      <trkpt lat="48.61665" lon="2.03386">
        <ele>117</ele>
        <time>2024-12-30T13:03:42.861Z</time>
      </trkpt>
      <trkpt lat="48.61665" lon="2.03395">
        <ele>117</ele>
        <time>2024-12-30T13:03:46.769Z</time>
      </trkpt>
      <trkpt lat="48.61665" lon="2.03408">
        <ele>117</ele>
        <time>2024-12-30T13:03:52.710Z</time>
      </trkpt>
      <trkpt lat="48.61664" lon="2.0342">
        <ele>117.1</ele>
        <time>2024-12-30T13:03:58.652Z</time>
      </trkpt>
      <trkpt lat="48.61664" lon="2.03433">
        <ele>117.6</ele>
        <time>2024-12-30T13:04:04.594Z</time>
      </trkpt>
      <trkpt lat="48.61664" lon="2.03446">
        <ele>118</ele>
        <time>2024-12-30T13:04:10.536Z</time>
      </trkpt>
      <trkpt lat="48.61663" lon="2.03458">
        <ele>118</ele>
        <time>2024-12-30T13:04:16.478Z</time>
      </trkpt>
      <trkpt lat="48.61663" lon="2.03471">
        <ele>118</ele>
        <time>2024-12-30T13:04:22.420Z</time>
      </trkpt>
      <trkpt lat="48.61662" lon="2.03483">
        <ele>118.3</ele>
        <time>2024-12-30T13:04:28.362Z</time>
      </trkpt>
      <trkpt lat="48.61662" lon="2.03496">
        <ele>118.7</ele>
        <time>2024-12-30T13:04:34.305Z</time>
      </trkpt>
      <trkpt lat="48.61662" lon="2.03503">
        <ele>118.8</ele>
        <time>2024-12-30T13:04:37.612Z</time>
      </trkpt>
      <trkpt lat="48.61662" lon="2.03511">
        <ele>118.8</ele>
        <time>2024-12-30T13:04:40.919Z</time>
      </trkpt>
      <trkpt lat="48.61663" lon="2.03518">
        <ele>118.9</ele>
        <time>2024-12-30T13:04:44.226Z</time>
      </trkpt>
      <trkpt lat="48.61663" lon="2.03525">
        <ele>118.9</ele>
        <time>2024-12-30T13:04:47.533Z</time>
      </trkpt>
      <trkpt lat="48.61663" lon="2.03532">
        <ele>118.9</ele>
        <time>2024-12-30T13:04:50.840Z</time>
      </trkpt>
      <trkpt lat="48.61663" lon="2.0354">
        <ele>118.9</ele>
        <time>2024-12-30T13:04:54.147Z</time>
      </trkpt>
      <trkpt lat="48.61663" lon="2.03547">
        <ele>119</ele>
        <time>2024-12-30T13:04:57.454Z</time>
      </trkpt>
      <trkpt lat="48.61664" lon="2.03554">
        <ele>119</ele>
        <time>2024-12-30T13:05:00.761Z</time>
      </trkpt>
      <trkpt lat="48.61664" lon="2.03561">
        <ele>119.2</ele>
        <time>2024-12-30T13:05:04.068Z</time>
      </trkpt>
      <trkpt lat="48.61664" lon="2.03569">
        <ele>119.4</ele>
        <time>2024-12-30T13:05:07.376Z</time>
      </trkpt>
      <trkpt lat="48.61664" lon="2.03576">
        <ele>119.7</ele>
        <time>2024-12-30T13:05:10.684Z</time>
      </trkpt>
      <trkpt lat="48.61664" lon="2.03583">
        <ele>119.9</ele>
        <time>2024-12-30T13:05:13.992Z</time>
      </trkpt>
      <trkpt lat="48.61664" lon="2.0359">
        <ele>119.9</ele>
        <time>2024-12-30T13:05:17.300Z</time>
      </trkpt>
      <trkpt lat="48.61665" lon="2.03598">
        <ele>119.9</ele>
        <time>2024-12-30T13:05:20.608Z</time>
      </trkpt>
      <trkpt lat="48.61665" lon="2.03605">
        <ele>119.9</ele>
        <time>2024-12-30T13:05:23.916Z</time>
      </trkpt>
      <trkpt lat="48.61665" lon="2.03612">
        <ele>119.9</ele>
        <time>2024-12-30T13:05:27.224Z</time>
      </trkpt>
      <trkpt lat="48.61666" lon="2.03623">
        <ele>120</ele>
        <time>2024-12-30T13:05:32.196Z</time>
      </trkpt>
      <trkpt lat="48.61666" lon="2.03634">
        <ele>120</ele>
        <time>2024-12-30T13:05:37.168Z</time>
      </trkpt>
      <trkpt lat="48.61667" lon="2.03645">
        <ele>120</ele>
        <time>2024-12-30T13:05:42.140Z</time>
      </trkpt>
      <trkpt lat="48.61667" lon="2.03656">
        <ele>120</ele>
        <time>2024-12-30T13:05:47.112Z</time>
      </trkpt>
      <trkpt lat="48.61668" lon="2.03667">
        <ele>120.1</ele>
        <time>2024-12-30T13:05:52.084Z</time>
      </trkpt>
      <trkpt lat="48.61668" lon="2.03678">
        <ele>120.1</ele>
        <time>2024-12-30T13:05:57.056Z</time>
      </trkpt>
      <trkpt lat="48.61669" lon="2.03689">
        <ele>120.2</ele>
        <time>2024-12-30T13:06:02.028Z</time>
      </trkpt>
      <trkpt lat="48.6167" lon="2.037">
        <ele>120.2</ele>
        <time>2024-12-30T13:06:07.000Z</time>
      </trkpt>
      <trkpt lat="48.6167" lon="2.0371">
        <ele>120.2</ele>
        <time>2024-12-30T13:06:11.972Z</time>
      </trkpt>
      <trkpt lat="48.61671" lon="2.03721">
        <ele>120.3</ele>
        <time>2024-12-30T13:06:16.944Z</time>
      </trkpt>
      <trkpt lat="48.61671" lon="2.03732">
        <ele>120.7</ele>
        <time>2024-12-30T13:06:21.916Z</time>
      </trkpt>
      <trkpt lat="48.61672" lon="2.03743">
        <ele>121.1</ele>
        <time>2024-12-30T13:06:26.888Z</time>
      </trkpt>
      <trkpt lat="48.61672" lon="2.03754">
        <ele>121.4</ele>
        <time>2024-12-30T13:06:31.860Z</time>
      </trkpt>
      <trkpt lat="48.61673" lon="2.03765">
        <ele>121.4</ele>
        <time>2024-12-30T13:06:36.832Z</time>
      </trkpt>
      <trkpt lat="48.61673" lon="2.03776">
        <ele>121.5</ele>
        <time>2024-12-30T13:06:41.804Z</time>
      </trkpt>
      <trkpt lat="48.61674" lon="2.03787">
        <ele>121.5</ele>
        <time>2024-12-30T13:06:46.777Z</time>
      </trkpt>
      <trkpt lat="48.61674" lon="2.03796">
        <ele>121.5</ele>
        <time>2024-12-30T13:06:50.408Z</time>
      </trkpt>
      <trkpt lat="48.61674" lon="2.03805">
        <ele>121.5</ele>
        <time>2024-12-30T13:06:54.039Z</time>
      </trkpt>
      <trkpt lat="48.61674" lon="2.03813">
        <ele>121.2</ele>
        <time>2024-12-30T13:06:57.670Z</time>
      </trkpt>
      <trkpt lat="48.61674" lon="2.03822">
        <ele>120.9</ele>
        <time>2024-12-30T13:07:01.301Z</time>
      </trkpt>
      <trkpt lat="48.61674" lon="2.03831">
        <ele>120.6</ele>
        <time>2024-12-30T13:07:04.932Z</time>
      </trkpt>
      <trkpt lat="48.61674" lon="2.0384">
        <ele>120.5</ele>
        <time>2024-12-30T13:07:08.564Z</time>
      </trkpt>
      <trkpt lat="48.61674" lon="2.03849">
        <ele>120.5</ele>
        <time>2024-12-30T13:07:12.196Z</time>
      </trkpt>
      <trkpt lat="48.61674" lon="2.03858">
        <ele>120.5</ele>
        <time>2024-12-30T13:07:15.828Z</time>
      </trkpt>
      <trkpt lat="48.61674" lon="2.03866">
        <ele>120.5</ele>
        <time>2024-12-30T13:07:19.460Z</time>
      </trkpt>
      <trkpt lat="48.61674" lon="2.03875">
        <ele>120.5</ele>
        <time>2024-12-30T13:07:23.092Z</time>
      </trkpt>
      <trkpt lat="48.61674" lon="2.03884">
        <ele>120.5</ele>
        <time>2024-12-30T13:07:26.724Z</time>
      </trkpt>
      <trkpt lat="48.61674" lon="2.03893">
        <ele>120.5</ele>
        <time>2024-12-30T13:07:30.356Z</time>
      </trkpt>
      <trkpt lat="48.61674" lon="2.03902">
        <ele>120.4</ele>
        <time>2024-12-30T13:07:33.988Z</time>
      </trkpt>
      <trkpt lat="48.61674" lon="2.0391">
        <ele>120.3</ele>
        <time>2024-12-30T13:07:37.620Z</time>
      </trkpt>
      <trkpt lat="48.61674" lon="2.03919">
        <ele>120.2</ele>
        <time>2024-12-30T13:07:41.252Z</time>
      </trkpt>
      <trkpt lat="48.61674" lon="2.03928">
        <ele>119.9</ele>
        <time>2024-12-30T13:07:44.884Z</time>
      </trkpt>
      <trkpt lat="48.61673" lon="2.03936">
        <ele>119.6</ele>
        <time>2024-12-30T13:07:48.051Z</time>
      </trkpt>
      <trkpt lat="48.61673" lon="2.03944">
        <ele>119.2</ele>
        <time>2024-12-30T13:07:51.218Z</time>
      </trkpt>
      <trkpt lat="48.61672" lon="2.03951">
        <ele>119.2</ele>
        <time>2024-12-30T13:07:54.385Z</time>
      </trkpt>
      <trkpt lat="48.61671" lon="2.03959">
        <ele>119.2</ele>
        <time>2024-12-30T13:07:57.552Z</time>
      </trkpt>
      <trkpt lat="48.6167" lon="2.03967">
        <ele>119.1</ele>
        <time>2024-12-30T13:08:00.719Z</time>
      </trkpt>
      <trkpt lat="48.6167" lon="2.03975">
        <ele>119</ele>
        <time>2024-12-30T13:08:03.886Z</time>
      </trkpt>
      <trkpt lat="48.61669" lon="2.03983">
        <ele>118.7</ele>
        <time>2024-12-30T13:08:07.053Z</time>
      </trkpt>
      <trkpt lat="48.61668" lon="2.0399">
        <ele>118.4</ele>
        <time>2024-12-30T13:08:10.220Z</time>
      </trkpt>
      <trkpt lat="48.61667" lon="2.03998">
        <ele>118.1</ele>
        <time>2024-12-30T13:08:13.387Z</time>
      </trkpt>
      <trkpt lat="48.61667" lon="2.04006">
        <ele>117.8</ele>
        <time>2024-12-30T13:08:16.554Z</time>
      </trkpt>
      <trkpt lat="48.61666" lon="2.04014">
        <ele>117.5</ele>
        <time>2024-12-30T13:08:19.721Z</time>
      </trkpt>
      <trkpt lat="48.61665" lon="2.04021">
        <ele>117.2</ele>
        <time>2024-12-30T13:08:22.888Z</time>
      </trkpt>
      <trkpt lat="48.61665" lon="2.04029">
        <ele>116.9</ele>
        <time>2024-12-30T13:08:26.055Z</time>
      </trkpt>
      <trkpt lat="48.61664" lon="2.04037">
        <ele>116.9</ele>
        <time>2024-12-30T13:08:29.222Z</time>
      </trkpt>
      <trkpt lat="48.61663" lon="2.04045">
        <ele>116.9</ele>
        <time>2024-12-30T13:08:32.389Z</time>
      </trkpt>
      <trkpt lat="48.61662" lon="2.04053">
        <ele>116.8</ele>
        <time>2024-12-30T13:08:35.556Z</time>
      </trkpt>
      <trkpt lat="48.61662" lon="2.0406">
        <ele>116.6</ele>
        <time>2024-12-30T13:08:38.723Z</time>
      </trkpt>
      <trkpt lat="48.61661" lon="2.04068">
        <ele>116.3</ele>
        <time>2024-12-30T13:08:41.890Z</time>
      </trkpt>
      <trkpt lat="48.6166" lon="2.04076">
        <ele>116</ele>
        <time>2024-12-30T13:08:45.057Z</time>
      </trkpt>
      <trkpt lat="48.61659" lon="2.04084">
        <ele>115.7</ele>
        <time>2024-12-30T13:08:48.224Z</time>
      </trkpt>
      <trkpt lat="48.61659" lon="2.04091">
        <ele>115.5</ele>
        <time>2024-12-30T13:08:51.391Z</time>
      </trkpt>
      <trkpt lat="48.61658" lon="2.04099">
        <ele>115.3</ele>
        <time>2024-12-30T13:08:54.558Z</time>
      </trkpt>
      <trkpt lat="48.61657" lon="2.04107">
        <ele>115.1</ele>
        <time>2024-12-30T13:08:57.725Z</time>
      </trkpt>
      <trkpt lat="48.61656" lon="2.04115">
        <ele>115</ele>
        <time>2024-12-30T13:09:00.892Z</time>
      </trkpt>
      <trkpt lat="48.61656" lon="2.04123">
        <ele>114.8</ele>
        <time>2024-12-30T13:09:04.059Z</time>
      </trkpt>
      <trkpt lat="48.61655" lon="2.0413">
        <ele>114.7</ele>
        <time>2024-12-30T13:09:07.226Z</time>
      </trkpt>
      <trkpt lat="48.61654" lon="2.04138">
        <ele>114.6</ele>
        <time>2024-12-30T13:09:10.393Z</time>
      </trkpt>
      <trkpt lat="48.61653" lon="2.04146">
        <ele>114.4</ele>
        <time>2024-12-30T13:09:13.560Z</time>
      </trkpt>
      <trkpt lat="48.61653" lon="2.04154">
        <ele>114.2</ele>
        <time>2024-12-30T13:09:16.727Z</time>
      </trkpt>
      <trkpt lat="48.61652" lon="2.04161">
        <ele>114.1</ele>
        <time>2024-12-30T13:09:19.894Z</time>
      </trkpt>
      <trkpt lat="48.61651" lon="2.04169">
        <ele>114</ele>
        <time>2024-12-30T13:09:23.061Z</time>
      </trkpt>
      <trkpt lat="48.61651" lon="2.04177">
        <ele>114</ele>
        <time>2024-12-30T13:09:26.228Z</time>
      </trkpt>
      <trkpt lat="48.6165" lon="2.04185">
        <ele>114</ele>
        <time>2024-12-30T13:09:29.395Z</time>
      </trkpt>
      <trkpt lat="48.61649" lon="2.04193">
        <ele>114</ele>
        <time>2024-12-30T13:09:32.562Z</time>
      </trkpt>
      <trkpt lat="48.61648" lon="2.042">
        <ele>113.9</ele>
        <time>2024-12-30T13:09:35.729Z</time>
      </trkpt>
      <trkpt lat="48.61648" lon="2.04208">
        <ele>113.7</ele>
        <time>2024-12-30T13:09:38.896Z</time>
      </trkpt>
      <trkpt lat="48.61647" lon="2.04216">
        <ele>113.4</ele>
        <time>2024-12-30T13:09:42.063Z</time>
      </trkpt>
      <trkpt lat="48.61646" lon="2.04224">
        <ele>113.2</ele>
        <time>2024-12-30T13:09:45.230Z</time>
      </trkpt>
      <trkpt lat="48.61645" lon="2.04232">
        <ele>113.2</ele>
        <time>2024-12-30T13:09:48.397Z</time>
      </trkpt>
      <trkpt lat="48.61645" lon="2.04239">
        <ele>113.1</ele>
        <time>2024-12-30T13:09:51.564Z</time>
      </trkpt>
      <trkpt lat="48.61644" lon="2.04247">
        <ele>113</ele>
        <time>2024-12-30T13:09:54.731Z</time>
      </trkpt>
      <trkpt lat="48.61643" lon="2.04255">
        <ele>113</ele>
        <time>2024-12-30T13:09:57.898Z</time>
      </trkpt>
      <trkpt lat="48.61642" lon="2.04263">
        <ele>113</ele>
        <time>2024-12-30T13:10:01.065Z</time>
      </trkpt>
      <trkpt lat="48.61642" lon="2.0427">
        <ele>113</ele>
        <time>2024-12-30T13:10:04.232Z</time>
      </trkpt>
      <trkpt lat="48.61641" lon="2.04278">
        <ele>113</ele>
        <time>2024-12-30T13:10:07.399Z</time>
      </trkpt>
      <trkpt lat="48.6164" lon="2.04286">
        <ele>113</ele>
        <time>2024-12-30T13:10:10.566Z</time>
      </trkpt>
      <trkpt lat="48.6164" lon="2.04294">
        <ele>113</ele>
        <time>2024-12-30T13:10:13.733Z</time>
      </trkpt>
      <trkpt lat="48.61639" lon="2.04302">
        <ele>113</ele>
        <time>2024-12-30T13:10:16.900Z</time>
      </trkpt>
      <trkpt lat="48.61638" lon="2.04309">
        <ele>113</ele>
        <time>2024-12-30T13:10:20.067Z</time>
      </trkpt>
      <trkpt lat="48.61637" lon="2.04317">
        <ele>112.9</ele>
        <time>2024-12-30T13:10:23.234Z</time>
      </trkpt>
      <trkpt lat="48.61637" lon="2.04325">
        <ele>112.9</ele>
        <time>2024-12-30T13:10:26.402Z</time>
      </trkpt>
      <trkpt lat="48.61636" lon="2.04333">
        <ele>112.9</ele>
        <time>2024-12-30T13:10:29.570Z</time>
      </trkpt>
      <trkpt lat="48.61635" lon="2.0434">
        <ele>112.6</ele>
        <time>2024-12-30T13:10:32.738Z</time>
      </trkpt>
      <trkpt lat="48.61634" lon="2.04348">
        <ele>112.4</ele>
        <time>2024-12-30T13:10:35.906Z</time>
      </trkpt>
      <trkpt lat="48.61634" lon="2.04356">
        <ele>112.1</ele>
        <time>2024-12-30T13:10:39.074Z</time>
      </trkpt>
      <trkpt lat="48.61633" lon="2.04364">
        <ele>112</ele>
        <time>2024-12-30T13:10:42.242Z</time>
      </trkpt>
      <trkpt lat="48.61632" lon="2.04372">
        <ele>111.9</ele>
        <time>2024-12-30T13:10:45.410Z</time>
      </trkpt>
      <trkpt lat="48.61631" lon="2.04379">
        <ele>111.8</ele>
        <time>2024-12-30T13:10:48.578Z</time>
      </trkpt>
      <trkpt lat="48.61631" lon="2.04387">
        <ele>111.7</ele>
        <time>2024-12-30T13:10:51.746Z</time>
      </trkpt>
      <trkpt lat="48.6163" lon="2.04395">
        <ele>111.7</ele>
        <time>2024-12-30T13:10:54.914Z</time>
      </trkpt>
      <trkpt lat="48.61629" lon="2.04403">
        <ele>111.8</ele>
        <time>2024-12-30T13:10:58.082Z</time>
      </trkpt>
      <trkpt lat="48.61629" lon="2.0441">
        <ele>111.9</ele>
        <time>2024-12-30T13:11:01.250Z</time>
      </trkpt>
      <trkpt lat="48.61628" lon="2.04418">
        <ele>111.9</ele>
        <time>2024-12-30T13:11:04.418Z</time>
      </trkpt>
      <trkpt lat="48.61627" lon="2.04426">
        <ele>111.7</ele>
        <time>2024-12-30T13:11:07.587Z</time>
      </trkpt>
      <trkpt lat="48.61627" lon="2.04431">
        <ele>111.5</ele>
        <time>2024-12-30T13:11:09.487Z</time>
      </trkpt>
      <trkpt lat="48.61626" lon="2.04443">
        <ele>111.1</ele>
        <time>2024-12-30T13:11:14.783Z</time>
      </trkpt>
      <trkpt lat="48.61625" lon="2.04454">
        <ele>111</ele>
        <time>2024-12-30T13:11:20.079Z</time>
      </trkpt>
      <trkpt lat="48.61624" lon="2.04466">
        <ele>111</ele>
        <time>2024-12-30T13:11:25.375Z</time>
      </trkpt>
      <trkpt lat="48.61623" lon="2.04478">
        <ele>111.1</ele>
        <time>2024-12-30T13:11:30.671Z</time>
      </trkpt>
      <trkpt lat="48.61621" lon="2.04489">
        <ele>111.2</ele>
        <time>2024-12-30T13:11:35.967Z</time>
      </trkpt>
      <trkpt lat="48.6162" lon="2.04501">
        <ele>111.3</ele>
        <time>2024-12-30T13:11:41.263Z</time>
      </trkpt>
      <trkpt lat="48.61619" lon="2.04512">
        <ele>111.6</ele>
        <time>2024-12-30T13:11:46.559Z</time>
      </trkpt>
      <trkpt lat="48.61618" lon="2.04524">
        <ele>111.9</ele>
        <time>2024-12-30T13:11:51.855Z</time>
      </trkpt>
      <trkpt lat="48.61617" lon="2.04536">
        <ele>112</ele>
        <time>2024-12-30T13:11:57.151Z</time>
      </trkpt>
      <trkpt lat="48.61616" lon="2.04547">
        <ele>112</ele>
        <time>2024-12-30T13:12:02.447Z</time>
      </trkpt>
      <trkpt lat="48.61615" lon="2.04559">
        <ele>112.1</ele>
        <time>2024-12-30T13:12:07.743Z</time>
      </trkpt>
      <trkpt lat="48.61614" lon="2.04571">
        <ele>112.5</ele>
        <time>2024-12-30T13:12:13.039Z</time>
      </trkpt>
      <trkpt lat="48.61612" lon="2.04582">
        <ele>112.9</ele>
        <time>2024-12-30T13:12:18.336Z</time>
      </trkpt>
      <trkpt lat="48.61611" lon="2.04594">
        <ele>113</ele>
        <time>2024-12-30T13:12:23.633Z</time>
      </trkpt>
      <trkpt lat="48.6161" lon="2.04605">
        <ele>113</ele>
        <time>2024-12-30T13:12:28.930Z</time>
      </trkpt>
      <trkpt lat="48.61609" lon="2.04617">
        <ele>113</ele>
        <time>2024-12-30T13:12:34.228Z</time>
      </trkpt>
      <trkpt lat="48.61608" lon="2.04625">
        <ele>113</ele>
        <time>2024-12-30T13:12:38.026Z</time>
      </trkpt>
      <trkpt lat="48.61607" lon="2.04634">
        <ele>113</ele>
        <time>2024-12-30T13:12:41.824Z</time>
      </trkpt>
      <trkpt lat="48.61606" lon="2.04642">
        <ele>113.1</ele>
        <time>2024-12-30T13:12:45.622Z</time>
      </trkpt>
      <trkpt lat="48.61605" lon="2.0465">
        <ele>113.3</ele>
        <time>2024-12-30T13:12:49.421Z</time>
      </trkpt>
      <trkpt lat="48.61606" lon="2.04657">
        <ele>113.5</ele>
        <time>2024-12-30T13:12:52.975Z</time>
        <extensions>
          <visugpx:TrkExtension xmlns:visugpx="https://www.visugpx.com/editgpx/">
            <visugpx:node>31</visugpx:node>
            </visugpx:TrkExtension>
        </extensions>
      </trkpt>
      <trkpt lat="48.61608" lon="2.04669">
        <ele>113.9</ele>
        <time>2024-12-30T13:12:59.251Z</time>
      </trkpt>
      <trkpt lat="48.61611" lon="2.04677">
        <ele>114</ele>
        <time>2024-12-30T13:13:03.487Z</time>
      </trkpt>
      <trkpt lat="48.61614" lon="2.04685">
        <ele>114</ele>
        <time>2024-12-30T13:13:07.723Z</time>
      </trkpt>
      <trkpt lat="48.61616" lon="2.04693">
        <ele>114.2</ele>
        <time>2024-12-30T13:13:11.959Z</time>
      </trkpt>
      <trkpt lat="48.61619" lon="2.04701">
        <ele>114.5</ele>
        <time>2024-12-30T13:13:16.195Z</time>
      </trkpt>
      <trkpt lat="48.61623" lon="2.04707">
        <ele>114.9</ele>
        <time>2024-12-30T13:13:20.564Z</time>
      </trkpt>
      <trkpt lat="48.61627" lon="2.04712">
        <ele>115.2</ele>
        <time>2024-12-30T13:13:24.934Z</time>
      </trkpt>
      <trkpt lat="48.61633" lon="2.04713">
        <ele>115.5</ele>
        <time>2024-12-30T13:13:29.048Z</time>
      </trkpt>
      <trkpt lat="48.61639" lon="2.04715">
        <ele>115.7</ele>
        <time>2024-12-30T13:13:33.162Z</time>
      </trkpt>
      <trkpt lat="48.61645" lon="2.04716">
        <ele>115.8</ele>
        <time>2024-12-30T13:13:37.276Z</time>
      </trkpt>
      <trkpt lat="48.61651" lon="2.04718">
        <ele>115.8</ele>
        <time>2024-12-30T13:13:41.390Z</time>
      </trkpt>
      <trkpt lat="48.61656" lon="2.04719">
        <ele>115.9</ele>
        <time>2024-12-30T13:13:45.505Z</time>
      </trkpt>
      <trkpt lat="48.61662" lon="2.0472">
        <ele>115.9</ele>
        <time>2024-12-30T13:13:49.620Z</time>
      </trkpt>
      <trkpt lat="48.61668" lon="2.04722">
        <ele>116</ele>
        <time>2024-12-30T13:13:53.735Z</time>
      </trkpt>
      <trkpt lat="48.61674" lon="2.04723">
        <ele>116</ele>
        <time>2024-12-30T13:13:57.850Z</time>
      </trkpt>
      <trkpt lat="48.61682" lon="2.04724">
        <ele>116.1</ele>
        <time>2024-12-30T13:14:03.217Z</time>
      </trkpt>
      <trkpt lat="48.6169" lon="2.04725">
        <ele>116.1</ele>
        <time>2024-12-30T13:14:08.584Z</time>
      </trkpt>
      <trkpt lat="48.61698" lon="2.04725">
        <ele>116.1</ele>
        <time>2024-12-30T13:14:13.951Z</time>
      </trkpt>
      <trkpt lat="48.61706" lon="2.04726">
        <ele>116.2</ele>
        <time>2024-12-30T13:14:19.319Z</time>
      </trkpt>
      <trkpt lat="48.61713" lon="2.04728">
        <ele>116.3</ele>
        <time>2024-12-30T13:14:23.994Z</time>
      </trkpt>
      <trkpt lat="48.61719" lon="2.0473">
        <ele>116.5</ele>
        <time>2024-12-30T13:14:28.669Z</time>
      </trkpt>
      <trkpt lat="48.61726" lon="2.04732">
        <ele>116.7</ele>
        <time>2024-12-30T13:14:33.345Z</time>
      </trkpt>
      <trkpt lat="48.61732" lon="2.04734">
        <ele>116.8</ele>
        <time>2024-12-30T13:14:38.021Z</time>
      </trkpt>
      <trkpt lat="48.61738" lon="2.04735">
        <ele>116.9</ele>
        <time>2024-12-30T13:14:42.169Z</time>
      </trkpt>
      <trkpt lat="48.61745" lon="2.04737">
        <ele>117</ele>
        <time>2024-12-30T13:14:46.317Z</time>
      </trkpt>
      <trkpt lat="48.61751" lon="2.04738">
        <ele>117.1</ele>
        <time>2024-12-30T13:14:50.465Z</time>
      </trkpt>
      <trkpt lat="48.61757" lon="2.0474">
        <ele>117.1</ele>
        <time>2024-12-30T13:14:54.613Z</time>
      </trkpt>
      <trkpt lat="48.61763" lon="2.04741">
        <ele>117</ele>
        <time>2024-12-30T13:14:58.761Z</time>
      </trkpt>
      <trkpt lat="48.6177" lon="2.04742">
        <ele>116.9</ele>
        <time>2024-12-30T13:15:02.910Z</time>
      </trkpt>
      <trkpt lat="48.61776" lon="2.04744">
        <ele>116.8</ele>
        <time>2024-12-30T13:15:07.059Z</time>
      </trkpt>
      <trkpt lat="48.61782" lon="2.04745">
        <ele>116.8</ele>
        <time>2024-12-30T13:15:11.208Z</time>
      </trkpt>
      <trkpt lat="48.61789" lon="2.04746">
        <ele>116.9</ele>
        <time>2024-12-30T13:15:16.142Z</time>
      </trkpt>
      <trkpt lat="48.61797" lon="2.04748">
        <ele>116.9</ele>
        <time>2024-12-30T13:15:21.076Z</time>
      </trkpt>
      <trkpt lat="48.61804" lon="2.04749">
        <ele>117</ele>
        <time>2024-12-30T13:15:26.010Z</time>
      </trkpt>
      <trkpt lat="48.61812" lon="2.04751">
        <ele>117</ele>
        <time>2024-12-30T13:15:30.944Z</time>
      </trkpt>
      <trkpt lat="48.61819" lon="2.04752">
        <ele>117</ele>
        <time>2024-12-30T13:15:35.878Z</time>
      </trkpt>
      <trkpt lat="48.61827" lon="2.04753">
        <ele>117</ele>
        <time>2024-12-30T13:15:40.812Z</time>
      </trkpt>
      <trkpt lat="48.61834" lon="2.04755">
        <ele>117</ele>
        <time>2024-12-30T13:15:45.746Z</time>
      </trkpt>
      <trkpt lat="48.61842" lon="2.04756">
        <ele>117</ele>
        <time>2024-12-30T13:15:50.680Z</time>
      </trkpt>
      <trkpt lat="48.61849" lon="2.04757">
        <ele>117</ele>
        <time>2024-12-30T13:15:55.614Z</time>
      </trkpt>
      <trkpt lat="48.61856" lon="2.04759">
        <ele>117</ele>
        <time>2024-12-30T13:16:00.548Z</time>
      </trkpt>
      <trkpt lat="48.61864" lon="2.0476">
        <ele>116.9</ele>
        <time>2024-12-30T13:16:05.482Z</time>
      </trkpt>
      <trkpt lat="48.61871" lon="2.04762">
        <ele>116.8</ele>
        <time>2024-12-30T13:16:10.416Z</time>
      </trkpt>
      <trkpt lat="48.61879" lon="2.04763">
        <ele>116.7</ele>
        <time>2024-12-30T13:16:15.350Z</time>
      </trkpt>
      <trkpt lat="48.61886" lon="2.04764">
        <ele>116.6</ele>
        <time>2024-12-30T13:16:20.285Z</time>
      </trkpt>
      <trkpt lat="48.61894" lon="2.04766">
        <ele>116.7</ele>
        <time>2024-12-30T13:16:25.220Z</time>
      </trkpt>
      <trkpt lat="48.61901" lon="2.04767">
        <ele>116.9</ele>
        <time>2024-12-30T13:16:30.155Z</time>
      </trkpt>
      <trkpt lat="48.61909" lon="2.04769">
        <ele>117.2</ele>
        <time>2024-12-30T13:16:35.739Z</time>
      </trkpt>
      <trkpt lat="48.61917" lon="2.04771">
        <ele>117.5</ele>
        <time>2024-12-30T13:16:41.323Z</time>
      </trkpt>
      <trkpt lat="48.61925" lon="2.04772">
        <ele>117.6</ele>
        <time>2024-12-30T13:16:46.907Z</time>
      </trkpt>
      <trkpt lat="48.61933" lon="2.04774">
        <ele>117.7</ele>
        <time>2024-12-30T13:16:52.491Z</time>
      </trkpt>
      <trkpt lat="48.61941" lon="2.04776">
        <ele>117.9</ele>
        <time>2024-12-30T13:16:58.075Z</time>
      </trkpt>
      <trkpt lat="48.61949" lon="2.04778">
        <ele>118</ele>
        <time>2024-12-30T13:17:03.659Z</time>
      </trkpt>
      <trkpt lat="48.61957" lon="2.04779">
        <ele>118.1</ele>
        <time>2024-12-30T13:17:09.243Z</time>
      </trkpt>
      <trkpt lat="48.61966" lon="2.04781">
        <ele>118.1</ele>
        <time>2024-12-30T13:17:14.827Z</time>
      </trkpt>
      <trkpt lat="48.61974" lon="2.04783">
        <ele>118.2</ele>
        <time>2024-12-30T13:17:20.411Z</time>
      </trkpt>
      <trkpt lat="48.61982" lon="2.04785">
        <ele>118.2</ele>
        <time>2024-12-30T13:17:25.995Z</time>
      </trkpt>
      <trkpt lat="48.6199" lon="2.04786">
        <ele>118.3</ele>
        <time>2024-12-30T13:17:31.579Z</time>
      </trkpt>
      <trkpt lat="48.61998" lon="2.04788">
        <ele>118.4</ele>
        <time>2024-12-30T13:17:37.164Z</time>
      </trkpt>
      <trkpt lat="48.62006" lon="2.0479">
        <ele>118.4</ele>
        <time>2024-12-30T13:17:42.749Z</time>
      </trkpt>
      <trkpt lat="48.62014" lon="2.04792">
        <ele>118.5</ele>
        <time>2024-12-30T13:17:48.334Z</time>
      </trkpt>
      <trkpt lat="48.62022" lon="2.04793">
        <ele>118.6</ele>
        <time>2024-12-30T13:17:53.919Z</time>
      </trkpt>
      <trkpt lat="48.6203" lon="2.04795">
        <ele>118.7</ele>
        <time>2024-12-30T13:17:59.504Z</time>
      </trkpt>
      <trkpt lat="48.62036" lon="2.04796">
        <ele>118.8</ele>
        <time>2024-12-30T13:18:03.998Z</time>
      </trkpt>
      <trkpt lat="48.62043" lon="2.04797">
        <ele>119</ele>
        <time>2024-12-30T13:18:08.492Z</time>
      </trkpt>
      <trkpt lat="48.62049" lon="2.04797">
        <ele>119.2</ele>
        <time>2024-12-30T13:18:12.986Z</time>
      </trkpt>
      <trkpt lat="48.62055" lon="2.04798">
        <ele>119.4</ele>
        <time>2024-12-30T13:18:17.481Z</time>
      </trkpt>
      <trkpt lat="48.6206" lon="2.04799">
        <ele>119.6</ele>
        <time>2024-12-30T13:18:21.189Z</time>
      </trkpt>
      <trkpt lat="48.62065" lon="2.048">
        <ele>119.7</ele>
        <time>2024-12-30T13:18:24.897Z</time>
      </trkpt>
      <trkpt lat="48.62071" lon="2.04801">
        <ele>119.8</ele>
        <time>2024-12-30T13:18:28.605Z</time>
      </trkpt>
      <trkpt lat="48.62076" lon="2.04803">
        <ele>119.9</ele>
        <time>2024-12-30T13:18:32.313Z</time>
      </trkpt>
      <trkpt lat="48.62081" lon="2.04804">
        <ele>119.9</ele>
        <time>2024-12-30T13:18:36.021Z</time>
      </trkpt>
      <trkpt lat="48.62086" lon="2.04805">
        <ele>120.1</ele>
        <time>2024-12-30T13:18:39.729Z</time>
      </trkpt>
      <trkpt lat="48.62091" lon="2.04806">
        <ele>120.3</ele>
        <time>2024-12-30T13:18:43.437Z</time>
      </trkpt>
      <trkpt lat="48.62097" lon="2.04807">
        <ele>120.5</ele>
        <time>2024-12-30T13:18:47.145Z</time>
      </trkpt>
      <trkpt lat="48.62102" lon="2.04808">
        <ele>120.7</ele>
        <time>2024-12-30T13:18:50.853Z</time>
      </trkpt>
      <trkpt lat="48.62107" lon="2.04809">
        <ele>120.8</ele>
        <time>2024-12-30T13:18:54.562Z</time>
      </trkpt>
      <trkpt lat="48.62112" lon="2.0481">
        <ele>121</ele>
        <time>2024-12-30T13:18:58.271Z</time>
      </trkpt>
      <trkpt lat="48.62117" lon="2.04812">
        <ele>121</ele>
        <time>2024-12-30T13:19:01.980Z</time>
      </trkpt>
      <trkpt lat="48.62122" lon="2.04813">
        <ele>121.1</ele>
        <time>2024-12-30T13:19:05.689Z</time>
      </trkpt>
      <trkpt lat="48.62128" lon="2.04814">
        <ele>121.2</ele>
        <time>2024-12-30T13:19:09.398Z</time>
      </trkpt>
      <trkpt lat="48.62133" lon="2.04815">
        <ele>121.3</ele>
        <time>2024-12-30T13:19:13.107Z</time>
      </trkpt>
      <trkpt lat="48.62138" lon="2.04816">
        <ele>121.4</ele>
        <time>2024-12-30T13:19:16.816Z</time>
      </trkpt>
      <trkpt lat="48.62144" lon="2.04817">
        <ele>121.5</ele>
        <time>2024-12-30T13:19:21.142Z</time>
      </trkpt>
      <trkpt lat="48.6215" lon="2.04819">
        <ele>121.7</ele>
        <time>2024-12-30T13:19:25.468Z</time>
      </trkpt>
      <trkpt lat="48.62156" lon="2.0482">
        <ele>121.8</ele>
        <time>2024-12-30T13:19:29.795Z</time>
      </trkpt>
      <trkpt lat="48.62162" lon="2.04821">
        <ele>121.9</ele>
        <time>2024-12-30T13:19:34.122Z</time>
      </trkpt>
      <trkpt lat="48.62168" lon="2.04822">
        <ele>122</ele>
        <time>2024-12-30T13:19:38.449Z</time>
      </trkpt>
      <trkpt lat="48.62174" lon="2.04824">
        <ele>122.3</ele>
        <time>2024-12-30T13:19:42.776Z</time>
      </trkpt>
      <trkpt lat="48.6218" lon="2.04825">
        <ele>122.5</ele>
        <time>2024-12-30T13:19:47.103Z</time>
      </trkpt>
      <trkpt lat="48.62186" lon="2.04826">
        <ele>122.7</ele>
        <time>2024-12-30T13:19:51.430Z</time>
        <extensions>
          <visugpx:TrkExtension xmlns:visugpx="https://www.visugpx.com/editgpx/">
            <visugpx:node>32</visugpx:node>
            </visugpx:TrkExtension>
        </extensions>
      </trkpt>
      <trkpt lat="48.62194" lon="2.04828">
        <ele>123</ele>
        <time>2024-12-30T13:19:56.943Z</time>
      </trkpt>
      <trkpt lat="48.62201" lon="2.04829">
        <ele>123.2</ele>
        <time>2024-12-30T13:20:02.456Z</time>
      </trkpt>
      <trkpt lat="48.62207" lon="2.04831">
        <ele>123.5</ele>
        <time>2024-12-30T13:20:07.321Z</time>
      </trkpt>
      <trkpt lat="48.62213" lon="2.04832">
        <ele>123.7</ele>
        <time>2024-12-30T13:20:12.186Z</time>
      </trkpt>
      <trkpt lat="48.62219" lon="2.04834">
        <ele>123.9</ele>
        <time>2024-12-30T13:20:17.051Z</time>
      </trkpt>
      <trkpt lat="48.62225" lon="2.04835">
        <ele>124.3</ele>
        <time>2024-12-30T13:20:21.917Z</time>
      </trkpt>
      <trkpt lat="48.62231" lon="2.04837">
        <ele>124.7</ele>
        <time>2024-12-30T13:20:26.783Z</time>
      </trkpt>
      <trkpt lat="48.62237" lon="2.04838">
        <ele>125.2</ele>
        <time>2024-12-30T13:20:31.649Z</time>
      </trkpt>
      <trkpt lat="48.62243" lon="2.0484">
        <ele>125.7</ele>
        <time>2024-12-30T13:20:36.515Z</time>
      </trkpt>
      <trkpt lat="48.62249" lon="2.04841">
        <ele>126.2</ele>
        <time>2024-12-30T13:20:41.381Z</time>
      </trkpt>
      <trkpt lat="48.62257" lon="2.04845">
        <ele>126.7</ele>
        <time>2024-12-30T13:20:47.941Z</time>
      </trkpt>
      <trkpt lat="48.62265" lon="2.04849">
        <ele>127.1</ele>
        <time>2024-12-30T13:20:54.501Z</time>
      </trkpt>
      <trkpt lat="48.62271" lon="2.04854">
        <ele>127.5</ele>
        <time>2024-12-30T13:20:59.557Z</time>
      </trkpt>
      <trkpt lat="48.62277" lon="2.04859">
        <ele>127.9</ele>
        <time>2024-12-30T13:21:04.613Z</time>
      </trkpt>
      <trkpt lat="48.62283" lon="2.04863">
        <ele>128.1</ele>
        <time>2024-12-30T13:21:09.670Z</time>
      </trkpt>
      <trkpt lat="48.62289" lon="2.04868">
        <ele>128.2</ele>
        <time>2024-12-30T13:21:14.727Z</time>
      </trkpt>
      <trkpt lat="48.62293" lon="2.04871">
        <ele>128.3</ele>
        <time>2024-12-30T13:21:17.934Z</time>
      </trkpt>
      <trkpt lat="48.62298" lon="2.04873">
        <ele>128.4</ele>
        <time>2024-12-30T13:21:21.141Z</time>
      </trkpt>
      <trkpt lat="48.62302" lon="2.04876">
        <ele>128.5</ele>
        <time>2024-12-30T13:21:24.348Z</time>
      </trkpt>
      <trkpt lat="48.62306" lon="2.04878">
        <ele>128.6</ele>
        <time>2024-12-30T13:21:27.556Z</time>
      </trkpt>
      <trkpt lat="48.62313" lon="2.04883">
        <ele>129</ele>
        <time>2024-12-30T13:21:33.468Z</time>
      </trkpt>
      <trkpt lat="48.6232" lon="2.04888">
        <ele>129.5</ele>
        <time>2024-12-30T13:21:39.380Z</time>
      </trkpt>
      <trkpt lat="48.62326" lon="2.04893">
        <ele>129.9</ele>
        <time>2024-12-30T13:21:45.292Z</time>
      </trkpt>
      <trkpt lat="48.62333" lon="2.04898">
        <ele>130.3</ele>
        <time>2024-12-30T13:21:51.205Z</time>
      </trkpt>
      <trkpt lat="48.62338" lon="2.04903">
        <ele>130.7</ele>
        <time>2024-12-30T13:21:56.257Z</time>
      </trkpt>
      <trkpt lat="48.62343" lon="2.04908">
        <ele>131.2</ele>
        <time>2024-12-30T13:22:01.309Z</time>
      </trkpt>
      <trkpt lat="48.62347" lon="2.04912">
        <ele>131.8</ele>
        <time>2024-12-30T13:22:06.362Z</time>
      </trkpt>
      <trkpt lat="48.62352" lon="2.04917">
        <ele>132.4</ele>
        <time>2024-12-30T13:22:11.415Z</time>
      </trkpt>
      <trkpt lat="48.62356" lon="2.0492">
        <ele>132.8</ele>
        <time>2024-12-30T13:22:15.478Z</time>
      </trkpt>
      <trkpt lat="48.62361" lon="2.04923">
        <ele>133.2</ele>
        <time>2024-12-30T13:22:19.542Z</time>
      </trkpt>
      <trkpt lat="48.62365" lon="2.04926">
        <ele>133.6</ele>
        <time>2024-12-30T13:22:23.606Z</time>
      </trkpt>
      <trkpt lat="48.62369" lon="2.04929">
        <ele>134</ele>
        <time>2024-12-30T13:22:27.670Z</time>
      </trkpt>
      <trkpt lat="48.62375" lon="2.04936">
        <ele>134.7</ele>
        <time>2024-12-30T13:22:34.052Z</time>
      </trkpt>
      <trkpt lat="48.62382" lon="2.04943">
        <ele>135.4</ele>
        <time>2024-12-30T13:22:40.434Z</time>
      </trkpt>
      <trkpt lat="48.62388" lon="2.0495">
        <ele>136.1</ele>
        <time>2024-12-30T13:22:46.816Z</time>
      </trkpt>
      <trkpt lat="48.62394" lon="2.04957">
        <ele>136.6</ele>
        <time>2024-12-30T13:22:53.199Z</time>
      </trkpt>
      <trkpt lat="48.624" lon="2.04963">
        <ele>137.1</ele>
        <time>2024-12-30T13:22:59.582Z</time>
      </trkpt>
      <trkpt lat="48.62407" lon="2.0497">
        <ele>137.6</ele>
        <time>2024-12-30T13:23:05.965Z</time>
      </trkpt>
      <trkpt lat="48.62413" lon="2.04977">
        <ele>138.1</ele>
        <time>2024-12-30T13:23:12.348Z</time>
      </trkpt>
      <trkpt lat="48.62419" lon="2.04984">
        <ele>138.4</ele>
        <time>2024-12-30T13:23:18.731Z</time>
      </trkpt>
      <trkpt lat="48.62423" lon="2.04988">
        <ele>138.4</ele>
        <time>2024-12-30T13:23:21.859Z</time>
      </trkpt>
      <trkpt lat="48.62428" lon="2.04991">
        <ele>138.4</ele>
        <time>2024-12-30T13:23:24.987Z</time>
      </trkpt>
      <trkpt lat="48.62432" lon="2.04995">
        <ele>138.4</ele>
        <time>2024-12-30T13:23:28.115Z</time>
      </trkpt>
      <trkpt lat="48.62436" lon="2.04998">
        <ele>138.3</ele>
        <time>2024-12-30T13:23:31.244Z</time>
      </trkpt>
      <trkpt lat="48.62441" lon="2.05001">
        <ele>138.1</ele>
        <time>2024-12-30T13:23:34.505Z</time>
      </trkpt>
      <trkpt lat="48.62447" lon="2.05004">
        <ele>138</ele>
        <time>2024-12-30T13:23:37.766Z</time>
      </trkpt>
      <trkpt lat="48.62452" lon="2.05006">
        <ele>137.7</ele>
        <time>2024-12-30T13:23:41.027Z</time>
      </trkpt>
      <trkpt lat="48.62458" lon="2.05009">
        <ele>137.4</ele>
        <time>2024-12-30T13:23:44.288Z</time>
      </trkpt>
      <trkpt lat="48.62463" lon="2.05012">
        <ele>137.1</ele>
        <time>2024-12-30T13:23:47.549Z</time>
      </trkpt>
      <trkpt lat="48.62468" lon="2.05015">
        <ele>136.8</ele>
        <time>2024-12-30T13:23:50.810Z</time>
      </trkpt>
      <trkpt lat="48.62474" lon="2.05017">
        <ele>136.5</ele>
        <time>2024-12-30T13:23:54.071Z</time>
      </trkpt>
      <trkpt lat="48.62479" lon="2.0502">
        <ele>136.1</ele>
        <time>2024-12-30T13:23:57.332Z</time>
      </trkpt>
      <trkpt lat="48.62485" lon="2.05023">
        <ele>135.6</ele>
        <time>2024-12-30T13:24:00.676Z</time>
      </trkpt>
      <trkpt lat="48.6249" lon="2.05026">
        <ele>135.1</ele>
        <time>2024-12-30T13:24:04.020Z</time>
      </trkpt>
      <trkpt lat="48.62496" lon="2.05029">
        <ele>134.5</ele>
        <time>2024-12-30T13:24:07.364Z</time>
      </trkpt>
      <trkpt lat="48.62501" lon="2.05032">
        <ele>134.1</ele>
        <time>2024-12-30T13:24:10.708Z</time>
      </trkpt>
      <trkpt lat="48.62507" lon="2.05034">
        <ele>133.8</ele>
        <time>2024-12-30T13:24:14.052Z</time>
      </trkpt>
      <trkpt lat="48.62512" lon="2.05037">
        <ele>133.5</ele>
        <time>2024-12-30T13:24:17.397Z</time>
      </trkpt>
      <trkpt lat="48.62518" lon="2.0504">
        <ele>133.2</ele>
        <time>2024-12-30T13:24:20.742Z</time>
      </trkpt>
      <trkpt lat="48.62523" lon="2.05043">
        <ele>132.9</ele>
        <time>2024-12-30T13:24:24.087Z</time>
      </trkpt>
      <trkpt lat="48.62531" lon="2.05048">
        <ele>132.7</ele>
        <time>2024-12-30T13:24:29.590Z</time>
      </trkpt>
      <trkpt lat="48.62539" lon="2.05052">
        <ele>132.8</ele>
        <time>2024-12-30T13:24:35.093Z</time>
      </trkpt>
      <trkpt lat="48.62546" lon="2.05057">
        <ele>133</ele>
        <time>2024-12-30T13:24:40.596Z</time>
      </trkpt>
      <trkpt lat="48.62554" lon="2.05061">
        <ele>133</ele>
        <time>2024-12-30T13:24:46.100Z</time>
      </trkpt>
      <trkpt lat="48.62562" lon="2.05064">
        <ele>133</ele>
        <time>2024-12-30T13:24:51.728Z</time>
      </trkpt>
      <trkpt lat="48.62571" lon="2.05066">
        <ele>133</ele>
        <time>2024-12-30T13:24:57.357Z</time>
      </trkpt>
      <trkpt lat="48.62579" lon="2.05069">
        <ele>133</ele>
        <time>2024-12-30T13:25:02.986Z</time>
      </trkpt>
      <trkpt lat="48.62587" lon="2.05071">
        <ele>133.2</ele>
        <time>2024-12-30T13:25:08.615Z</time>
      </trkpt>
      <trkpt lat="48.62593" lon="2.05072">
        <ele>133.5</ele>
        <time>2024-12-30T13:25:12.855Z</time>
      </trkpt>
      <trkpt lat="48.62598" lon="2.05072">
        <ele>133.8</ele>
        <time>2024-12-30T13:25:17.095Z</time>
      </trkpt>
      <trkpt lat="48.62604" lon="2.05073">
        <ele>134.2</ele>
        <time>2024-12-30T13:25:21.336Z</time>
      </trkpt>
      <trkpt lat="48.62609" lon="2.05073">
        <ele>134.5</ele>
        <time>2024-12-30T13:25:25.577Z</time>
      </trkpt>
      <trkpt lat="48.62615" lon="2.05074">
        <ele>134.8</ele>
        <time>2024-12-30T13:25:29.818Z</time>
      </trkpt>
      <trkpt lat="48.6262" lon="2.05074">
        <ele>135</ele>
        <time>2024-12-30T13:25:34.059Z</time>
      </trkpt>
      <trkpt lat="48.62626" lon="2.05075">
        <ele>135.2</ele>
        <time>2024-12-30T13:25:38.300Z</time>
      </trkpt>
      <trkpt lat="48.62631" lon="2.05075">
        <ele>135.4</ele>
        <time>2024-12-30T13:25:42.541Z</time>
      </trkpt>
      <trkpt lat="48.6264" lon="2.05077">
        <ele>135.8</ele>
        <time>2024-12-30T13:25:48.587Z</time>
      </trkpt>
      <trkpt lat="48.62648" lon="2.05078">
        <ele>135.8</ele>
        <time>2024-12-30T13:25:54.634Z</time>
      </trkpt>
      <trkpt lat="48.62653" lon="2.0508">
        <ele>135.9</ele>
        <time>2024-12-30T13:25:58.229Z</time>
      </trkpt>
      <trkpt lat="48.62659" lon="2.05082">
        <ele>136</ele>
        <time>2024-12-30T13:26:01.824Z</time>
      </trkpt>
      <trkpt lat="48.62664" lon="2.05084">
        <ele>136</ele>
        <time>2024-12-30T13:26:05.419Z</time>
      </trkpt>
      <trkpt lat="48.62669" lon="2.05087">
        <ele>136</ele>
        <time>2024-12-30T13:26:09.014Z</time>
      </trkpt>
      <trkpt lat="48.62674" lon="2.05089">
        <ele>136</ele>
        <time>2024-12-30T13:26:12.609Z</time>
      </trkpt>
      <trkpt lat="48.6268" lon="2.05091">
        <ele>135.9</ele>
        <time>2024-12-30T13:26:16.204Z</time>
      </trkpt>
      <trkpt lat="48.62685" lon="2.05093">
        <ele>135.9</ele>
        <time>2024-12-30T13:26:19.799Z</time>
      </trkpt>
      <trkpt lat="48.6269" lon="2.05095">
        <ele>135.9</ele>
        <time>2024-12-30T13:26:23.395Z</time>
      </trkpt>
      <trkpt lat="48.62697" lon="2.05099">
        <ele>136.1</ele>
        <time>2024-12-30T13:26:28.723Z</time>
      </trkpt>
      <trkpt lat="48.62704" lon="2.05102">
        <ele>136.3</ele>
        <time>2024-12-30T13:26:34.052Z</time>
      </trkpt>
      <trkpt lat="48.62711" lon="2.05106">
        <ele>136.6</ele>
        <time>2024-12-30T13:26:39.381Z</time>
      </trkpt>
      <trkpt lat="48.62718" lon="2.05109">
        <ele>136.8</ele>
        <time>2024-12-30T13:26:44.710Z</time>
      </trkpt>
      <trkpt lat="48.62723" lon="2.05109">
        <ele>136.9</ele>
        <time>2024-12-30T13:26:48.514Z</time>
      </trkpt>
      <trkpt lat="48.62729" lon="2.0511">
        <ele>137.1</ele>
        <time>2024-12-30T13:26:52.318Z</time>
      </trkpt>
      <trkpt lat="48.62734" lon="2.0511">
        <ele>137.3</ele>
        <time>2024-12-30T13:26:56.122Z</time>
      </trkpt>
      <trkpt lat="48.62739" lon="2.05111">
        <ele>137.6</ele>
        <time>2024-12-30T13:26:59.926Z</time>
      </trkpt>
      <trkpt lat="48.62744" lon="2.05111">
        <ele>137.8</ele>
        <time>2024-12-30T13:27:03.730Z</time>
      </trkpt>
      <trkpt lat="48.6275" lon="2.05111">
        <ele>138</ele>
        <time>2024-12-30T13:27:07.534Z</time>
      </trkpt>
      <trkpt lat="48.62755" lon="2.05112">
        <ele>138</ele>
        <time>2024-12-30T13:27:11.338Z</time>
      </trkpt>
      <trkpt lat="48.6276" lon="2.05112">
        <ele>138.1</ele>
        <time>2024-12-30T13:27:15.142Z</time>
      </trkpt>
      <trkpt lat="48.62758" lon="2.05123">
        <ele>138.9</ele>
        <time>2024-12-30T13:27:22.165Z</time>
        <extensions>
          <visugpx:TrkExtension xmlns:visugpx="https://www.visugpx.com/editgpx/">
            <visugpx:node>33</visugpx:node>
            </visugpx:TrkExtension>
        </extensions>
      </trkpt>
      <trkpt lat="48.6276" lon="2.05112">
        <ele>138.1</ele>
        <time>2024-12-30T13:27:26.499Z</time>
      </trkpt>
      <trkpt lat="48.62765" lon="2.05109">
        <ele>137.8</ele>
        <time>2024-12-30T13:27:29.626Z</time>
      </trkpt>
      <trkpt lat="48.6277" lon="2.05106">
        <ele>137.5</ele>
        <time>2024-12-30T13:27:32.753Z</time>
      </trkpt>
      <trkpt lat="48.62775" lon="2.05102">
        <ele>137.1</ele>
        <time>2024-12-30T13:27:35.881Z</time>
      </trkpt>
      <trkpt lat="48.6278" lon="2.05099">
        <ele>136.9</ele>
        <time>2024-12-30T13:27:39.009Z</time>
      </trkpt>
      <trkpt lat="48.62785" lon="2.05093">
        <ele>136.5</ele>
        <time>2024-12-30T13:27:42.797Z</time>
      </trkpt>
      <trkpt lat="48.6279" lon="2.05086">
        <ele>136.2</ele>
        <time>2024-12-30T13:27:46.586Z</time>
      </trkpt>
      <trkpt lat="48.62793" lon="2.05079">
        <ele>135.8</ele>
        <time>2024-12-30T13:27:49.692Z</time>
      </trkpt>
      <trkpt lat="48.62795" lon="2.05072">
        <ele>135.5</ele>
        <time>2024-12-30T13:27:52.798Z</time>
      </trkpt>
      <trkpt lat="48.62798" lon="2.05064">
        <ele>135.2</ele>
        <time>2024-12-30T13:27:55.904Z</time>
      </trkpt>
      <trkpt lat="48.628" lon="2.05057">
        <ele>134.9</ele>
        <time>2024-12-30T13:27:59.011Z</time>
      </trkpt>
      <trkpt lat="48.62802" lon="2.05046">
        <ele>134.5</ele>
        <time>2024-12-30T13:28:03.293Z</time>
      </trkpt>
      <trkpt lat="48.62804" lon="2.05036">
        <ele>134.2</ele>
        <time>2024-12-30T13:28:07.575Z</time>
      </trkpt>
      <trkpt lat="48.62806" lon="2.05025">
        <ele>133.9</ele>
        <time>2024-12-30T13:28:11.857Z</time>
      </trkpt>
      <trkpt lat="48.62808" lon="2.05015">
        <ele>133.7</ele>
        <time>2024-12-30T13:28:16.139Z</time>
      </trkpt>
      <trkpt lat="48.6281" lon="2.05004">
        <ele>133.5</ele>
        <time>2024-12-30T13:28:20.421Z</time>
      </trkpt>
      <trkpt lat="48.62812" lon="2.04993">
        <ele>133.2</ele>
        <time>2024-12-30T13:28:24.704Z</time>
      </trkpt>
      <trkpt lat="48.62814" lon="2.04983">
        <ele>133</ele>
        <time>2024-12-30T13:28:28.987Z</time>
      </trkpt>
      <trkpt lat="48.62816" lon="2.04972">
        <ele>132.7</ele>
        <time>2024-12-30T13:28:33.270Z</time>
      </trkpt>
      <trkpt lat="48.62819" lon="2.04964">
        <ele>132.5</ele>
        <time>2024-12-30T13:28:37.075Z</time>
      </trkpt>
      <trkpt lat="48.62822" lon="2.04955">
        <ele>132.3</ele>
        <time>2024-12-30T13:28:40.880Z</time>
      </trkpt>
      <trkpt lat="48.62825" lon="2.04947">
        <ele>132.2</ele>
        <time>2024-12-30T13:28:44.452Z</time>
      </trkpt>
      <trkpt lat="48.62828" lon="2.04939">
        <ele>132.1</ele>
        <time>2024-12-30T13:28:48.024Z</time>
      </trkpt>
      <trkpt lat="48.62831" lon="2.04931">
        <ele>131.8</ele>
        <time>2024-12-30T13:28:51.596Z</time>
      </trkpt>
      <trkpt lat="48.62834" lon="2.04923">
        <ele>131.5</ele>
        <time>2024-12-30T13:28:55.168Z</time>
      </trkpt>
      <trkpt lat="48.62837" lon="2.04915">
        <ele>131.1</ele>
        <time>2024-12-30T13:28:58.740Z</time>
      </trkpt>
      <trkpt lat="48.6284" lon="2.04907">
        <ele>130.9</ele>
        <time>2024-12-30T13:29:02.312Z</time>
      </trkpt>
      <trkpt lat="48.62843" lon="2.04899">
        <ele>130.7</ele>
        <time>2024-12-30T13:29:05.885Z</time>
      </trkpt>
      <trkpt lat="48.62846" lon="2.04891">
        <ele>130.5</ele>
        <time>2024-12-30T13:29:09.458Z</time>
      </trkpt>
      <trkpt lat="48.6285" lon="2.04886">
        <ele>130.4</ele>
        <time>2024-12-30T13:29:12.962Z</time>
      </trkpt>
      <trkpt lat="48.62855" lon="2.04881">
        <ele>130.4</ele>
        <time>2024-12-30T13:29:16.466Z</time>
      </trkpt>
      <trkpt lat="48.62859" lon="2.04875">
        <ele>130.4</ele>
        <time>2024-12-30T13:29:19.971Z</time>
      </trkpt>
      <trkpt lat="48.62863" lon="2.0487">
        <ele>130.3</ele>
        <time>2024-12-30T13:29:23.476Z</time>
      </trkpt>
      <trkpt lat="48.62869" lon="2.04867">
        <ele>130.2</ele>
        <time>2024-12-30T13:29:27.419Z</time>
      </trkpt>
      <trkpt lat="48.62875" lon="2.04864">
        <ele>130.1</ele>
        <time>2024-12-30T13:29:31.363Z</time>
      </trkpt>
      <trkpt lat="48.62881" lon="2.0486">
        <ele>130</ele>
        <time>2024-12-30T13:29:35.307Z</time>
      </trkpt>
      <trkpt lat="48.62887" lon="2.04857">
        <ele>129.8</ele>
        <time>2024-12-30T13:29:39.251Z</time>
      </trkpt>
      <trkpt lat="48.62895" lon="2.04855">
        <ele>129.7</ele>
        <time>2024-12-30T13:29:44.212Z</time>
      </trkpt>
      <trkpt lat="48.62902" lon="2.04853">
        <ele>129.6</ele>
        <time>2024-12-30T13:29:49.173Z</time>
      </trkpt>
      <trkpt lat="48.6291" lon="2.04851">
        <ele>129.3</ele>
        <time>2024-12-30T13:29:54.134Z</time>
      </trkpt>
      <trkpt lat="48.62917" lon="2.04849">
        <ele>129.1</ele>
        <time>2024-12-30T13:29:59.096Z</time>
      </trkpt>
      <trkpt lat="48.62925" lon="2.04846">
        <ele>129.2</ele>
        <time>2024-12-30T13:30:04.058Z</time>
      </trkpt>
      <trkpt lat="48.62932" lon="2.04844">
        <ele>129.3</ele>
        <time>2024-12-30T13:30:09.020Z</time>
      </trkpt>
      <trkpt lat="48.6294" lon="2.04842">
        <ele>129.5</ele>
        <time>2024-12-30T13:30:13.982Z</time>
      </trkpt>
      <trkpt lat="48.62947" lon="2.0484">
        <ele>129.6</ele>
        <time>2024-12-30T13:30:18.944Z</time>
      </trkpt>
      <trkpt lat="48.62954" lon="2.04834">
        <ele>129.4</ele>
        <time>2024-12-30T13:30:23.844Z</time>
      </trkpt>
      <trkpt lat="48.62957" lon="2.04828">
        <ele>129.2</ele>
        <time>2024-12-30T13:30:26.824Z</time>
      </trkpt>
      <trkpt lat="48.62959" lon="2.04821">
        <ele>129.1</ele>
        <time>2024-12-30T13:30:29.805Z</time>
      </trkpt>
      <trkpt lat="48.62959" lon="2.04814">
        <ele>128.8</ele>
        <time>2024-12-30T13:30:32.464Z</time>
      </trkpt>
      <trkpt lat="48.62959" lon="2.04803">
        <ele>128.5</ele>
        <time>2024-12-30T13:30:37.021Z</time>
      </trkpt>
      <trkpt lat="48.62959" lon="2.04792">
        <ele>128.3</ele>
        <time>2024-12-30T13:30:41.579Z</time>
      </trkpt>
      <trkpt lat="48.62958" lon="2.04781">
        <ele>128.1</ele>
        <time>2024-12-30T13:30:46.137Z</time>
      </trkpt>
      <trkpt lat="48.62958" lon="2.0477">
        <ele>127.9</ele>
        <time>2024-12-30T13:30:50.695Z</time>
      </trkpt>
      <trkpt lat="48.62958" lon="2.04759">
        <ele>127.6</ele>
        <time>2024-12-30T13:30:55.253Z</time>
      </trkpt>
      <trkpt lat="48.62958" lon="2.04748">
        <ele>127.5</ele>
        <time>2024-12-30T13:30:59.811Z</time>
      </trkpt>
      <trkpt lat="48.62957" lon="2.04737">
        <ele>127.7</ele>
        <time>2024-12-30T13:31:04.369Z</time>
      </trkpt>
      <trkpt lat="48.62957" lon="2.04726">
        <ele>127.9</ele>
        <time>2024-12-30T13:31:08.928Z</time>
      </trkpt>
      <trkpt lat="48.62958" lon="2.0472">
        <ele>128</ele>
        <time>2024-12-30T13:31:11.827Z</time>
        <extensions>
          <visugpx:TrkExtension xmlns:visugpx="https://www.visugpx.com/editgpx/">
            <visugpx:node>34</visugpx:node>
            </visugpx:TrkExtension>
        </extensions>
      </trkpt>
      <trkpt lat="48.6296" lon="2.04711">
        <ele>128.2</ele>
        <time>2024-12-30T13:31:16.383Z</time>
      </trkpt>
      <trkpt lat="48.62962" lon="2.04709">
        <ele>128.3</ele>
        <time>2024-12-30T13:31:18.180Z</time>
      </trkpt>
      <trkpt lat="48.62957" lon="2.04703">
        <ele>128.3</ele>
        <time>2024-12-30T13:31:22.463Z</time>
      </trkpt>
      <trkpt lat="48.62952" lon="2.04696">
        <ele>128.3</ele>
        <time>2024-12-30T13:31:26.746Z</time>
      </trkpt>
      <trkpt lat="48.62947" lon="2.0469">
        <ele>128.3</ele>
        <time>2024-12-30T13:31:31.029Z</time>
      </trkpt>
      <trkpt lat="48.62943" lon="2.04684">
        <ele>128.3</ele>
        <time>2024-12-30T13:31:35.312Z</time>
      </trkpt>
      <trkpt lat="48.62938" lon="2.04677">
        <ele>128.4</ele>
        <time>2024-12-30T13:31:39.595Z</time>
      </trkpt>
      <trkpt lat="48.62933" lon="2.04671">
        <ele>128.4</ele>
        <time>2024-12-30T13:31:43.878Z</time>
      </trkpt>
      <trkpt lat="48.62928" lon="2.04664">
        <ele>128.5</ele>
        <time>2024-12-30T13:31:48.161Z</time>
      </trkpt>
      <trkpt lat="48.62923" lon="2.04658">
        <ele>128.5</ele>
        <time>2024-12-30T13:31:52.446Z</time>
      </trkpt>
      <trkpt lat="48.62919" lon="2.04653">
        <ele>128.6</ele>
        <time>2024-12-30T13:31:56.152Z</time>
      </trkpt>
      <trkpt lat="48.62915" lon="2.04647">
        <ele>128.6</ele>
        <time>2024-12-30T13:31:59.858Z</time>
      </trkpt>
      <trkpt lat="48.62911" lon="2.04642">
        <ele>128.7</ele>
        <time>2024-12-30T13:32:03.564Z</time>
      </trkpt>
      <trkpt lat="48.62907" lon="2.04636">
        <ele>128.8</ele>
        <time>2024-12-30T13:32:07.271Z</time>
      </trkpt>
      <trkpt lat="48.6291" lon="2.04627">
        <ele>129.2</ele>
        <time>2024-12-30T13:32:12.439Z</time>
      </trkpt>
      <trkpt lat="48.62912" lon="2.04618">
        <ele>129.6</ele>
        <time>2024-12-30T13:32:17.608Z</time>
      </trkpt>
      <trkpt lat="48.62915" lon="2.04609">
        <ele>129.9</ele>
        <time>2024-12-30T13:32:22.305Z</time>
      </trkpt>
      <trkpt lat="48.62918" lon="2.04601">
        <ele>130</ele>
        <time>2024-12-30T13:32:27.003Z</time>
      </trkpt>
      <trkpt lat="48.6292" lon="2.04592">
        <ele>130.2</ele>
        <time>2024-12-30T13:32:31.701Z</time>
      </trkpt>
      <trkpt lat="48.62923" lon="2.04583">
        <ele>130.5</ele>
        <time>2024-12-30T13:32:36.399Z</time>
      </trkpt>
      <trkpt lat="48.62925" lon="2.04577">
        <ele>131.1</ele>
        <time>2024-12-30T13:32:40.740Z</time>
      </trkpt>
      <trkpt lat="48.62928" lon="2.04571">
        <ele>131.7</ele>
        <time>2024-12-30T13:32:45.082Z</time>
      </trkpt>
      <trkpt lat="48.6293" lon="2.04565">
        <ele>132.3</ele>
        <time>2024-12-30T13:32:49.424Z</time>
      </trkpt>
      <trkpt lat="48.62932" lon="2.04559">
        <ele>132.9</ele>
        <time>2024-12-30T13:32:53.766Z</time>
      </trkpt>
      <trkpt lat="48.62934" lon="2.04552">
        <ele>133.4</ele>
        <time>2024-12-30T13:32:58.108Z</time>
      </trkpt>
      <trkpt lat="48.62937" lon="2.04546">
        <ele>133.8</ele>
        <time>2024-12-30T13:33:02.450Z</time>
      </trkpt>
      <trkpt lat="48.62939" lon="2.0454">
        <ele>134.1</ele>
        <time>2024-12-30T13:33:06.792Z</time>
      </trkpt>
      <trkpt lat="48.62941" lon="2.04534">
        <ele>134.5</ele>
        <time>2024-12-30T13:33:11.134Z</time>
      </trkpt>
      <trkpt lat="48.62945" lon="2.04524">
        <ele>135.3</ele>
        <time>2024-12-30T13:33:17.745Z</time>
      </trkpt>
      <trkpt lat="48.62949" lon="2.04515">
        <ele>136.4</ele>
        <time>2024-12-30T13:33:24.356Z</time>
      </trkpt>
      <trkpt lat="48.62953" lon="2.04505">
        <ele>137.5</ele>
        <time>2024-12-30T13:33:30.967Z</time>
      </trkpt>
      <trkpt lat="48.62957" lon="2.04496">
        <ele>138.5</ele>
        <time>2024-12-30T13:33:37.579Z</time>
      </trkpt>
      <trkpt lat="48.6296" lon="2.04486">
        <ele>139.2</ele>
        <time>2024-12-30T13:33:44.191Z</time>
      </trkpt>
      <trkpt lat="48.62964" lon="2.04476">
        <ele>140</ele>
        <time>2024-12-30T13:33:50.803Z</time>
      </trkpt>
      <trkpt lat="48.62968" lon="2.04467">
        <ele>140.6</ele>
        <time>2024-12-30T13:33:57.415Z</time>
      </trkpt>
      <trkpt lat="48.62972" lon="2.04457">
        <ele>141</ele>
        <time>2024-12-30T13:34:04.027Z</time>
      </trkpt>
      <trkpt lat="48.62976" lon="2.04447">
        <ele>141.3</ele>
        <time>2024-12-30T13:34:10.639Z</time>
      </trkpt>
      <trkpt lat="48.6298" lon="2.04438">
        <ele>141.8</ele>
        <time>2024-12-30T13:34:17.251Z</time>
      </trkpt>
      <trkpt lat="48.62984" lon="2.04428">
        <ele>142.4</ele>
        <time>2024-12-30T13:34:23.863Z</time>
      </trkpt>
      <trkpt lat="48.62988" lon="2.04419">
        <ele>143</ele>
        <time>2024-12-30T13:34:30.475Z</time>
      </trkpt>
      <trkpt lat="48.62991" lon="2.04409">
        <ele>143.7</ele>
        <time>2024-12-30T13:34:37.087Z</time>
      </trkpt>
      <trkpt lat="48.62995" lon="2.04399">
        <ele>144.4</ele>
        <time>2024-12-30T13:34:43.699Z</time>
      </trkpt>
      <trkpt lat="48.62999" lon="2.0439">
        <ele>144.9</ele>
        <time>2024-12-30T13:34:50.311Z</time>
      </trkpt>
      <trkpt lat="48.63003" lon="2.0438">
        <ele>145.5</ele>
        <time>2024-12-30T13:34:56.923Z</time>
      </trkpt>
      <trkpt lat="48.63006" lon="2.04372">
        <ele>146</ele>
        <time>2024-12-30T13:35:02.030Z</time>
      </trkpt>
      <trkpt lat="48.6301" lon="2.04365">
        <ele>146.6</ele>
        <time>2024-12-30T13:35:07.137Z</time>
      </trkpt>
      <trkpt lat="48.63013" lon="2.04357">
        <ele>147.1</ele>
        <time>2024-12-30T13:35:12.244Z</time>
      </trkpt>
      <trkpt lat="48.63016" lon="2.0435">
        <ele>147.7</ele>
        <time>2024-12-30T13:35:17.351Z</time>
      </trkpt>
      <trkpt lat="48.63019" lon="2.04342">
        <ele>148.3</ele>
        <time>2024-12-30T13:35:22.458Z</time>
      </trkpt>
      <trkpt lat="48.63023" lon="2.04334">
        <ele>148.8</ele>
        <time>2024-12-30T13:35:27.565Z</time>
      </trkpt>
      <trkpt lat="48.63026" lon="2.04327">
        <ele>149.4</ele>
        <time>2024-12-30T13:35:32.672Z</time>
      </trkpt>
      <trkpt lat="48.63029" lon="2.04319">
        <ele>150.1</ele>
        <time>2024-12-30T13:35:37.779Z</time>
      </trkpt>
      <trkpt lat="48.63032" lon="2.04311">
        <ele>150.9</ele>
        <time>2024-12-30T13:35:42.887Z</time>
      </trkpt>
      <trkpt lat="48.63036" lon="2.04304">
        <ele>151.6</ele>
        <time>2024-12-30T13:35:47.995Z</time>
      </trkpt>
      <trkpt lat="48.63039" lon="2.04296">
        <ele>151.9</ele>
        <time>2024-12-30T13:35:53.103Z</time>
      </trkpt>
      <trkpt lat="48.63042" lon="2.04289">
        <ele>152.3</ele>
        <time>2024-12-30T13:35:58.211Z</time>
      </trkpt>
      <trkpt lat="48.63045" lon="2.04281">
        <ele>152.8</ele>
        <time>2024-12-30T13:36:03.319Z</time>
      </trkpt>
      <trkpt lat="48.63049" lon="2.04273">
        <ele>153.1</ele>
        <time>2024-12-30T13:36:08.427Z</time>
      </trkpt>
      <trkpt lat="48.63052" lon="2.04266">
        <ele>153.2</ele>
        <time>2024-12-30T13:36:13.535Z</time>
      </trkpt>
      <trkpt lat="48.63055" lon="2.04258">
        <ele>153.2</ele>
        <time>2024-12-30T13:36:18.643Z</time>
      </trkpt>
      <trkpt lat="48.63059" lon="2.0425">
        <ele>153.4</ele>
        <time>2024-12-30T13:36:23.720Z</time>
      </trkpt>
      <trkpt lat="48.63063" lon="2.04241">
        <ele>153.7</ele>
        <time>2024-12-30T13:36:28.798Z</time>
        <extensions>
          <visugpx:TrkExtension xmlns:visugpx="https://www.visugpx.com/editgpx/">
            <visugpx:node>35</visugpx:node>
            </visugpx:TrkExtension>
        </extensions>
      </trkpt>
      <trkpt lat="48.63066" lon="2.04236">
        <ele>153.9</ele>
        <time>2024-12-30T13:36:32.176Z</time>
      </trkpt>
      <trkpt lat="48.6306" lon="2.04228">
        <ele>153.4</ele>
        <time>2024-12-30T13:36:36.772Z</time>
      </trkpt>
      <trkpt lat="48.63054" lon="2.0422">
        <ele>152.7</ele>
        <time>2024-12-30T13:36:41.369Z</time>
      </trkpt>
      <trkpt lat="48.63051" lon="2.04215">
        <ele>152.1</ele>
        <time>2024-12-30T13:36:44.041Z</time>
      </trkpt>
      <trkpt lat="48.63047" lon="2.0421">
        <ele>151.5</ele>
        <time>2024-12-30T13:36:46.713Z</time>
      </trkpt>
      <trkpt lat="48.63044" lon="2.04205">
        <ele>150.9</ele>
        <time>2024-12-30T13:36:49.385Z</time>
      </trkpt>
      <trkpt lat="48.63041" lon="2.042">
        <ele>150.4</ele>
        <time>2024-12-30T13:36:52.057Z</time>
      </trkpt>
      <trkpt lat="48.63037" lon="2.04195">
        <ele>149.8</ele>
        <time>2024-12-30T13:36:54.729Z</time>
      </trkpt>
      <trkpt lat="48.63034" lon="2.0419">
        <ele>149.3</ele>
        <time>2024-12-30T13:36:57.401Z</time>
      </trkpt>
      <trkpt lat="48.63031" lon="2.04185">
        <ele>148.9</ele>
        <time>2024-12-30T13:37:00.073Z</time>
      </trkpt>
      <trkpt lat="48.63028" lon="2.04181">
        <ele>148.5</ele>
        <time>2024-12-30T13:37:02.745Z</time>
      </trkpt>
      <trkpt lat="48.63024" lon="2.04176">
        <ele>148.2</ele>
        <time>2024-12-30T13:37:05.417Z</time>
      </trkpt>
      <trkpt lat="48.63021" lon="2.04171">
        <ele>147.9</ele>
        <time>2024-12-30T13:37:08.089Z</time>
      </trkpt>
      <trkpt lat="48.63018" lon="2.04166">
        <ele>147.6</ele>
        <time>2024-12-30T13:37:10.761Z</time>
      </trkpt>
      <trkpt lat="48.63014" lon="2.04161">
        <ele>147.1</ele>
        <time>2024-12-30T13:37:13.434Z</time>
      </trkpt>
      <trkpt lat="48.63011" lon="2.04156">
        <ele>146.6</ele>
        <time>2024-12-30T13:37:16.107Z</time>
      </trkpt>
      <trkpt lat="48.63008" lon="2.04151">
        <ele>146.1</ele>
        <time>2024-12-30T13:37:18.780Z</time>
      </trkpt>
      <trkpt lat="48.63004" lon="2.04146">
        <ele>145.7</ele>
        <time>2024-12-30T13:37:21.453Z</time>
      </trkpt>
      <trkpt lat="48.63001" lon="2.04141">
        <ele>145.2</ele>
        <time>2024-12-30T13:37:24.127Z</time>
      </trkpt>
      <trkpt lat="48.62999" lon="2.04134">
        <ele>144.7</ele>
        <time>2024-12-30T13:37:26.881Z</time>
      </trkpt>
      <trkpt lat="48.62998" lon="2.04128">
        <ele>144.2</ele>
        <time>2024-12-30T13:37:29.635Z</time>
      </trkpt>
      <trkpt lat="48.62996" lon="2.04121">
        <ele>143.7</ele>
        <time>2024-12-30T13:37:32.389Z</time>
      </trkpt>
      <trkpt lat="48.62994" lon="2.04114">
        <ele>143.2</ele>
        <time>2024-12-30T13:37:35.144Z</time>
      </trkpt>
      <trkpt lat="48.62997" lon="2.04117">
        <ele>143.4</ele>
        <time>2024-12-30T13:37:37.964Z</time>
        <extensions>
          <visugpx:TrkExtension xmlns:visugpx="https://www.visugpx.com/editgpx/">
            <visugpx:node>36</visugpx:node>
            </visugpx:TrkExtension>
        </extensions>
      </trkpt>
      <trkpt lat="48.63002" lon="2.04123">
        <ele>143.9</ele>
        <time>2024-12-30T13:37:44.047Z</time>
      </trkpt>
      <trkpt lat="48.63008" lon="2.04129">
        <ele>144.6</ele>
        <time>2024-12-30T13:37:50.130Z</time>
      </trkpt>
      <trkpt lat="48.63013" lon="2.04135">
        <ele>145.2</ele>
        <time>2024-12-30T13:37:56.213Z</time>
      </trkpt>
      <trkpt lat="48.63019" lon="2.04141">
        <ele>145.8</ele>
        <time>2024-12-30T13:38:02.296Z</time>
      </trkpt>
      <trkpt lat="48.63024" lon="2.04146">
        <ele>146.4</ele>
        <time>2024-12-30T13:38:08.379Z</time>
      </trkpt>
      <trkpt lat="48.63029" lon="2.04152">
        <ele>147</ele>
        <time>2024-12-30T13:38:14.462Z</time>
      </trkpt>
      <trkpt lat="48.63035" lon="2.04158">
        <ele>147.6</ele>
        <time>2024-12-30T13:38:20.545Z</time>
      </trkpt>
      <trkpt lat="48.6304" lon="2.04164">
        <ele>148.2</ele>
        <time>2024-12-30T13:38:26.628Z</time>
      </trkpt>
      <trkpt lat="48.63045" lon="2.0417">
        <ele>148.8</ele>
        <time>2024-12-30T13:38:32.711Z</time>
      </trkpt>
      <trkpt lat="48.63051" lon="2.04176">
        <ele>149.4</ele>
        <time>2024-12-30T13:38:38.794Z</time>
      </trkpt>
      <trkpt lat="48.63056" lon="2.04182">
        <ele>150.1</ele>
        <time>2024-12-30T13:38:44.877Z</time>
      </trkpt>
      <trkpt lat="48.63062" lon="2.04188">
        <ele>150.9</ele>
        <time>2024-12-30T13:38:50.961Z</time>
      </trkpt>
      <trkpt lat="48.63067" lon="2.04193">
        <ele>151.7</ele>
        <time>2024-12-30T13:38:57.045Z</time>
      </trkpt>
      <trkpt lat="48.63072" lon="2.04199">
        <ele>152.6</ele>
        <time>2024-12-30T13:39:03.129Z</time>
      </trkpt>
      <trkpt lat="48.63078" lon="2.04205">
        <ele>153.4</ele>
        <time>2024-12-30T13:39:09.213Z</time>
      </trkpt>
      <trkpt lat="48.63083" lon="2.04211">
        <ele>154.2</ele>
        <time>2024-12-30T13:39:15.297Z</time>
      </trkpt>
      <trkpt lat="48.63089" lon="2.04218">
        <ele>155</ele>
        <time>2024-12-30T13:39:20.929Z</time>
      </trkpt>
      <trkpt lat="48.63094" lon="2.04224">
        <ele>155.8</ele>
        <time>2024-12-30T13:39:26.561Z</time>
      </trkpt>
      <trkpt lat="48.631" lon="2.04231">
        <ele>156.3</ele>
        <time>2024-12-30T13:39:32.193Z</time>
      </trkpt>
      <trkpt lat="48.63106" lon="2.04237">
        <ele>156.7</ele>
        <time>2024-12-30T13:39:37.826Z</time>
      </trkpt>
      <trkpt lat="48.63111" lon="2.04244">
        <ele>157</ele>
        <time>2024-12-30T13:39:43.459Z</time>
      </trkpt>
      <trkpt lat="48.63117" lon="2.0425">
        <ele>157.2</ele>
        <time>2024-12-30T13:39:49.092Z</time>
      </trkpt>
      <trkpt lat="48.63122" lon="2.04257">
        <ele>157.4</ele>
        <time>2024-12-30T13:39:54.725Z</time>
      </trkpt>
      <trkpt lat="48.63128" lon="2.04263">
        <ele>157.6</ele>
        <time>2024-12-30T13:40:00.358Z</time>
        <extensions>
          <visugpx:TrkExtension xmlns:visugpx="https://www.visugpx.com/editgpx/">
            <visugpx:node>37</visugpx:node>
            </visugpx:TrkExtension>
        </extensions>
      </trkpt>
      <trkpt lat="48.63134" lon="2.0427">
        <ele>157.8</ele>
        <time>2024-12-30T13:40:05.400Z</time>
      </trkpt>
      <trkpt lat="48.6314" lon="2.04277">
        <ele>158</ele>
        <time>2024-12-30T13:40:10.442Z</time>
      </trkpt>
      <trkpt lat="48.63145" lon="2.04283">
        <ele>158.2</ele>
        <time>2024-12-30T13:40:15.484Z</time>
      </trkpt>
      <trkpt lat="48.63151" lon="2.0429">
        <ele>158.4</ele>
        <time>2024-12-30T13:40:20.527Z</time>
      </trkpt>
      <trkpt lat="48.63157" lon="2.04297">
        <ele>158.6</ele>
        <time>2024-12-30T13:40:25.570Z</time>
      </trkpt>
      <trkpt lat="48.63163" lon="2.04304">
        <ele>158.8</ele>
        <time>2024-12-30T13:40:30.613Z</time>
      </trkpt>
      <trkpt lat="48.63168" lon="2.0431">
        <ele>158.8</ele>
        <time>2024-12-30T13:40:35.656Z</time>
      </trkpt>
      <trkpt lat="48.63174" lon="2.04317">
        <ele>158.6</ele>
        <time>2024-12-30T13:40:40.699Z</time>
      </trkpt>
      <trkpt lat="48.63179" lon="2.04322">
        <ele>158.4</ele>
        <time>2024-12-30T13:40:44.210Z</time>
      </trkpt>
      <trkpt lat="48.63184" lon="2.04328">
        <ele>158.2</ele>
        <time>2024-12-30T13:40:47.721Z</time>
      </trkpt>
      <trkpt lat="48.63189" lon="2.04333">
        <ele>158</ele>
        <time>2024-12-30T13:40:51.232Z</time>
      </trkpt>
      <trkpt lat="48.63194" lon="2.04338">
        <ele>157.8</ele>
        <time>2024-12-30T13:40:54.743Z</time>
      </trkpt>
      <trkpt lat="48.63199" lon="2.04344">
        <ele>157.6</ele>
        <time>2024-12-30T13:40:58.254Z</time>
      </trkpt>
      <trkpt lat="48.63204" lon="2.04349">
        <ele>157.2</ele>
        <time>2024-12-30T13:41:01.765Z</time>
      </trkpt>
      <trkpt lat="48.63209" lon="2.04354">
        <ele>156.9</ele>
        <time>2024-12-30T13:41:05.276Z</time>
      </trkpt>
      <trkpt lat="48.63214" lon="2.0436">
        <ele>156.4</ele>
        <time>2024-12-30T13:41:08.787Z</time>
      </trkpt>
      <trkpt lat="48.63219" lon="2.04365">
        <ele>156</ele>
        <time>2024-12-30T13:41:12.298Z</time>
      </trkpt>
      <trkpt lat="48.63224" lon="2.0437">
        <ele>155.6</ele>
        <time>2024-12-30T13:41:15.809Z</time>
      </trkpt>
      <trkpt lat="48.63229" lon="2.04375">
        <ele>155.2</ele>
        <time>2024-12-30T13:41:19.320Z</time>
      </trkpt>
      <trkpt lat="48.63234" lon="2.04381">
        <ele>154.9</ele>
        <time>2024-12-30T13:41:22.832Z</time>
      </trkpt>
      <trkpt lat="48.63239" lon="2.04386">
        <ele>154.5</ele>
        <time>2024-12-30T13:41:26.344Z</time>
      </trkpt>
      <trkpt lat="48.63244" lon="2.04391">
        <ele>154.1</ele>
        <time>2024-12-30T13:41:29.856Z</time>
      </trkpt>
      <trkpt lat="48.63249" lon="2.04397">
        <ele>153.8</ele>
        <time>2024-12-30T13:41:33.368Z</time>
      </trkpt>
      <trkpt lat="48.63254" lon="2.04402">
        <ele>153.4</ele>
        <time>2024-12-30T13:41:36.880Z</time>
      </trkpt>
      <trkpt lat="48.63258" lon="2.04407">
        <ele>153</ele>
        <time>2024-12-30T13:41:39.977Z</time>
      </trkpt>
      <trkpt lat="48.63262" lon="2.04413">
        <ele>152.7</ele>
        <time>2024-12-30T13:41:43.075Z</time>
      </trkpt>
      <trkpt lat="48.63266" lon="2.04418">
        <ele>152.4</ele>
        <time>2024-12-30T13:41:46.173Z</time>
      </trkpt>
      <trkpt lat="48.63271" lon="2.04423">
        <ele>152</ele>
        <time>2024-12-30T13:41:49.271Z</time>
      </trkpt>
      <trkpt lat="48.63275" lon="2.04428">
        <ele>151.7</ele>
        <time>2024-12-30T13:41:52.369Z</time>
      </trkpt>
      <trkpt lat="48.63279" lon="2.04434">
        <ele>151.4</ele>
        <time>2024-12-30T13:41:55.467Z</time>
      </trkpt>
      <trkpt lat="48.63283" lon="2.04439">
        <ele>151</ele>
        <time>2024-12-30T13:41:58.565Z</time>
      </trkpt>
      <trkpt lat="48.63287" lon="2.04444">
        <ele>150.7</ele>
        <time>2024-12-30T13:42:01.663Z</time>
      </trkpt>
      <trkpt lat="48.63292" lon="2.04451">
        <ele>150.4</ele>
        <time>2024-12-30T13:42:05.707Z</time>
      </trkpt>
      <trkpt lat="48.63298" lon="2.04458">
        <ele>150.1</ele>
        <time>2024-12-30T13:42:09.752Z</time>
      </trkpt>
      <trkpt lat="48.63303" lon="2.04465">
        <ele>150</ele>
        <time>2024-12-30T13:42:13.797Z</time>
      </trkpt>
      <trkpt lat="48.63309" lon="2.04472">
        <ele>149.8</ele>
        <time>2024-12-30T13:42:17.842Z</time>
      </trkpt>
      <trkpt lat="48.63314" lon="2.04478">
        <ele>149.2</ele>
        <time>2024-12-30T13:42:21.887Z</time>
      </trkpt>
      <trkpt lat="48.63319" lon="2.04485">
        <ele>148.8</ele>
        <time>2024-12-30T13:42:25.932Z</time>
      </trkpt>
      <trkpt lat="48.63325" lon="2.04492">
        <ele>148.4</ele>
        <time>2024-12-30T13:42:29.977Z</time>
      </trkpt>
      <trkpt lat="48.6333" lon="2.04499">
        <ele>148.1</ele>
        <time>2024-12-30T13:42:34.022Z</time>
      </trkpt>
      <trkpt lat="48.63333" lon="2.04504">
        <ele>147.8</ele>
        <time>2024-12-30T13:42:36.789Z</time>
      </trkpt>
      <trkpt lat="48.63337" lon="2.0451">
        <ele>147.4</ele>
        <time>2024-12-30T13:42:39.556Z</time>
      </trkpt>
      <trkpt lat="48.6334" lon="2.04515">
        <ele>147</ele>
        <time>2024-12-30T13:42:42.323Z</time>
      </trkpt>
      <trkpt lat="48.63343" lon="2.04521">
        <ele>146.6</ele>
        <time>2024-12-30T13:42:45.090Z</time>
      </trkpt>
      <trkpt lat="48.63346" lon="2.04526">
        <ele>146.1</ele>
        <time>2024-12-30T13:42:47.857Z</time>
      </trkpt>
      <trkpt lat="48.6335" lon="2.04531">
        <ele>145.7</ele>
        <time>2024-12-30T13:42:50.624Z</time>
      </trkpt>
      <trkpt lat="48.63353" lon="2.04537">
        <ele>145.3</ele>
        <time>2024-12-30T13:42:53.391Z</time>
      </trkpt>
      <trkpt lat="48.63356" lon="2.04542">
        <ele>144.9</ele>
        <time>2024-12-30T13:42:56.158Z</time>
      </trkpt>
      <trkpt lat="48.63359" lon="2.04547">
        <ele>144.4</ele>
        <time>2024-12-30T13:42:58.925Z</time>
      </trkpt>
      <trkpt lat="48.63363" lon="2.04553">
        <ele>144.1</ele>
        <time>2024-12-30T13:43:01.692Z</time>
      </trkpt>
      <trkpt lat="48.63366" lon="2.04558">
        <ele>144</ele>
        <time>2024-12-30T13:43:04.459Z</time>
      </trkpt>
      <trkpt lat="48.63369" lon="2.04564">
        <ele>143.9</ele>
        <time>2024-12-30T13:43:07.226Z</time>
      </trkpt>
      <trkpt lat="48.63372" lon="2.04569">
        <ele>143.8</ele>
        <time>2024-12-30T13:43:09.993Z</time>
      </trkpt>
      <trkpt lat="48.63376" lon="2.04574">
        <ele>143.7</ele>
        <time>2024-12-30T13:43:12.760Z</time>
      </trkpt>
      <trkpt lat="48.63379" lon="2.0458">
        <ele>143.5</ele>
        <time>2024-12-30T13:43:15.528Z</time>
      </trkpt>
      <trkpt lat="48.63382" lon="2.04585">
        <ele>143.2</ele>
        <time>2024-12-30T13:43:18.296Z</time>
      </trkpt>
      <trkpt lat="48.63386" lon="2.04592">
        <ele>142.8</ele>
        <time>2024-12-30T13:43:21.840Z</time>
      </trkpt>
      <trkpt lat="48.63389" lon="2.046">
        <ele>142.4</ele>
        <time>2024-12-30T13:43:25.384Z</time>
      </trkpt>
      <trkpt lat="48.63393" lon="2.04607">
        <ele>142.1</ele>
        <time>2024-12-30T13:43:28.928Z</time>
      </trkpt>
      <trkpt lat="48.63396" lon="2.04614">
        <ele>142</ele>
        <time>2024-12-30T13:43:32.473Z</time>
      </trkpt>
      <trkpt lat="48.634" lon="2.04621">
        <ele>141.9</ele>
        <time>2024-12-30T13:43:36.018Z</time>
      </trkpt>
      <trkpt lat="48.63403" lon="2.04629">
        <ele>141.7</ele>
        <time>2024-12-30T13:43:39.563Z</time>
      </trkpt>
      <trkpt lat="48.63407" lon="2.04636">
        <ele>141.4</ele>
        <time>2024-12-30T13:43:43.108Z</time>
      </trkpt>
      <trkpt lat="48.63411" lon="2.04643">
        <ele>141.2</ele>
        <time>2024-12-30T13:43:46.653Z</time>
      </trkpt>
      <trkpt lat="48.63414" lon="2.0465">
        <ele>141.1</ele>
        <time>2024-12-30T13:43:50.198Z</time>
      </trkpt>
      <trkpt lat="48.63418" lon="2.04658">
        <ele>141</ele>
        <time>2024-12-30T13:43:53.743Z</time>
      </trkpt>
      <trkpt lat="48.63421" lon="2.04665">
        <ele>140.8</ele>
        <time>2024-12-30T13:43:57.288Z</time>
      </trkpt>
      <trkpt lat="48.63425" lon="2.04672">
        <ele>140.7</ele>
        <time>2024-12-30T13:44:00.833Z</time>
      </trkpt>
      <trkpt lat="48.63428" lon="2.04679">
        <ele>140.6</ele>
        <time>2024-12-30T13:44:04.378Z</time>
      </trkpt>
      <trkpt lat="48.63432" lon="2.04687">
        <ele>140.5</ele>
        <time>2024-12-30T13:44:07.923Z</time>
      </trkpt>
      <trkpt lat="48.63435" lon="2.04694">
        <ele>140.3</ele>
        <time>2024-12-30T13:44:11.468Z</time>
      </trkpt>
      <trkpt lat="48.63439" lon="2.04701">
        <ele>140</ele>
        <time>2024-12-30T13:44:15.013Z</time>
      </trkpt>
      <trkpt lat="48.63443" lon="2.04711">
        <ele>139.5</ele>
        <time>2024-12-30T13:44:19.346Z</time>
      </trkpt>
      <trkpt lat="48.63447" lon="2.0472">
        <ele>139.1</ele>
        <time>2024-12-30T13:44:23.679Z</time>
      </trkpt>
      <trkpt lat="48.6345" lon="2.0473">
        <ele>139</ele>
        <time>2024-12-30T13:44:28.012Z</time>
      </trkpt>
      <trkpt lat="48.63454" lon="2.04739">
        <ele>139</ele>
        <time>2024-12-30T13:44:32.345Z</time>
      </trkpt>
      <trkpt lat="48.63456" lon="2.04747">
        <ele>139</ele>
        <time>2024-12-30T13:44:36.165Z</time>
      </trkpt>
      <trkpt lat="48.63459" lon="2.04754">
        <ele>138.9</ele>
        <time>2024-12-30T13:44:39.985Z</time>
      </trkpt>
      <trkpt lat="48.63461" lon="2.04762">
        <ele>138.8</ele>
        <time>2024-12-30T13:44:43.805Z</time>
      </trkpt>
      <trkpt lat="48.63464" lon="2.04769">
        <ele>138.8</ele>
        <time>2024-12-30T13:44:47.625Z</time>
      </trkpt>
      <trkpt lat="48.63466" lon="2.04777">
        <ele>138.8</ele>
        <time>2024-12-30T13:44:51.445Z</time>
      </trkpt>
      <trkpt lat="48.63468" lon="2.04784">
        <ele>139</ele>
        <time>2024-12-30T13:44:55.266Z</time>
      </trkpt>
      <trkpt lat="48.63471" lon="2.04792">
        <ele>139.4</ele>
        <time>2024-12-30T13:44:59.087Z</time>
      </trkpt>
      <trkpt lat="48.63473" lon="2.04799">
        <ele>139.8</ele>
        <time>2024-12-30T13:45:02.908Z</time>
      </trkpt>
      <trkpt lat="48.63475" lon="2.04806">
        <ele>140.3</ele>
        <time>2024-12-30T13:45:08.603Z</time>
      </trkpt>
      <trkpt lat="48.63477" lon="2.04813">
        <ele>141.2</ele>
        <time>2024-12-30T13:45:14.298Z</time>
      </trkpt>
      <trkpt lat="48.63479" lon="2.0482">
        <ele>142.1</ele>
        <time>2024-12-30T13:45:19.993Z</time>
      </trkpt>
      <trkpt lat="48.63481" lon="2.04828">
        <ele>143</ele>
        <time>2024-12-30T13:45:25.688Z</time>
      </trkpt>
      <trkpt lat="48.63482" lon="2.04835">
        <ele>143.8</ele>
        <time>2024-12-30T13:45:31.383Z</time>
      </trkpt>
      <trkpt lat="48.63484" lon="2.04842">
        <ele>144.6</ele>
        <time>2024-12-30T13:45:37.078Z</time>
      </trkpt>
      <trkpt lat="48.63486" lon="2.04849">
        <ele>145.4</ele>
        <time>2024-12-30T13:45:42.773Z</time>
      </trkpt>
      <trkpt lat="48.63488" lon="2.04856">
        <ele>146.2</ele>
        <time>2024-12-30T13:45:48.468Z</time>
      </trkpt>
      <trkpt lat="48.6349" lon="2.04863">
        <ele>147.1</ele>
        <time>2024-12-30T13:45:52.394Z</time>
      </trkpt>
      <trkpt lat="48.63491" lon="2.0487">
        <ele>148.1</ele>
        <time>2024-12-30T13:45:56.320Z</time>
      </trkpt>
      <trkpt lat="48.63493" lon="2.04878">
        <ele>149.2</ele>
        <time>2024-12-30T13:46:00.246Z</time>
      </trkpt>
      <trkpt lat="48.63495" lon="2.04885">
        <ele>150.3</ele>
        <time>2024-12-30T13:46:04.172Z</time>
      </trkpt>
      <trkpt lat="48.63497" lon="2.04892">
        <ele>151.3</ele>
        <time>2024-12-30T13:46:08.098Z</time>
      </trkpt>
      <trkpt lat="48.63498" lon="2.04899">
        <ele>151.9</ele>
        <time>2024-12-30T13:46:12.024Z</time>
      </trkpt>
      <trkpt lat="48.635" lon="2.04906">
        <ele>152.6</ele>
        <time>2024-12-30T13:46:15.950Z</time>
      </trkpt>
      <trkpt lat="48.63502" lon="2.04913">
        <ele>152.8</ele>
        <time>2024-12-30T13:46:19.876Z</time>
      </trkpt>
      <trkpt lat="48.63503" lon="2.0492">
        <ele>152.9</ele>
        <time>2024-12-30T13:46:23.802Z</time>
      </trkpt>
      <trkpt lat="48.63505" lon="2.04928">
        <ele>152.9</ele>
        <time>2024-12-30T13:46:27.728Z</time>
      </trkpt>
      <trkpt lat="48.63507" lon="2.04935">
        <ele>152.9</ele>
        <time>2024-12-30T13:46:31.654Z</time>
      </trkpt>
      <trkpt lat="48.63508" lon="2.04942">
        <ele>153</ele>
        <time>2024-12-30T13:46:35.580Z</time>
      </trkpt>
      <trkpt lat="48.6351" lon="2.04949">
        <ele>153</ele>
        <time>2024-12-30T13:46:39.506Z</time>
      </trkpt>
      <trkpt lat="48.63512" lon="2.04956">
        <ele>152.9</ele>
        <time>2024-12-30T13:46:43.432Z</time>
      </trkpt>
      <trkpt lat="48.63514" lon="2.04963">
        <ele>153</ele>
        <time>2024-12-30T13:46:47.358Z</time>
      </trkpt>
      <trkpt lat="48.63515" lon="2.04971">
        <ele>153.1</ele>
        <time>2024-12-30T13:46:51.284Z</time>
      </trkpt>
      <trkpt lat="48.63517" lon="2.04978">
        <ele>153.2</ele>
        <time>2024-12-30T13:46:55.210Z</time>
      </trkpt>
      <trkpt lat="48.63519" lon="2.04985">
        <ele>153.3</ele>
        <time>2024-12-30T13:46:59.136Z</time>
      </trkpt>
      <trkpt lat="48.6352" lon="2.04992">
        <ele>153.5</ele>
        <time>2024-12-30T13:47:03.062Z</time>
      </trkpt>
      <trkpt lat="48.63522" lon="2.04999">
        <ele>153.6</ele>
        <time>2024-12-30T13:47:06.988Z</time>
      </trkpt>
      <trkpt lat="48.63524" lon="2.05006">
        <ele>153.9</ele>
        <time>2024-12-30T13:47:10.914Z</time>
      </trkpt>
      <trkpt lat="48.63526" lon="2.05013">
        <ele>154.3</ele>
        <time>2024-12-30T13:47:14.840Z</time>
      </trkpt>
      <trkpt lat="48.63527" lon="2.05021">
        <ele>154.7</ele>
        <time>2024-12-30T13:47:18.766Z</time>
      </trkpt>
      <trkpt lat="48.63529" lon="2.05028">
        <ele>155</ele>
        <time>2024-12-30T13:47:22.692Z</time>
      </trkpt>
      <trkpt lat="48.63531" lon="2.05035">
        <ele>155.3</ele>
        <time>2024-12-30T13:47:26.618Z</time>
      </trkpt>
      <trkpt lat="48.63532" lon="2.05042">
        <ele>155.7</ele>
        <time>2024-12-30T13:47:30.544Z</time>
      </trkpt>
      <trkpt lat="48.63534" lon="2.05049">
        <ele>156.1</ele>
        <time>2024-12-30T13:47:34.470Z</time>
      </trkpt>
      <trkpt lat="48.63536" lon="2.05056">
        <ele>156.6</ele>
        <time>2024-12-30T13:47:38.396Z</time>
      </trkpt>
      <trkpt lat="48.63537" lon="2.05064">
        <ele>157</ele>
        <time>2024-12-30T13:47:42.322Z</time>
      </trkpt>
      <trkpt lat="48.63539" lon="2.05071">
        <ele>157.5</ele>
        <time>2024-12-30T13:47:46.248Z</time>
      </trkpt>
      <trkpt lat="48.63541" lon="2.05078">
        <ele>158.1</ele>
        <time>2024-12-30T13:47:50.174Z</time>
      </trkpt>
      <trkpt lat="48.63543" lon="2.05085">
        <ele>158.7</ele>
        <time>2024-12-30T13:47:54.100Z</time>
      </trkpt>
      <trkpt lat="48.63544" lon="2.05092">
        <ele>159.1</ele>
        <time>2024-12-30T13:47:58.026Z</time>
      </trkpt>
      <trkpt lat="48.63546" lon="2.05099">
        <ele>159.5</ele>
        <time>2024-12-30T13:48:01.952Z</time>
      </trkpt>
      <trkpt lat="48.63548" lon="2.05107">
        <ele>159.8</ele>
        <time>2024-12-30T13:48:05.878Z</time>
      </trkpt>
      <trkpt lat="48.63549" lon="2.05114">
        <ele>160.1</ele>
        <time>2024-12-30T13:48:09.804Z</time>
      </trkpt>
      <trkpt lat="48.63551" lon="2.05121">
        <ele>160.3</ele>
        <time>2024-12-30T13:48:13.730Z</time>
      </trkpt>
      <trkpt lat="48.63553" lon="2.05128">
        <ele>160.6</ele>
        <time>2024-12-30T13:48:17.656Z</time>
      </trkpt>
      <trkpt lat="48.63554" lon="2.05135">
        <ele>160.8</ele>
        <time>2024-12-30T13:48:21.582Z</time>
      </trkpt>
      <trkpt lat="48.63556" lon="2.05142">
        <ele>161</ele>
        <time>2024-12-30T13:48:25.508Z</time>
      </trkpt>
      <trkpt lat="48.63558" lon="2.05149">
        <ele>160.9</ele>
        <time>2024-12-30T13:48:29.434Z</time>
      </trkpt>
      <trkpt lat="48.6356" lon="2.05157">
        <ele>160.9</ele>
        <time>2024-12-30T13:48:33.360Z</time>
      </trkpt>
      <trkpt lat="48.63561" lon="2.05164">
        <ele>160.9</ele>
        <time>2024-12-30T13:48:37.286Z</time>
      </trkpt>
      <trkpt lat="48.63563" lon="2.05171">
        <ele>160.9</ele>
        <time>2024-12-30T13:48:41.212Z</time>
      </trkpt>
      <trkpt lat="48.63565" lon="2.05178">
        <ele>160.9</ele>
        <time>2024-12-30T13:48:45.138Z</time>
      </trkpt>
      <trkpt lat="48.63566" lon="2.05185">
        <ele>160.9</ele>
        <time>2024-12-30T13:48:49.064Z</time>
      </trkpt>
      <trkpt lat="48.63568" lon="2.05192">
        <ele>160.9</ele>
        <time>2024-12-30T13:48:52.990Z</time>
      </trkpt>
      <trkpt lat="48.6357" lon="2.052">
        <ele>161</ele>
        <time>2024-12-30T13:48:56.916Z</time>
      </trkpt>
      <trkpt lat="48.63572" lon="2.05207">
        <ele>161.3</ele>
        <time>2024-12-30T13:49:00.842Z</time>
      </trkpt>
      <trkpt lat="48.63573" lon="2.05214">
        <ele>161.5</ele>
        <time>2024-12-30T13:49:04.768Z</time>
      </trkpt>
      <trkpt lat="48.63575" lon="2.05221">
        <ele>161.8</ele>
        <time>2024-12-30T13:49:08.694Z</time>
      </trkpt>
      <trkpt lat="48.63577" lon="2.05228">
        <ele>161.9</ele>
        <time>2024-12-30T13:49:12.620Z</time>
      </trkpt>
      <trkpt lat="48.63578" lon="2.05235">
        <ele>162</ele>
        <time>2024-12-30T13:49:16.546Z</time>
      </trkpt>
      <trkpt lat="48.6358" lon="2.05242">
        <ele>162</ele>
        <time>2024-12-30T13:49:20.472Z</time>
      </trkpt>
      <trkpt lat="48.63582" lon="2.0525">
        <ele>161.9</ele>
        <time>2024-12-30T13:49:24.399Z</time>
      </trkpt>
      <trkpt lat="48.63583" lon="2.05257">
        <ele>162</ele>
        <time>2024-12-30T13:49:28.326Z</time>
      </trkpt>
      <trkpt lat="48.63585" lon="2.05264">
        <ele>162.3</ele>
        <time>2024-12-30T13:49:32.253Z</time>
      </trkpt>
      <trkpt lat="48.63587" lon="2.05271">
        <ele>162.6</ele>
        <time>2024-12-30T13:49:36.180Z</time>
      </trkpt>
      <trkpt lat="48.63589" lon="2.05278">
        <ele>162.8</ele>
        <time>2024-12-30T13:49:40.107Z</time>
      </trkpt>
      <trkpt lat="48.6359" lon="2.05285">
        <ele>163.1</ele>
        <time>2024-12-30T13:49:44.034Z</time>
      </trkpt>
      <trkpt lat="48.63592" lon="2.05293">
        <ele>163.4</ele>
        <time>2024-12-30T13:49:47.961Z</time>
      </trkpt>
      <trkpt lat="48.63594" lon="2.053">
        <ele>163.7</ele>
        <time>2024-12-30T13:49:51.888Z</time>
      </trkpt>
      <trkpt lat="48.63595" lon="2.05307">
        <ele>163.8</ele>
        <time>2024-12-30T13:49:55.815Z</time>
      </trkpt>
      <trkpt lat="48.63597" lon="2.05314">
        <ele>163.7</ele>
        <time>2024-12-30T13:49:59.742Z</time>
      </trkpt>
      <trkpt lat="48.636" lon="2.05324">
        <ele>163.4</ele>
        <time>2024-12-30T13:50:05.318Z</time>
      </trkpt>
      <trkpt lat="48.63602" lon="2.05334">
        <ele>163</ele>
        <time>2024-12-30T13:50:10.894Z</time>
      </trkpt>
      <trkpt lat="48.63605" lon="2.05344">
        <ele>163.1</ele>
        <time>2024-12-30T13:50:16.470Z</time>
      </trkpt>
      <trkpt lat="48.63607" lon="2.05355">
        <ele>163.1</ele>
        <time>2024-12-30T13:50:22.046Z</time>
      </trkpt>
      <trkpt lat="48.6361" lon="2.05365">
        <ele>163.2</ele>
        <time>2024-12-30T13:50:27.622Z</time>
      </trkpt>
      <trkpt lat="48.63612" lon="2.05375">
        <ele>163.6</ele>
        <time>2024-12-30T13:50:33.198Z</time>
      </trkpt>
      <trkpt lat="48.63615" lon="2.05385">
        <ele>164.2</ele>
        <time>2024-12-30T13:50:38.774Z</time>
      </trkpt>
      <trkpt lat="48.63617" lon="2.05395">
        <ele>165</ele>
        <time>2024-12-30T13:50:44.350Z</time>
      </trkpt>
      <trkpt lat="48.6362" lon="2.05405">
        <ele>165.7</ele>
        <time>2024-12-30T13:50:49.926Z</time>
      </trkpt>
      <trkpt lat="48.63622" lon="2.05415">
        <ele>166.3</ele>
        <time>2024-12-30T13:50:55.503Z</time>
      </trkpt>
      <trkpt lat="48.63625" lon="2.05425">
        <ele>167.1</ele>
        <time>2024-12-30T13:51:01.080Z</time>
      </trkpt>
      <trkpt lat="48.63627" lon="2.05436">
        <ele>167.9</ele>
        <time>2024-12-30T13:51:06.657Z</time>
      </trkpt>
      <trkpt lat="48.6363" lon="2.05446">
        <ele>168.7</ele>
        <time>2024-12-30T13:51:12.234Z</time>
      </trkpt>
      <trkpt lat="48.63632" lon="2.05456">
        <ele>169.2</ele>
        <time>2024-12-30T13:51:17.811Z</time>
      </trkpt>
      <trkpt lat="48.63635" lon="2.05466">
        <ele>169.6</ele>
        <time>2024-12-30T13:51:23.388Z</time>
      </trkpt>
      <trkpt lat="48.63637" lon="2.05476">
        <ele>169.9</ele>
        <time>2024-12-30T13:51:28.965Z</time>
      </trkpt>
      <trkpt lat="48.6364" lon="2.05484">
        <ele>170</ele>
        <time>2024-12-30T13:51:32.954Z</time>
      </trkpt>
      <trkpt lat="48.63642" lon="2.05492">
        <ele>170</ele>
        <time>2024-12-30T13:51:36.943Z</time>
      </trkpt>
      <trkpt lat="48.63645" lon="2.055">
        <ele>170</ele>
        <time>2024-12-30T13:51:40.932Z</time>
      </trkpt>
      <trkpt lat="48.63648" lon="2.05509">
        <ele>170</ele>
        <time>2024-12-30T13:51:44.921Z</time>
      </trkpt>
      <trkpt lat="48.6365" lon="2.05517">
        <ele>170</ele>
        <time>2024-12-30T13:51:48.910Z</time>
      </trkpt>
      <trkpt lat="48.63653" lon="2.05525">
        <ele>170</ele>
        <time>2024-12-30T13:51:52.899Z</time>
      </trkpt>
      <trkpt lat="48.63655" lon="2.05533">
        <ele>170</ele>
        <time>2024-12-30T13:51:56.888Z</time>
      </trkpt>
      <trkpt lat="48.63658" lon="2.05541">
        <ele>170</ele>
        <time>2024-12-30T13:52:00.877Z</time>
      </trkpt>
      <trkpt lat="48.63661" lon="2.05549">
        <ele>170</ele>
        <time>2024-12-30T13:52:04.867Z</time>
      </trkpt>
      <trkpt lat="48.63663" lon="2.05557">
        <ele>170</ele>
        <time>2024-12-30T13:52:08.857Z</time>
      </trkpt>
      <trkpt lat="48.63666" lon="2.05565">
        <ele>170</ele>
        <time>2024-12-30T13:52:12.847Z</time>
      </trkpt>
      <trkpt lat="48.63669" lon="2.05574">
        <ele>170.1</ele>
        <time>2024-12-30T13:52:16.837Z</time>
      </trkpt>
      <trkpt lat="48.63671" lon="2.05582">
        <ele>170.2</ele>
        <time>2024-12-30T13:52:20.827Z</time>
      </trkpt>
      <trkpt lat="48.63674" lon="2.0559">
        <ele>170.3</ele>
        <time>2024-12-30T13:52:24.817Z</time>
      </trkpt>
      <trkpt lat="48.63676" lon="2.05598">
        <ele>170.4</ele>
        <time>2024-12-30T13:52:28.807Z</time>
      </trkpt>
      <trkpt lat="48.63679" lon="2.05606">
        <ele>170.4</ele>
        <time>2024-12-30T13:52:32.797Z</time>
      </trkpt>
      <trkpt lat="48.63684" lon="2.05615">
        <ele>170.7</ele>
        <time>2024-12-30T13:52:38.086Z</time>
      </trkpt>
      <trkpt lat="48.63688" lon="2.05625">
        <ele>170.9</ele>
        <time>2024-12-30T13:52:43.375Z</time>
      </trkpt>
      <trkpt lat="48.63693" lon="2.05634">
        <ele>171</ele>
        <time>2024-12-30T13:52:48.664Z</time>
      </trkpt>
      <trkpt lat="48.63698" lon="2.05643">
        <ele>171</ele>
        <time>2024-12-30T13:52:53.953Z</time>
      </trkpt>
      <trkpt lat="48.63702" lon="2.05653">
        <ele>171</ele>
        <time>2024-12-30T13:52:59.242Z</time>
      </trkpt>
      <trkpt lat="48.63707" lon="2.05662">
        <ele>171</ele>
        <time>2024-12-30T13:53:04.531Z</time>
      </trkpt>
      <trkpt lat="48.63712" lon="2.05671">
        <ele>171.1</ele>
        <time>2024-12-30T13:53:09.820Z</time>
      </trkpt>
      <trkpt lat="48.63717" lon="2.05681">
        <ele>171.4</ele>
        <time>2024-12-30T13:53:15.109Z</time>
      </trkpt>
      <trkpt lat="48.63721" lon="2.0569">
        <ele>171.8</ele>
        <time>2024-12-30T13:53:20.398Z</time>
      </trkpt>
      <trkpt lat="48.63726" lon="2.05699">
        <ele>172</ele>
        <time>2024-12-30T13:53:25.687Z</time>
      </trkpt>
      <trkpt lat="48.63731" lon="2.05708">
        <ele>172</ele>
        <time>2024-12-30T13:53:30.976Z</time>
      </trkpt>
      <trkpt lat="48.63735" lon="2.05718">
        <ele>172</ele>
        <time>2024-12-30T13:53:36.265Z</time>
      </trkpt>
      <trkpt lat="48.6374" lon="2.05727">
        <ele>172</ele>
        <time>2024-12-30T13:53:41.554Z</time>
      </trkpt>
      <trkpt lat="48.63745" lon="2.05736">
        <ele>172</ele>
        <time>2024-12-30T13:53:46.843Z</time>
      </trkpt>
      <trkpt lat="48.63749" lon="2.05746">
        <ele>172</ele>
        <time>2024-12-30T13:53:52.133Z</time>
      </trkpt>
      <trkpt lat="48.63754" lon="2.05755">
        <ele>172</ele>
        <time>2024-12-30T13:53:57.423Z</time>
      </trkpt>
      <trkpt lat="48.63759" lon="2.05762">
        <ele>172</ele>
        <time>2024-12-30T13:54:02.012Z</time>
      </trkpt>
      <trkpt lat="48.63764" lon="2.0577">
        <ele>172</ele>
        <time>2024-12-30T13:54:06.601Z</time>
      </trkpt>
      <trkpt lat="48.63768" lon="2.05777">
        <ele>172</ele>
        <time>2024-12-30T13:54:11.190Z</time>
      </trkpt>
      <trkpt lat="48.63773" lon="2.05784">
        <ele>172</ele>
        <time>2024-12-30T13:54:15.779Z</time>
      </trkpt>
      <trkpt lat="48.63778" lon="2.05791">
        <ele>172</ele>
        <time>2024-12-30T13:54:20.368Z</time>
      </trkpt>
      <trkpt lat="48.63783" lon="2.05799">
        <ele>172.1</ele>
        <time>2024-12-30T13:54:24.957Z</time>
      </trkpt>
      <trkpt lat="48.63788" lon="2.05806">
        <ele>172.4</ele>
        <time>2024-12-30T13:54:29.546Z</time>
      </trkpt>
      <trkpt lat="48.63793" lon="2.05813">
        <ele>172.5</ele>
        <time>2024-12-30T13:54:34.135Z</time>
      </trkpt>
      <trkpt lat="48.63797" lon="2.0582">
        <ele>172.7</ele>
        <time>2024-12-30T13:54:38.724Z</time>
      </trkpt>
      <trkpt lat="48.63802" lon="2.05828">
        <ele>172.9</ele>
        <time>2024-12-30T13:54:43.313Z</time>
      </trkpt>
      <trkpt lat="48.63807" lon="2.05835">
        <ele>173</ele>
        <time>2024-12-30T13:54:47.902Z</time>
      </trkpt>
      <trkpt lat="48.63812" lon="2.05842">
        <ele>173</ele>
        <time>2024-12-30T13:54:52.491Z</time>
      </trkpt>
      <trkpt lat="48.63817" lon="2.05849">
        <ele>173</ele>
        <time>2024-12-30T13:54:57.080Z</time>
      </trkpt>
      <trkpt lat="48.63821" lon="2.05857">
        <ele>173</ele>
        <time>2024-12-30T13:55:01.670Z</time>
      </trkpt>
      <trkpt lat="48.63826" lon="2.05864">
        <ele>173</ele>
        <time>2024-12-30T13:55:06.260Z</time>
      </trkpt>
      <trkpt lat="48.63831" lon="2.05871">
        <ele>173</ele>
        <time>2024-12-30T13:55:10.850Z</time>
      </trkpt>
      <trkpt lat="48.63837" lon="2.05879">
        <ele>173</ele>
        <time>2024-12-30T13:55:16.089Z</time>
      </trkpt>
      <trkpt lat="48.63844" lon="2.05886">
        <ele>173</ele>
        <time>2024-12-30T13:55:21.328Z</time>
      </trkpt>
      <trkpt lat="48.6385" lon="2.05894">
        <ele>173</ele>
        <time>2024-12-30T13:55:26.567Z</time>
      </trkpt>
      <trkpt lat="48.63856" lon="2.05901">
        <ele>173</ele>
        <time>2024-12-30T13:55:31.806Z</time>
      </trkpt>
      <trkpt lat="48.63862" lon="2.05909">
        <ele>173</ele>
        <time>2024-12-30T13:55:37.045Z</time>
      </trkpt>
      <trkpt lat="48.63869" lon="2.05916">
        <ele>173</ele>
        <time>2024-12-30T13:55:42.284Z</time>
      </trkpt>
      <trkpt lat="48.63875" lon="2.05924">
        <ele>173</ele>
        <time>2024-12-30T13:55:47.524Z</time>
      </trkpt>
      <trkpt lat="48.63881" lon="2.05931">
        <ele>173</ele>
        <time>2024-12-30T13:55:52.764Z</time>
      </trkpt>
      <trkpt lat="48.63887" lon="2.05936">
        <ele>173</ele>
        <time>2024-12-30T13:55:57.164Z</time>
      </trkpt>
      <trkpt lat="48.63893" lon="2.05941">
        <ele>173</ele>
        <time>2024-12-30T13:56:01.564Z</time>
      </trkpt>
      <trkpt lat="48.63899" lon="2.05946">
        <ele>173</ele>
        <time>2024-12-30T13:56:05.965Z</time>
      </trkpt>
      <trkpt lat="48.63905" lon="2.05951">
        <ele>173</ele>
        <time>2024-12-30T13:56:10.366Z</time>
      </trkpt>
      <trkpt lat="48.6391" lon="2.05955">
        <ele>173</ele>
        <time>2024-12-30T13:56:14.767Z</time>
      </trkpt>
      <trkpt lat="48.63916" lon="2.0596">
        <ele>173</ele>
        <time>2024-12-30T13:56:19.168Z</time>
      </trkpt>
      <trkpt lat="48.63922" lon="2.05965">
        <ele>173</ele>
        <time>2024-12-30T13:56:23.569Z</time>
      </trkpt>
      <trkpt lat="48.63928" lon="2.0597">
        <ele>173</ele>
        <time>2024-12-30T13:56:27.970Z</time>
      </trkpt>
      <trkpt lat="48.63934" lon="2.05975">
        <ele>173</ele>
        <time>2024-12-30T13:56:32.371Z</time>
      </trkpt>
      <trkpt lat="48.6394" lon="2.0598">
        <ele>173</ele>
        <time>2024-12-30T13:56:36.772Z</time>
      </trkpt>
      <trkpt lat="48.63946" lon="2.05985">
        <ele>173</ele>
        <time>2024-12-30T13:56:41.173Z</time>
      </trkpt>
      <trkpt lat="48.63952" lon="2.0599">
        <ele>173</ele>
        <time>2024-12-30T13:56:45.574Z</time>
      </trkpt>
      <trkpt lat="48.63957" lon="2.05994">
        <ele>173</ele>
        <time>2024-12-30T13:56:49.975Z</time>
      </trkpt>
      <trkpt lat="48.63963" lon="2.05999">
        <ele>173</ele>
        <time>2024-12-30T13:56:54.376Z</time>
      </trkpt>
      <trkpt lat="48.63969" lon="2.06004">
        <ele>173</ele>
        <time>2024-12-30T13:56:58.777Z</time>
      </trkpt>
      <trkpt lat="48.63975" lon="2.06009">
        <ele>173</ele>
        <time>2024-12-30T13:57:03.178Z</time>
      </trkpt>
      <trkpt lat="48.63982" lon="2.06015">
        <ele>173</ele>
        <time>2024-12-30T13:57:08.150Z</time>
      </trkpt>
      <trkpt lat="48.63989" lon="2.0602">
        <ele>173</ele>
        <time>2024-12-30T13:57:13.122Z</time>
      </trkpt>
      <trkpt lat="48.63995" lon="2.06026">
        <ele>173</ele>
        <time>2024-12-30T13:57:18.094Z</time>
      </trkpt>
      <trkpt lat="48.64002" lon="2.06031">
        <ele>173</ele>
        <time>2024-12-30T13:57:23.066Z</time>
      </trkpt>
      <trkpt lat="48.64009" lon="2.06037">
        <ele>173</ele>
        <time>2024-12-30T13:57:28.039Z</time>
      </trkpt>
      <trkpt lat="48.64016" lon="2.06042">
        <ele>173</ele>
        <time>2024-12-30T13:57:33.012Z</time>
      </trkpt>
      <trkpt lat="48.64022" lon="2.06048">
        <ele>173</ele>
        <time>2024-12-30T13:57:37.985Z</time>
      </trkpt>
      <trkpt lat="48.64029" lon="2.06053">
        <ele>173</ele>
        <time>2024-12-30T13:57:42.958Z</time>
      </trkpt>
      <trkpt lat="48.64036" lon="2.06059">
        <ele>173</ele>
        <time>2024-12-30T13:57:47.931Z</time>
      </trkpt>
      <trkpt lat="48.64043" lon="2.06064">
        <ele>173</ele>
        <time>2024-12-30T13:57:52.904Z</time>
      </trkpt>
      <trkpt lat="48.64049" lon="2.0607">
        <ele>173</ele>
        <time>2024-12-30T13:57:57.877Z</time>
      </trkpt>
      <trkpt lat="48.64056" lon="2.06075">
        <ele>173</ele>
        <time>2024-12-30T13:58:02.850Z</time>
      </trkpt>
      <trkpt lat="48.64063" lon="2.06081">
        <ele>173</ele>
        <time>2024-12-30T13:58:07.823Z</time>
      </trkpt>
      <trkpt lat="48.6407" lon="2.06086">
        <ele>173</ele>
        <time>2024-12-30T13:58:12.796Z</time>
      </trkpt>
      <trkpt lat="48.64076" lon="2.06092">
        <ele>172.8</ele>
        <time>2024-12-30T13:58:17.769Z</time>
      </trkpt>
      <trkpt lat="48.64083" lon="2.06097">
        <ele>172.5</ele>
        <time>2024-12-30T13:58:22.742Z</time>
      </trkpt>
      <trkpt lat="48.64088" lon="2.06101">
        <ele>172</ele>
        <time>2024-12-30T13:58:26.240Z</time>
      </trkpt>
      <trkpt lat="48.64093" lon="2.06106">
        <ele>171.5</ele>
        <time>2024-12-30T13:58:29.738Z</time>
      </trkpt>
      <trkpt lat="48.64098" lon="2.0611">
        <ele>171</ele>
        <time>2024-12-30T13:58:33.236Z</time>
      </trkpt>
      <trkpt lat="48.64103" lon="2.06114">
        <ele>170.7</ele>
        <time>2024-12-30T13:58:36.734Z</time>
      </trkpt>
      <trkpt lat="48.64108" lon="2.06119">
        <ele>170.5</ele>
        <time>2024-12-30T13:58:40.232Z</time>
      </trkpt>
      <trkpt lat="48.64113" lon="2.06123">
        <ele>170.2</ele>
        <time>2024-12-30T13:58:43.730Z</time>
      </trkpt>
      <trkpt lat="48.64118" lon="2.06127">
        <ele>169.8</ele>
        <time>2024-12-30T13:58:47.228Z</time>
      </trkpt>
      <trkpt lat="48.64123" lon="2.06132">
        <ele>169.4</ele>
        <time>2024-12-30T13:58:50.726Z</time>
      </trkpt>
      <trkpt lat="48.64128" lon="2.06136">
        <ele>169.1</ele>
        <time>2024-12-30T13:58:54.224Z</time>
      </trkpt>
      <trkpt lat="48.64133" lon="2.0614">
        <ele>168.7</ele>
        <time>2024-12-30T13:58:57.723Z</time>
      </trkpt>
      <trkpt lat="48.64138" lon="2.06144">
        <ele>168.5</ele>
        <time>2024-12-30T13:59:01.222Z</time>
      </trkpt>
      <trkpt lat="48.64143" lon="2.06149">
        <ele>168.4</ele>
        <time>2024-12-30T13:59:04.721Z</time>
      </trkpt>
      <trkpt lat="48.64148" lon="2.06153">
        <ele>168.2</ele>
        <time>2024-12-30T13:59:08.220Z</time>
      </trkpt>
      <trkpt lat="48.64153" lon="2.06157">
        <ele>168</ele>
        <time>2024-12-30T13:59:11.719Z</time>
      </trkpt>
      <trkpt lat="48.64158" lon="2.06162">
        <ele>167.7</ele>
        <time>2024-12-30T13:59:15.218Z</time>
      </trkpt>
      <trkpt lat="48.64163" lon="2.06166">
        <ele>167.4</ele>
        <time>2024-12-30T13:59:18.717Z</time>
      </trkpt>
      <trkpt lat="48.64168" lon="2.0617">
        <ele>167.3</ele>
        <time>2024-12-30T13:59:22.216Z</time>
      </trkpt>
      <trkpt lat="48.64173" lon="2.06175">
        <ele>167.5</ele>
        <time>2024-12-30T13:59:25.715Z</time>
      </trkpt>
      <trkpt lat="48.64178" lon="2.06179">
        <ele>167.6</ele>
        <time>2024-12-30T13:59:29.214Z</time>
      </trkpt>
      <trkpt lat="48.64183" lon="2.06183">
        <ele>167.5</ele>
        <time>2024-12-30T13:59:32.713Z</time>
      </trkpt>
      <trkpt lat="48.64188" lon="2.06188">
        <ele>167.3</ele>
        <time>2024-12-30T13:59:36.212Z</time>
      </trkpt>
      <trkpt lat="48.64193" lon="2.06192">
        <ele>167.1</ele>
        <time>2024-12-30T13:59:39.711Z</time>
      </trkpt>
      <trkpt lat="48.64198" lon="2.06196">
        <ele>167.1</ele>
        <time>2024-12-30T13:59:43.210Z</time>
      </trkpt>
      <trkpt lat="48.64203" lon="2.06201">
        <ele>167.3</ele>
        <time>2024-12-30T13:59:46.709Z</time>
      </trkpt>
      <trkpt lat="48.64208" lon="2.06205">
        <ele>167.4</ele>
        <time>2024-12-30T13:59:50.208Z</time>
      </trkpt>
      <trkpt lat="48.64213" lon="2.06209">
        <ele>167.6</ele>
        <time>2024-12-30T13:59:53.707Z</time>
      </trkpt>
      <trkpt lat="48.64218" lon="2.06213">
        <ele>167.6</ele>
        <time>2024-12-30T13:59:57.206Z</time>
      </trkpt>
      <trkpt lat="48.64223" lon="2.06218">
        <ele>167.7</ele>
        <time>2024-12-30T14:00:00.705Z</time>
      </trkpt>
      <trkpt lat="48.64228" lon="2.06222">
        <ele>167.8</ele>
        <time>2024-12-30T14:00:04.204Z</time>
      </trkpt>
      <trkpt lat="48.64233" lon="2.06226">
        <ele>167.9</ele>
        <time>2024-12-30T14:00:07.703Z</time>
      </trkpt>
      <trkpt lat="48.64238" lon="2.06231">
        <ele>167.9</ele>
        <time>2024-12-30T14:00:11.202Z</time>
      </trkpt>
      <trkpt lat="48.64243" lon="2.06235">
        <ele>167.8</ele>
        <time>2024-12-30T14:00:14.701Z</time>
      </trkpt>
      <trkpt lat="48.64248" lon="2.06239">
        <ele>167.7</ele>
        <time>2024-12-30T14:00:18.440Z</time>
      </trkpt>
      <trkpt lat="48.64254" lon="2.06243">
        <ele>167.8</ele>
        <time>2024-12-30T14:00:22.179Z</time>
      </trkpt>
      <trkpt lat="48.64259" lon="2.06248">
        <ele>167.9</ele>
        <time>2024-12-30T14:00:25.918Z</time>
      </trkpt>
      <trkpt lat="48.64264" lon="2.06252">
        <ele>168.1</ele>
        <time>2024-12-30T14:00:29.657Z</time>
      </trkpt>
      <trkpt lat="48.6427" lon="2.06256">
        <ele>168.1</ele>
        <time>2024-12-30T14:00:33.396Z</time>
      </trkpt>
      <trkpt lat="48.64275" lon="2.0626">
        <ele>168.1</ele>
        <time>2024-12-30T14:00:37.135Z</time>
      </trkpt>
      <trkpt lat="48.6428" lon="2.06264">
        <ele>167.9</ele>
        <time>2024-12-30T14:00:40.874Z</time>
      </trkpt>
      <trkpt lat="48.64286" lon="2.06269">
        <ele>167.6</ele>
        <time>2024-12-30T14:00:44.613Z</time>
      </trkpt>
      <trkpt lat="48.64291" lon="2.06273">
        <ele>167.4</ele>
        <time>2024-12-30T14:00:48.352Z</time>
      </trkpt>
      <trkpt lat="48.64296" lon="2.06277">
        <ele>167.3</ele>
        <time>2024-12-30T14:00:52.091Z</time>
      </trkpt>
      <trkpt lat="48.64301" lon="2.06281">
        <ele>167.2</ele>
        <time>2024-12-30T14:00:55.830Z</time>
      </trkpt>
      <trkpt lat="48.64307" lon="2.06285">
        <ele>167</ele>
        <time>2024-12-30T14:00:59.569Z</time>
      </trkpt>
      <trkpt lat="48.64312" lon="2.06289">
        <ele>166.8</ele>
        <time>2024-12-30T14:01:03.308Z</time>
      </trkpt>
      <trkpt lat="48.64317" lon="2.06294">
        <ele>166.6</ele>
        <time>2024-12-30T14:01:07.048Z</time>
      </trkpt>
      <trkpt lat="48.64323" lon="2.06298">
        <ele>166.4</ele>
        <time>2024-12-30T14:01:10.788Z</time>
      </trkpt>
      <trkpt lat="48.64328" lon="2.06302">
        <ele>166.2</ele>
        <time>2024-12-30T14:01:14.528Z</time>
      </trkpt>
      <trkpt lat="48.64334" lon="2.06309">
        <ele>166</ele>
        <time>2024-12-30T14:01:19.081Z</time>
      </trkpt>
      <trkpt lat="48.64341" lon="2.06315">
        <ele>165.7</ele>
        <time>2024-12-30T14:01:23.634Z</time>
      </trkpt>
      <trkpt lat="48.64347" lon="2.06322">
        <ele>165.5</ele>
        <time>2024-12-30T14:01:28.188Z</time>
      </trkpt>
      <trkpt lat="48.64353" lon="2.06328">
        <ele>165.3</ele>
        <time>2024-12-30T14:01:32.742Z</time>
      </trkpt>
      <trkpt lat="48.64359" lon="2.06335">
        <ele>165.1</ele>
        <time>2024-12-30T14:01:37.296Z</time>
      </trkpt>
      <trkpt lat="48.64366" lon="2.06341">
        <ele>164.8</ele>
        <time>2024-12-30T14:01:41.850Z</time>
      </trkpt>
      <trkpt lat="48.64372" lon="2.06348">
        <ele>164.6</ele>
        <time>2024-12-30T14:01:46.404Z</time>
      </trkpt>
      <trkpt lat="48.64378" lon="2.06354">
        <ele>164.4</ele>
        <time>2024-12-30T14:01:50.958Z</time>
      </trkpt>
      <trkpt lat="48.64384" lon="2.06359">
        <ele>164.2</ele>
        <time>2024-12-30T14:01:54.732Z</time>
      </trkpt>
      <trkpt lat="48.6439" lon="2.06363">
        <ele>164</ele>
        <time>2024-12-30T14:01:58.506Z</time>
      </trkpt>
      <trkpt lat="48.64395" lon="2.06368">
        <ele>163.8</ele>
        <time>2024-12-30T14:02:02.280Z</time>
      </trkpt>
      <trkpt lat="48.64401" lon="2.06373">
        <ele>163.6</ele>
        <time>2024-12-30T14:02:06.054Z</time>
      </trkpt>
      <trkpt lat="48.64407" lon="2.06377">
        <ele>163.3</ele>
        <time>2024-12-30T14:02:09.828Z</time>
      </trkpt>
      <trkpt lat="48.64413" lon="2.06382">
        <ele>163.1</ele>
        <time>2024-12-30T14:02:13.602Z</time>
      </trkpt>
      <trkpt lat="48.64419" lon="2.06386">
        <ele>162.9</ele>
        <time>2024-12-30T14:02:17.376Z</time>
      </trkpt>
      <trkpt lat="48.64425" lon="2.06391">
        <ele>162.4</ele>
        <time>2024-12-30T14:02:21.150Z</time>
      </trkpt>
      <trkpt lat="48.6443" lon="2.06396">
        <ele>162</ele>
        <time>2024-12-30T14:02:24.924Z</time>
      </trkpt>
      <trkpt lat="48.64436" lon="2.064">
        <ele>161.6</ele>
        <time>2024-12-30T14:02:28.698Z</time>
      </trkpt>
      <trkpt lat="48.64442" lon="2.06405">
        <ele>161.2</ele>
        <time>2024-12-30T14:02:32.472Z</time>
      </trkpt>
      <trkpt lat="48.64448" lon="2.0641">
        <ele>160.8</ele>
        <time>2024-12-30T14:02:36.246Z</time>
      </trkpt>
      <trkpt lat="48.64454" lon="2.06414">
        <ele>160.3</ele>
        <time>2024-12-30T14:02:40.020Z</time>
      </trkpt>
      <trkpt lat="48.64459" lon="2.06419">
        <ele>159.9</ele>
        <time>2024-12-30T14:02:43.795Z</time>
      </trkpt>
      <trkpt lat="48.64465" lon="2.06423">
        <ele>159.3</ele>
        <time>2024-12-30T14:02:47.570Z</time>
      </trkpt>
      <trkpt lat="48.64471" lon="2.06428">
        <ele>158.7</ele>
        <time>2024-12-30T14:02:51.345Z</time>
        <extensions>
          <visugpx:TrkExtension xmlns:visugpx="https://www.visugpx.com/editgpx/">
            <visugpx:node>38</visugpx:node>
            </visugpx:TrkExtension>
        </extensions>
      </trkpt>
      <trkpt lat="48.64475" lon="2.06431">
        <ele>158.3</ele>
        <time>2024-12-30T14:02:53.910Z</time>
      </trkpt>
      <trkpt lat="48.64481" lon="2.06424">
        <ele>158.1</ele>
        <time>2024-12-30T14:02:58.504Z</time>
      </trkpt>
      <trkpt lat="48.64486" lon="2.06425">
        <ele>157.7</ele>
        <time>2024-12-30T14:03:01.402Z</time>
      </trkpt>
      <trkpt lat="48.64486" lon="2.06435">
        <ele>157.3</ele>
        <time>2024-12-30T14:03:05.200Z</time>
        <extensions>
          <visugpx:TrkExtension xmlns:visugpx="https://www.visugpx.com/editgpx/">
            <visugpx:node>39</visugpx:node>
            </visugpx:TrkExtension>
        </extensions>
      </trkpt>
      <trkpt lat="48.64485" lon="2.06444">
        <ele>157.1</ele>
        <time>2024-12-30T14:03:08.719Z</time>
      </trkpt>
      <trkpt lat="48.64485" lon="2.06453">
        <ele>156.8</ele>
        <time>2024-12-30T14:03:12.238Z</time>
      </trkpt>
      <trkpt lat="48.64484" lon="2.06461">
        <ele>156.6</ele>
        <time>2024-12-30T14:03:15.757Z</time>
      </trkpt>
      <trkpt lat="48.64483" lon="2.0647">
        <ele>156.3</ele>
        <time>2024-12-30T14:03:19.276Z</time>
      </trkpt>
      <trkpt lat="48.64482" lon="2.06479">
        <ele>156.2</ele>
        <time>2024-12-30T14:03:22.795Z</time>
      </trkpt>
      <trkpt lat="48.64482" lon="2.06488">
        <ele>156.1</ele>
        <time>2024-12-30T14:03:26.314Z</time>
      </trkpt>
      <trkpt lat="48.64481" lon="2.06496">
        <ele>156.1</ele>
        <time>2024-12-30T14:03:29.834Z</time>
      </trkpt>
      <trkpt lat="48.6448" lon="2.06505">
        <ele>156</ele>
        <time>2024-12-30T14:03:33.355Z</time>
      </trkpt>
      <trkpt lat="48.64479" lon="2.06515">
        <ele>155.9</ele>
        <time>2024-12-30T14:03:37.644Z</time>
      </trkpt>
      <trkpt lat="48.64478" lon="2.06525">
        <ele>155.7</ele>
        <time>2024-12-30T14:03:41.933Z</time>
      </trkpt>
      <trkpt lat="48.64477" lon="2.06535">
        <ele>155.7</ele>
        <time>2024-12-30T14:03:46.223Z</time>
      </trkpt>
      <trkpt lat="48.64476" lon="2.06545">
        <ele>155.8</ele>
        <time>2024-12-30T14:03:50.514Z</time>
        <extensions>
          <visugpx:TrkExtension xmlns:visugpx="https://www.visugpx.com/editgpx/">
            <visugpx:node>40</visugpx:node>
            </visugpx:TrkExtension>
        </extensions>
      </trkpt>
      <trkpt lat="48.64476" lon="2.06553">
        <ele>155.9</ele>
        <time>2024-12-30T14:03:53.785Z</time>
      </trkpt>
      <trkpt lat="48.64475" lon="2.0656">
        <ele>155.8</ele>
        <time>2024-12-30T14:03:57.057Z</time>
      </trkpt>
      <trkpt lat="48.64474" lon="2.06572">
        <ele>155.4</ele>
        <time>2024-12-30T14:04:02.122Z</time>
      </trkpt>
      <trkpt lat="48.64473" lon="2.06585">
        <ele>155</ele>
        <time>2024-12-30T14:04:07.187Z</time>
      </trkpt>
      <trkpt lat="48.64472" lon="2.06597">
        <ele>155</ele>
        <time>2024-12-30T14:04:12.252Z</time>
      </trkpt>
      <trkpt lat="48.64471" lon="2.06609">
        <ele>155.2</ele>
        <time>2024-12-30T14:04:17.318Z</time>
      </trkpt>
      <trkpt lat="48.64471" lon="2.06618">
        <ele>155.2</ele>
        <time>2024-12-30T14:04:21.124Z</time>
      </trkpt>
      <trkpt lat="48.6447" lon="2.06626">
        <ele>155.3</ele>
        <time>2024-12-30T14:04:24.931Z</time>
      </trkpt>
      <trkpt lat="48.64469" lon="2.06632">
        <ele>155.4</ele>
        <time>2024-12-30T14:04:27.830Z</time>
        <extensions>
          <visugpx:TrkExtension xmlns:visugpx="https://www.visugpx.com/editgpx/">
            <visugpx:node>41</visugpx:node>
            </visugpx:TrkExtension>
        </extensions>
      </trkpt>
      <trkpt lat="48.64468" lon="2.0664">
        <ele>155.4</ele>
        <time>2024-12-30T14:04:31.627Z</time>
      </trkpt>
      <trkpt lat="48.64468" lon="2.06649">
        <ele>155.5</ele>
        <time>2024-12-30T14:04:35.424Z</time>
      </trkpt>
      <trkpt lat="48.64467" lon="2.06657">
        <ele>155.6</ele>
        <time>2024-12-30T14:04:39.221Z</time>
      </trkpt>
      <trkpt lat="48.64466" lon="2.06666">
        <ele>155.7</ele>
        <time>2024-12-30T14:04:43.018Z</time>
      </trkpt>
      <trkpt lat="48.64465" lon="2.06674">
        <ele>155.8</ele>
        <time>2024-12-30T14:04:46.815Z</time>
      </trkpt>
      <trkpt lat="48.64465" lon="2.06682">
        <ele>155.8</ele>
        <time>2024-12-30T14:04:50.612Z</time>
      </trkpt>
      <trkpt lat="48.64464" lon="2.06691">
        <ele>155.9</ele>
        <time>2024-12-30T14:04:54.409Z</time>
      </trkpt>
      <trkpt lat="48.64463" lon="2.06699">
        <ele>155.9</ele>
        <time>2024-12-30T14:04:58.208Z</time>
        <extensions>
          <visugpx:TrkExtension xmlns:visugpx="https://www.visugpx.com/editgpx/">
            <visugpx:node>42</visugpx:node>
            </visugpx:TrkExtension>
        </extensions>
      </trkpt>
      <trkpt lat="48.64463" lon="2.06708">
        <ele>155.9</ele>
        <time>2024-12-30T14:05:01.861Z</time>
      </trkpt>
      <trkpt lat="48.64462" lon="2.06716">
        <ele>155.8</ele>
        <time>2024-12-30T14:05:05.514Z</time>
      </trkpt>
      <trkpt lat="48.64462" lon="2.06725">
        <ele>155.8</ele>
        <time>2024-12-30T14:05:09.167Z</time>
      </trkpt>
      <trkpt lat="48.64461" lon="2.06733">
        <ele>155.8</ele>
        <time>2024-12-30T14:05:12.822Z</time>
      </trkpt>
      <trkpt lat="48.6446" lon="2.06741">
        <ele>155.9</ele>
        <time>2024-12-30T14:05:16.353Z</time>
      </trkpt>
      <trkpt lat="48.64459" lon="2.06748">
        <ele>156</ele>
        <time>2024-12-30T14:05:19.885Z</time>
        <extensions>
          <visugpx:TrkExtension xmlns:visugpx="https://www.visugpx.com/editgpx/">
            <visugpx:node>43</visugpx:node>
            </visugpx:TrkExtension>
        </extensions>
      </trkpt>
      <trkpt lat="48.64459" lon="2.06757">
        <ele>155.7</ele>
        <time>2024-12-30T14:05:23.303Z</time>
      </trkpt>
      <trkpt lat="48.64459" lon="2.06764">
        <ele>155.5</ele>
        <time>2024-12-30T14:05:26.182Z</time>
      </trkpt>
      <trkpt lat="48.64458" lon="2.06772">
        <ele>155.3</ele>
        <time>2024-12-30T14:05:29.061Z</time>
      </trkpt>
      <trkpt lat="48.64458" lon="2.06779">
        <ele>155.1</ele>
        <time>2024-12-30T14:05:31.940Z</time>
      </trkpt>
      <trkpt lat="48.64457" lon="2.06786">
        <ele>155.1</ele>
        <time>2024-12-30T14:05:34.821Z</time>
      </trkpt>
      <trkpt lat="48.64457" lon="2.06794">
        <ele>155.1</ele>
        <time>2024-12-30T14:05:38.411Z</time>
      </trkpt>
      <trkpt lat="48.64456" lon="2.06802">
        <ele>155.2</ele>
        <time>2024-12-30T14:05:42.002Z</time>
      </trkpt>
      <trkpt lat="48.64455" lon="2.06811">
        <ele>155.1</ele>
        <time>2024-12-30T14:05:45.673Z</time>
      </trkpt>
      <trkpt lat="48.64455" lon="2.0682">
        <ele>155.1</ele>
        <time>2024-12-30T14:05:49.345Z</time>
      </trkpt>
      <trkpt lat="48.64454" lon="2.06829">
        <ele>155.1</ele>
        <time>2024-12-30T14:05:53.017Z</time>
      </trkpt>
      <trkpt lat="48.64453" lon="2.06838">
        <ele>155</ele>
        <time>2024-12-30T14:05:56.689Z</time>
      </trkpt>
      <trkpt lat="48.64452" lon="2.06847">
        <ele>154.8</ele>
        <time>2024-12-30T14:06:00.361Z</time>
      </trkpt>
      <trkpt lat="48.64452" lon="2.06856">
        <ele>154.6</ele>
        <time>2024-12-30T14:06:04.033Z</time>
      </trkpt>
      <trkpt lat="48.64451" lon="2.06865">
        <ele>154.4</ele>
        <time>2024-12-30T14:06:07.705Z</time>
      </trkpt>
      <trkpt lat="48.6445" lon="2.06874">
        <ele>154.1</ele>
        <time>2024-12-30T14:06:11.377Z</time>
      </trkpt>
      <trkpt lat="48.64449" lon="2.06883">
        <ele>153.9</ele>
        <time>2024-12-30T14:06:15.049Z</time>
      </trkpt>
      <trkpt lat="48.64449" lon="2.06892">
        <ele>153.7</ele>
        <time>2024-12-30T14:06:18.721Z</time>
      </trkpt>
      <trkpt lat="48.64448" lon="2.06901">
        <ele>153.8</ele>
        <time>2024-12-30T14:06:22.393Z</time>
      </trkpt>
      <trkpt lat="48.64447" lon="2.0691">
        <ele>153.8</ele>
        <time>2024-12-30T14:06:26.065Z</time>
      </trkpt>
      <trkpt lat="48.64446" lon="2.06919">
        <ele>153.8</ele>
        <time>2024-12-30T14:06:29.737Z</time>
      </trkpt>
      <trkpt lat="48.64446" lon="2.06928">
        <ele>153.5</ele>
        <time>2024-12-30T14:06:33.409Z</time>
      </trkpt>
      <trkpt lat="48.64445" lon="2.06937">
        <ele>153.2</ele>
        <time>2024-12-30T14:06:37.081Z</time>
      </trkpt>
      <trkpt lat="48.64444" lon="2.06946">
        <ele>153</ele>
        <time>2024-12-30T14:06:40.754Z</time>
        <extensions>
          <visugpx:TrkExtension xmlns:visugpx="https://www.visugpx.com/editgpx/">
            <visugpx:node>44</visugpx:node>
            </visugpx:TrkExtension>
        </extensions>
      </trkpt>
      <trkpt lat="48.64444" lon="2.06951">
        <ele>152.8</ele>
        <time>2024-12-30T14:06:42.653Z</time>
      </trkpt>
      <trkpt lat="48.64437" lon="2.06951">
        <ele>153.6</ele>
        <time>2024-12-30T14:06:49.823Z</time>
      </trkpt>
      <trkpt lat="48.64429" lon="2.0695">
        <ele>154.5</ele>
        <time>2024-12-30T14:06:56.993Z</time>
      </trkpt>
      <trkpt lat="48.64422" lon="2.06957">
        <ele>155</ele>
        <time>2024-12-30T14:07:03.821Z</time>
      </trkpt>
      <trkpt lat="48.64414" lon="2.06963">
        <ele>155.5</ele>
        <time>2024-12-30T14:07:10.650Z</time>
      </trkpt>
      <trkpt lat="48.64412" lon="2.06974">
        <ele>155.3</ele>
        <time>2024-12-30T14:07:15.556Z</time>
      </trkpt>
      <trkpt lat="48.64409" lon="2.06986">
        <ele>155.2</ele>
        <time>2024-12-30T14:07:20.462Z</time>
      </trkpt>
      <trkpt lat="48.64407" lon="2.06997">
        <ele>155.2</ele>
        <time>2024-12-30T14:07:25.368Z</time>
      </trkpt>
      <trkpt lat="48.64404" lon="2.07008">
        <ele>155.1</ele>
        <time>2024-12-30T14:07:30.275Z</time>
      </trkpt>
      <trkpt lat="48.64402" lon="2.07019">
        <ele>154.9</ele>
        <time>2024-12-30T14:07:35.182Z</time>
      </trkpt>
      <trkpt lat="48.64399" lon="2.07031">
        <ele>154.8</ele>
        <time>2024-12-30T14:07:40.089Z</time>
      </trkpt>
      <trkpt lat="48.64397" lon="2.07042">
        <ele>154.7</ele>
        <time>2024-12-30T14:07:44.996Z</time>
      </trkpt>
      <trkpt lat="48.64394" lon="2.07053">
        <ele>154.5</ele>
        <time>2024-12-30T14:07:49.904Z</time>
      </trkpt>
      <trkpt lat="48.64389" lon="2.07057">
        <ele>155</ele>
        <time>2024-12-30T14:07:54.081Z</time>
      </trkpt>
      <trkpt lat="48.64384" lon="2.0706">
        <ele>155</ele>
        <time>2024-12-30T14:07:58.260Z</time>
      </trkpt>
      <trkpt lat="48.64382" lon="2.07069">
        <ele>154.9</ele>
        <time>2024-12-30T14:08:02.036Z</time>
      </trkpt>
      <trkpt lat="48.6438" lon="2.07078">
        <ele>154.8</ele>
        <time>2024-12-30T14:08:05.812Z</time>
      </trkpt>
      <trkpt lat="48.64378" lon="2.07086">
        <ele>154.7</ele>
        <time>2024-12-30T14:08:09.588Z</time>
      </trkpt>
      <trkpt lat="48.64376" lon="2.07095">
        <ele>154.5</ele>
        <time>2024-12-30T14:08:13.365Z</time>
      </trkpt>
      <trkpt lat="48.64374" lon="2.07097">
        <ele>154.6</ele>
        <time>2024-12-30T14:08:15.161Z</time>
      </trkpt>
      <trkpt lat="48.64373" lon="2.07097">
        <ele>154.7</ele>
        <time>2024-12-30T14:08:16.073Z</time>
        <extensions>
          <visugpx:TrkExtension xmlns:visugpx="https://www.visugpx.com/editgpx/">
            <visugpx:node>45</visugpx:node>
            </visugpx:TrkExtension>
        </extensions>
      </trkpt>
      <trkpt lat="48.64366" lon="2.07094">
        <ele>155.3</ele>
        <time>2024-12-30T14:08:22.172Z</time>
      </trkpt>
      <trkpt lat="48.64359" lon="2.07091">
        <ele>155.8</ele>
        <time>2024-12-30T14:08:28.272Z</time>
      </trkpt>
      <trkpt lat="48.64352" lon="2.0709">
        <ele>156.2</ele>
        <time>2024-12-30T14:08:33.809Z</time>
      </trkpt>
      <trkpt lat="48.6435" lon="2.07083">
        <ele>156.4</ele>
        <time>2024-12-30T14:08:37.702Z</time>
      </trkpt>
      <trkpt lat="48.64347" lon="2.07076">
        <ele>156.6</ele>
        <time>2024-12-30T14:08:41.596Z</time>
      </trkpt>
      <trkpt lat="48.64343" lon="2.07071">
        <ele>156.9</ele>
        <time>2024-12-30T14:08:45.694Z</time>
      </trkpt>
      <trkpt lat="48.64338" lon="2.07069">
        <ele>157.3</ele>
        <time>2024-12-30T14:08:50.358Z</time>
      </trkpt>
      <trkpt lat="48.64332" lon="2.07067">
        <ele>157.7</ele>
        <time>2024-12-30T14:08:55.024Z</time>
      </trkpt>
      <trkpt lat="48.64326" lon="2.07068">
        <ele>157.9</ele>
        <time>2024-12-30T14:08:59.543Z</time>
      </trkpt>
      <trkpt lat="48.6432" lon="2.07069">
        <ele>158.2</ele>
        <time>2024-12-30T14:09:04.062Z</time>
      </trkpt>
      <trkpt lat="48.64316" lon="2.07072">
        <ele>158.4</ele>
        <time>2024-12-30T14:09:07.778Z</time>
      </trkpt>
      <trkpt lat="48.64311" lon="2.07074">
        <ele>158.7</ele>
        <time>2024-12-30T14:09:11.495Z</time>
      </trkpt>
      <trkpt lat="48.64308" lon="2.07079">
        <ele>158.9</ele>
        <time>2024-12-30T14:09:15.099Z</time>
      </trkpt>
      <trkpt lat="48.64304" lon="2.07084">
        <ele>159.1</ele>
        <time>2024-12-30T14:09:18.705Z</time>
      </trkpt>
      <trkpt lat="48.643" lon="2.07086">
        <ele>159.4</ele>
        <time>2024-12-30T14:09:22.367Z</time>
      </trkpt>
      <trkpt lat="48.64295" lon="2.07087">
        <ele>159.6</ele>
        <time>2024-12-30T14:09:26.029Z</time>
      </trkpt>
      <trkpt lat="48.64291" lon="2.07089">
        <ele>159.9</ele>
        <time>2024-12-30T14:09:29.692Z</time>
      </trkpt>
      <trkpt lat="48.64286" lon="2.0709">
        <ele>160.2</ele>
        <time>2024-12-30T14:09:33.355Z</time>
      </trkpt>
      <trkpt lat="48.64278" lon="2.07089">
        <ele>160.8</ele>
        <time>2024-12-30T14:09:40.065Z</time>
      </trkpt>
      <trkpt lat="48.64274" lon="2.07087">
        <ele>161</ele>
        <time>2024-12-30T14:09:43.715Z</time>
      </trkpt>
      <trkpt lat="48.64269" lon="2.07085">
        <ele>161.3</ele>
        <time>2024-12-30T14:09:47.366Z</time>
      </trkpt>
      <trkpt lat="48.64263" lon="2.07077">
        <ele>161.5</ele>
        <time>2024-12-30T14:09:53.408Z</time>
      </trkpt>
    </trkseg>
  </trk>
</gpx>